<?xml version='1.0' encoding='UTF-8'?><gpx version="1.1" creator="JPX - https://github.com/jenetics/jpx" xmlns="http://www.topografix.com/GPX/1/1"><trk><trkseg><trkpt lat="45.69470698460012" lon="8.84864509427954"><ele>288.0</ele><time>2026-04-01T15:38:00Z</time></trkpt><trkpt lat="45.694687072632505" lon="8.84875119531232"><ele>288.0</ele><time>2026-04-01T15:38:01Z</time></trkpt><trkpt lat="45.69467960238761" lon="8.84885972610388"><ele>288.0</ele><time>2026-04-01T15:38:02Z</time></trkpt><trkpt lat="45.69471701640175" lon="8.848958160251469"><ele>288.0</ele><time>2026-04-01T15:38:03Z</time></trkpt><trkpt lat="45.69478354249634" lon="8.849030804654065"><ele>288.0</ele><time>2026-04-01T15:38:04Z</time></trkpt><trkpt lat="45.69485254415201" lon="8.849080220944339"><ele>288.0</ele><time>2026-04-01T15:38:05Z</time></trkpt><trkpt lat="45.694920345001734" lon="8.849122017677368"><ele>288.00000000000006</ele><time>2026-04-01T15:38:06Z</time></trkpt><trkpt lat="45.694977080778585" lon="8.849165842287544"><ele>288.0</ele><time>2026-04-01T15:38:07Z</time></trkpt><trkpt lat="45.69504192783904" lon="8.849216620712182"><ele>288.0</ele><time>2026-04-01T15:38:08Z</time></trkpt><trkpt lat="45.69512057784053" lon="8.84928524630538"><ele>288.0</ele><time>2026-04-01T15:38:09Z</time></trkpt><trkpt lat="45.69518690250626" lon="8.849342242493886"><ele>288.0</ele><time>2026-04-01T15:38:10Z</time></trkpt><trkpt lat="45.69524013828482" lon="8.84939353589749"><ele>288.00000000000006</ele><time>2026-04-01T15:38:11Z</time></trkpt><trkpt lat="45.6953070041289" lon="8.849438185115888"><ele>288.0</ele><time>2026-04-01T15:38:13Z</time></trkpt><trkpt lat="45.69544483382453" lon="8.849459161102777"><ele>288.00000000000006</ele><time>2026-04-01T15:38:38.999Z</time></trkpt><trkpt lat="45.69547956078037" lon="8.849383682901221"><ele>288.0</ele><time>2026-04-01T15:38:39.999Z</time></trkpt><trkpt lat="45.69550156402518" lon="8.84929348895707"><ele>288.0</ele><time>2026-04-01T15:38:40.999Z</time></trkpt><trkpt lat="45.69552602968244" lon="8.849195227878104"><ele>288.0</ele><time>2026-04-01T15:38:41.999Z</time></trkpt><trkpt lat="45.69555303733335" lon="8.849106658010653"><ele>288.0</ele><time>2026-04-01T15:38:42.999Z</time></trkpt><trkpt lat="45.69557987801383" lon="8.849009210446347"><ele>288.00000000000006</ele><time>2026-04-01T15:38:43.999Z</time></trkpt><trkpt lat="45.69559139371755" lon="8.848868520114992"><ele>288.0</ele><time>2026-04-01T15:38:44.999Z</time></trkpt><trkpt lat="45.69562961890775" lon="8.84867811790061"><ele>288.0</ele><time>2026-04-01T15:38:45.999Z</time></trkpt><trkpt lat="45.69566865971784" lon="8.848503610262682"><ele>288.0</ele><time>2026-04-01T15:38:46.999Z</time></trkpt><trkpt lat="45.69573202338621" lon="8.848349420944563"><ele>288.0</ele><time>2026-04-01T15:38:47.999Z</time></trkpt><trkpt lat="45.695766518735574" lon="8.848205099070157"><ele>288.0</ele><time>2026-04-01T15:38:48.999Z</time></trkpt><trkpt lat="45.69580340025015" lon="8.848082411089438"><ele>288.0</ele><time>2026-04-01T15:38:49.999Z</time></trkpt><trkpt lat="45.695841081155685" lon="8.84796419674073"><ele>288.0</ele><time>2026-04-01T15:38:50.999Z</time></trkpt><trkpt lat="45.69588425011739" lon="8.847848919719038"><ele>288.0</ele><time>2026-04-01T15:38:51.999Z</time></trkpt><trkpt lat="45.69592761758656" lon="8.847755117180206"><ele>288.0</ele><time>2026-04-01T15:38:52.999Z</time></trkpt><trkpt lat="45.69595609262258" lon="8.847653654962823"><ele>288.0</ele><time>2026-04-01T15:38:53.999Z</time></trkpt><trkpt lat="45.696029797799724" lon="8.847586577624332"><ele>288.0</ele><time>2026-04-01T15:38:54.999Z</time></trkpt><trkpt lat="45.69610381062474" lon="8.847483655701096"><ele>288.6</ele><time>2026-04-01T15:38:56.999Z</time></trkpt><trkpt lat="45.69619459409134" lon="8.84749095515452"><ele>289.20000000000005</ele><time>2026-04-01T15:38:58.999Z</time></trkpt><trkpt lat="45.696294778553394" lon="8.847482958300658"><ele>289.8</ele><time>2026-04-01T15:39:00.999Z</time></trkpt><trkpt lat="45.69633237616805" lon="8.84740893310786"><ele>290.40000000000003</ele><time>2026-04-01T15:39:01.999Z</time></trkpt><trkpt lat="45.69635089976203" lon="8.847267130782598"><ele>291.0</ele><time>2026-04-01T15:39:02.999Z</time></trkpt><trkpt lat="45.69638434215248" lon="8.847096780203374"><ele>291.0</ele><time>2026-04-01T15:39:03.999Z</time></trkpt><trkpt lat="45.69643304884385" lon="8.846960435411813"><ele>291.0</ele><time>2026-04-01T15:39:04.999Z</time></trkpt><trkpt lat="45.69645973871582" lon="8.846848675621938"><ele>291.0</ele><time>2026-04-01T15:39:05.999Z</time></trkpt><trkpt lat="45.696489343075896" lon="8.84673212796962"><ele>291.0</ele><time>2026-04-01T15:39:06.999Z</time></trkpt><trkpt lat="45.69651519134865" lon="8.84660680407527"><ele>291.0</ele><time>2026-04-01T15:39:07.999Z</time></trkpt><trkpt lat="45.696541596820765" lon="8.846487767540195"><ele>291.3333333333333</ele><time>2026-04-01T15:39:08.999Z</time></trkpt><trkpt lat="45.69658183160527" lon="8.846363860750907"><ele>291.6666666666667</ele><time>2026-04-01T15:39:09.999Z</time></trkpt><trkpt lat="45.69662457641686" lon="8.846235556663165"><ele>292.0</ele><time>2026-04-01T15:39:10.999Z</time></trkpt><trkpt lat="45.69665736725809" lon="8.846104007139637"><ele>292.33333333333337</ele><time>2026-04-01T15:39:11.999Z</time></trkpt><trkpt lat="45.696674881068716" lon="8.845999996404926"><ele>292.6666666666667</ele><time>2026-04-01T15:39:12.999Z</time></trkpt><trkpt lat="45.696683739744124" lon="8.845884560738103"><ele>293.0</ele><time>2026-04-01T15:39:13.998Z</time></trkpt><trkpt lat="45.696690982340854" lon="8.845780826381528"><ele>293.4</ele><time>2026-04-01T15:39:14.998Z</time></trkpt><trkpt lat="45.69674052905395" lon="8.845637651539585"><ele>293.8</ele><time>2026-04-01T15:39:16.998Z</time></trkpt><trkpt lat="45.6967867203077" lon="8.84556747715547"><ele>294.2</ele><time>2026-04-01T15:39:17.998Z</time></trkpt><trkpt lat="45.696825077365396" lon="8.845489360599188"><ele>294.6</ele><time>2026-04-01T15:39:19.998Z</time></trkpt><trkpt lat="45.6968866032185" lon="8.845318440294331"><ele>295.0</ele><time>2026-04-01T15:39:21.998Z</time></trkpt><trkpt lat="45.696895493481264" lon="8.845196060484152"><ele>295.8</ele><time>2026-04-01T15:39:22.998Z</time></trkpt><trkpt lat="45.696886321553315" lon="8.845021470016603"><ele>296.6</ele><time>2026-04-01T15:39:23.998Z</time></trkpt><trkpt lat="45.696895657571936" lon="8.84488908127797"><ele>297.4</ele><time>2026-04-01T15:39:24.998Z</time></trkpt><trkpt lat="45.69692854860193" lon="8.844741080305395"><ele>298.2</ele><time>2026-04-01T15:39:26.998Z</time></trkpt><trkpt lat="45.69700062069522" lon="8.844684704003127"><ele>299.0</ele><time>2026-04-01T15:39:28.998Z</time></trkpt><trkpt lat="45.69695533659324" lon="8.84455415081615"><ele>299.0</ele><time>2026-04-01T15:39:54Z</time></trkpt><trkpt lat="45.69687221543672" lon="8.84451013919403"><ele>299.0</ele><time>2026-04-01T15:39:55Z</time></trkpt><trkpt lat="45.69678317355579" lon="8.844423814690288"><ele>299.0</ele><time>2026-04-01T15:39:56Z</time></trkpt><trkpt lat="45.696698621683694" lon="8.844299145528138"><ele>299.0</ele><time>2026-04-01T15:39:57Z</time></trkpt><trkpt lat="45.69663077767405" lon="8.844189935298044"><ele>299.0</ele><time>2026-04-01T15:39:58Z</time></trkpt><trkpt lat="45.69652591351938" lon="8.844108753770225"><ele>298.83333333333337</ele><time>2026-04-01T15:39:59Z</time></trkpt><trkpt lat="45.69644458074996" lon="8.844026356391305"><ele>298.6666666666667</ele><time>2026-04-01T15:40:00Z</time></trkpt><trkpt lat="45.69639370100845" lon="8.843964080570803"><ele>298.5</ele><time>2026-04-01T15:40:01Z</time></trkpt><trkpt lat="45.696315447075655" lon="8.843901949217884"><ele>298.3333333333333</ele><time>2026-04-01T15:40:02Z</time></trkpt><trkpt lat="45.69621587784886" lon="8.843855609776751"><ele>298.16666666666663</ele><time>2026-04-01T15:40:03Z</time></trkpt><trkpt lat="45.69614072615858" lon="8.84380580251461"><ele>298.0</ele><time>2026-04-01T15:40:04Z</time></trkpt><trkpt lat="45.696056615967905" lon="8.84368480785262"><ele>298.0</ele><time>2026-04-01T15:40:06Z</time></trkpt><trkpt lat="45.69598134302836" lon="8.84362610740588"><ele>298.0</ele><time>2026-04-01T15:40:07Z</time></trkpt><trkpt lat="45.69587314742264" lon="8.843541428722544"><ele>298.0</ele><time>2026-04-01T15:40:09Z</time></trkpt><trkpt lat="45.69581345205894" lon="8.84349619133191"><ele>298.0</ele><time>2026-04-01T15:40:10Z</time></trkpt><trkpt lat="45.695758992467766" lon="8.843441831398266"><ele>298.0</ele><time>2026-04-01T15:40:11Z</time></trkpt><trkpt lat="45.695710311267575" lon="8.843358537195774"><ele>298.0</ele><time>2026-04-01T15:40:12Z</time></trkpt><trkpt lat="45.69561350573621" lon="8.8432936659626"><ele>298.2</ele><time>2026-04-01T15:40:14Z</time></trkpt><trkpt lat="45.69550282229291" lon="8.843226370984137"><ele>298.4</ele><time>2026-04-01T15:40:16Z</time></trkpt><trkpt lat="45.69542597083531" lon="8.843177478831974"><ele>298.59999999999997</ele><time>2026-04-01T15:40:17Z</time></trkpt><trkpt lat="45.69533229670911" lon="8.843131870285292"><ele>298.8</ele><time>2026-04-01T15:40:18Z</time></trkpt><trkpt lat="45.69524922753061" lon="8.843089423251099"><ele>299.0</ele><time>2026-04-01T15:40:19Z</time></trkpt><trkpt lat="45.69517374691946" lon="8.843053525698897"><ele>299.0</ele><time>2026-04-01T15:40:20Z</time></trkpt><trkpt lat="45.695105452516145" lon="8.84304926611058"><ele>299.0</ele><time>2026-04-01T15:40:20.999Z</time></trkpt><trkpt lat="45.69497937288489" lon="8.843074187380724"><ele>299.0</ele><time>2026-04-01T15:40:22.999Z</time></trkpt><trkpt lat="45.69489725368173" lon="8.843036906522327"><ele>299.0</ele><time>2026-04-01T15:40:23.999Z</time></trkpt><trkpt lat="45.6947689389387" lon="8.842980054370205"><ele>299.0</ele><time>2026-04-01T15:40:24.999Z</time></trkpt><trkpt lat="45.694670459234175" lon="8.842945690798622"><ele>299.0</ele><time>2026-04-01T15:40:25.999Z</time></trkpt><trkpt lat="45.69459986568541" lon="8.842907571436179"><ele>299.0</ele><time>2026-04-01T15:40:26.999Z</time></trkpt><trkpt lat="45.69448556033602" lon="8.842873226550854"><ele>299.0</ele><time>2026-04-01T15:40:28.999Z</time></trkpt><trkpt lat="45.69439203200941" lon="8.842828330608462"><ele>299.0</ele><time>2026-04-01T15:40:29.999Z</time></trkpt><trkpt lat="45.69426788722207" lon="8.842776326793325"><ele>299.0</ele><time>2026-04-01T15:40:30.999Z</time></trkpt><trkpt lat="45.69417281636307" lon="8.84277869091503"><ele>299.2</ele><time>2026-04-01T15:40:31.999Z</time></trkpt><trkpt lat="45.69408733890804" lon="8.842788728300597"><ele>299.4</ele><time>2026-04-01T15:40:32.999Z</time></trkpt><trkpt lat="45.69399238895001" lon="8.842769834531111"><ele>299.6</ele><time>2026-04-01T15:40:33.999Z</time></trkpt><trkpt lat="45.693891538381386" lon="8.842723242291125"><ele>299.8</ele><time>2026-04-01T15:40:34.999Z</time></trkpt><trkpt lat="45.69379341916928" lon="8.842666220275996"><ele>300.0</ele><time>2026-04-01T15:40:35.999Z</time></trkpt><trkpt lat="45.69370783465358" lon="8.842589648570703"><ele>300.0</ele><time>2026-04-01T15:40:36.999Z</time></trkpt><trkpt lat="45.693634736491894" lon="8.842520969269602"><ele>300.0</ele><time>2026-04-01T15:40:37.999Z</time></trkpt><trkpt lat="45.693515669002494" lon="8.842469136591221"><ele>300.0</ele><time>2026-04-01T15:40:38.999Z</time></trkpt><trkpt lat="45.693387651560016" lon="8.842432617486157"><ele>300.0</ele><time>2026-04-01T15:40:39.999Z</time></trkpt><trkpt lat="45.69329281824572" lon="8.842391284543048"><ele>300.0</ele><time>2026-04-01T15:40:40.999Z</time></trkpt><trkpt lat="45.69320518122056" lon="8.842372723244685"><ele>299.2</ele><time>2026-04-01T15:40:41.999Z</time></trkpt><trkpt lat="45.693106151230566" lon="8.842334758323634"><ele>298.4</ele><time>2026-04-01T15:40:42.999Z</time></trkpt><trkpt lat="45.69299172112359" lon="8.842274841224395"><ele>297.6</ele><time>2026-04-01T15:40:43.999Z</time></trkpt><trkpt lat="45.69288375859831" lon="8.842240268305897"><ele>296.8</ele><time>2026-04-01T15:40:44.999Z</time></trkpt><trkpt lat="45.692793111087944" lon="8.842191169214434"><ele>296.0</ele><time>2026-04-01T15:40:45.999Z</time></trkpt><trkpt lat="45.692722798968354" lon="8.842150255400597"><ele>296.40000000000003</ele><time>2026-04-01T15:40:46.999Z</time></trkpt><trkpt lat="45.69266969314586" lon="8.84208959355518"><ele>296.8</ele><time>2026-04-01T15:40:47.999Z</time></trkpt><trkpt lat="45.692596026072586" lon="8.842001322436975"><ele>297.20000000000005</ele><time>2026-04-01T15:40:48.999Z</time></trkpt><trkpt lat="45.69253934685169" lon="8.84187405635527"><ele>297.6</ele><time>2026-04-01T15:40:49.999Z</time></trkpt><trkpt lat="45.69247309979123" lon="8.841748853378837"><ele>298.0</ele><time>2026-04-01T15:40:50.999Z</time></trkpt><trkpt lat="45.69241860435834" lon="8.841647843491605"><ele>298.0</ele><time>2026-04-01T15:40:52.999Z</time></trkpt><trkpt lat="45.692436981245045" lon="8.84155978080925"><ele>298.0</ele><time>2026-04-01T15:40:55.999Z</time></trkpt><trkpt lat="45.69251645665917" lon="8.841564754053866"><ele>298.0</ele><time>2026-04-01T15:40:57.999Z</time></trkpt><trkpt lat="45.692583164881476" lon="8.841595202918498"><ele>298.0</ele><time>2026-04-01T15:40:58.999Z</time></trkpt><trkpt lat="45.692671301347765" lon="8.841626004072632"><ele>298.0</ele><time>2026-04-01T15:40:59.999Z</time></trkpt><trkpt lat="45.69277278739541" lon="8.84162442979815"><ele>298.0</ele><time>2026-04-01T15:41:00.999Z</time></trkpt><trkpt lat="45.69289708233624" lon="8.841624191775786"><ele>299.75</ele><time>2026-04-01T15:41:01.999Z</time></trkpt><trkpt lat="45.693006707658" lon="8.841654936414681"><ele>301.5</ele><time>2026-04-01T15:41:02.999Z</time></trkpt><trkpt lat="45.69310756683955" lon="8.84165871151575"><ele>303.25</ele><time>2026-04-01T15:41:03.999Z</time></trkpt><trkpt lat="45.693241752609005" lon="8.841654486609396"><ele>305.0</ele><time>2026-04-01T15:41:04.999Z</time></trkpt><trkpt lat="45.693360730032275" lon="8.841669752873342"><ele>305.0</ele><time>2026-04-01T15:41:05.999Z</time></trkpt><trkpt lat="45.693480000819754" lon="8.841691334090834"><ele>305.0</ele><time>2026-04-01T15:41:06.999Z</time></trkpt><trkpt lat="45.69360133608616" lon="8.841702354109394"><ele>305.0</ele><time>2026-04-01T15:41:07.999Z</time></trkpt><trkpt lat="45.693713542490435" lon="8.84170968788248"><ele>305.0</ele><time>2026-04-01T15:41:08.999Z</time></trkpt><trkpt lat="45.693817523903924" lon="8.841713828514594"><ele>306.0</ele><time>2026-04-01T15:41:09.999Z</time></trkpt><trkpt lat="45.69390362786244" lon="8.841730046700734"><ele>307.0</ele><time>2026-04-01T15:41:10.999Z</time></trkpt><trkpt lat="45.694002328094726" lon="8.84175476693207"><ele>308.0</ele><time>2026-04-01T15:41:11.999Z</time></trkpt><trkpt lat="45.694114369712295" lon="8.841768501660138"><ele>309.0</ele><time>2026-04-01T15:41:12.999Z</time></trkpt><trkpt lat="45.694223103269145" lon="8.84176747985973"><ele>310.0</ele><time>2026-04-01T15:41:13.999Z</time></trkpt><trkpt lat="45.69432589609963" lon="8.841776817511809"><ele>309.5</ele><time>2026-04-01T15:41:14.999Z</time></trkpt><trkpt lat="45.69444656130582" lon="8.841792448956545"><ele>309.0</ele><time>2026-04-01T15:41:15.999Z</time></trkpt><trkpt lat="45.69456720618365" lon="8.841800536874002"><ele>308.5</ele><time>2026-04-01T15:41:16.999Z</time></trkpt><trkpt lat="45.694706523148824" lon="8.841806739549845"><ele>308.0</ele><time>2026-04-01T15:41:17.999Z</time></trkpt><trkpt lat="45.69484393038954" lon="8.841835838348945"><ele>308.0</ele><time>2026-04-01T15:41:18.998Z</time></trkpt><trkpt lat="45.69493654367184" lon="8.841844561353334"><ele>308.0</ele><time>2026-04-01T15:41:19.998Z</time></trkpt><trkpt lat="45.69501086650787" lon="8.841849218192523"><ele>308.0</ele><time>2026-04-01T15:41:20.998Z</time></trkpt><trkpt lat="45.69508045240988" lon="8.841849439730295"><ele>308.0</ele><time>2026-04-01T15:41:21.998Z</time></trkpt><trkpt lat="45.69518782879274" lon="8.841800794237098"><ele>308.0</ele><time>2026-04-01T15:41:23.998Z</time></trkpt><trkpt lat="45.69523550548324" lon="8.841606361597385"><ele>310.6</ele><time>2026-04-01T15:41:25.998Z</time></trkpt><trkpt lat="45.69526464816508" lon="8.841477948615767"><ele>313.20000000000005</ele><time>2026-04-01T15:41:26.998Z</time></trkpt><trkpt lat="45.69534168364669" lon="8.841376185078163"><ele>315.8</ele><time>2026-04-01T15:41:27.998Z</time></trkpt><trkpt lat="45.69541895235563" lon="8.841275277329805"><ele>318.40000000000003</ele><time>2026-04-01T15:41:28.998Z</time></trkpt><trkpt lat="45.695487953457864" lon="8.84115652614027"><ele>321.0</ele><time>2026-04-01T15:41:29.998Z</time></trkpt><trkpt lat="45.69555330254439" lon="8.841044850912391"><ele>321.20000000000005</ele><time>2026-04-01T15:41:30.998Z</time></trkpt><trkpt lat="45.69560596726355" lon="8.840939942694629"><ele>321.40000000000003</ele><time>2026-04-01T15:41:31.998Z</time></trkpt><trkpt lat="45.69564542375726" lon="8.84081386617908"><ele>321.6</ele><time>2026-04-01T15:41:33.998Z</time></trkpt><trkpt lat="45.695742552294334" lon="8.840710465413128"><ele>321.8</ele><time>2026-04-01T15:41:35.998Z</time></trkpt><trkpt lat="45.695827451217596" lon="8.840702718621497"><ele>322.0</ele><time>2026-04-01T15:41:36.998Z</time></trkpt><trkpt lat="45.69590337757968" lon="8.84066562101069"><ele>322.0</ele><time>2026-04-01T15:41:37.998Z</time></trkpt><trkpt lat="45.69597481221313" lon="8.840612472366356"><ele>322.0</ele><time>2026-04-01T15:41:38.998Z</time></trkpt><trkpt lat="45.696047901657714" lon="8.840575961880607"><ele>322.0</ele><time>2026-04-01T15:41:39.998Z</time></trkpt><trkpt lat="45.69613024603366" lon="8.840547069546876"><ele>322.0</ele><time>2026-04-01T15:41:40.998Z</time></trkpt><trkpt lat="45.69622773801681" lon="8.840539986475106"><ele>322.0</ele><time>2026-04-01T15:41:41.998Z</time></trkpt><trkpt lat="45.69632810806625" lon="8.840525762084448"><ele>322.0</ele><time>2026-04-01T15:41:42.998Z</time></trkpt><trkpt lat="45.69642085099953" lon="8.840520463172634"><ele>322.3333333333333</ele><time>2026-04-01T15:41:44Z</time></trkpt><trkpt lat="45.69651953959402" lon="8.840505643169093"><ele>322.66666666666663</ele><time>2026-04-01T15:41:45Z</time></trkpt><trkpt lat="45.6966179649724" lon="8.840497163992431"><ele>323.0</ele><time>2026-04-01T15:41:46Z</time></trkpt><trkpt lat="45.696710057261654" lon="8.840495073549059"><ele>323.3333333333333</ele><time>2026-04-01T15:41:47Z</time></trkpt><trkpt lat="45.69679202472914" lon="8.840503530622845"><ele>323.6666666666667</ele><time>2026-04-01T15:41:48Z</time></trkpt><trkpt lat="45.69686246587486" lon="8.840520242706754"><ele>324.0</ele><time>2026-04-01T15:41:49Z</time></trkpt><trkpt lat="45.696943579806266" lon="8.84051336438942"><ele>324.2</ele><time>2026-04-01T15:42:01Z</time></trkpt><trkpt lat="45.697058108602754" lon="8.8405044003103"><ele>324.4</ele><time>2026-04-01T15:42:03Z</time></trkpt><trkpt lat="45.69711865263556" lon="8.840568050288331"><ele>324.6</ele><time>2026-04-01T15:42:05Z</time></trkpt><trkpt lat="45.697093656801556" lon="8.840719928922281"><ele>324.8</ele><time>2026-04-01T15:42:07Z</time></trkpt><trkpt lat="45.69708907786741" lon="8.840830601708982"><ele>325.0</ele><time>2026-04-01T15:42:08Z</time></trkpt><trkpt lat="45.697077352728066" lon="8.840947287441647"><ele>324.4</ele><time>2026-04-01T15:42:09Z</time></trkpt><trkpt lat="45.697075387661705" lon="8.841129402780819"><ele>323.8</ele><time>2026-04-01T15:42:11Z</time></trkpt><trkpt lat="45.69708042781112" lon="8.841237365038255"><ele>323.20000000000005</ele><time>2026-04-01T15:42:12Z</time></trkpt><trkpt lat="45.69708191815817" lon="8.841379263369117"><ele>322.6</ele><time>2026-04-01T15:42:13Z</time></trkpt><trkpt lat="45.69708425683276" lon="8.841509880380181"><ele>322.0</ele><time>2026-04-01T15:42:14Z</time></trkpt><trkpt lat="45.69708145656396" lon="8.841635707402352"><ele>322.0</ele><time>2026-04-01T15:42:15Z</time></trkpt><trkpt lat="45.69708171071597" lon="8.841736174781248"><ele>322.0</ele><time>2026-04-01T15:42:16Z</time></trkpt><trkpt lat="45.69708597655841" lon="8.841849444525478"><ele>322.0</ele><time>2026-04-01T15:42:17Z</time></trkpt><trkpt lat="45.697096308434226" lon="8.841955261754675"><ele>322.0</ele><time>2026-04-01T15:42:18Z</time></trkpt><trkpt lat="45.697081489339325" lon="8.842078936375225"><ele>322.0</ele><time>2026-04-01T15:42:19Z</time></trkpt><trkpt lat="45.697080915241195" lon="8.842202281718317"><ele>322.0</ele><time>2026-04-01T15:42:20Z</time></trkpt><trkpt lat="45.697089793254165" lon="8.842306160442082"><ele>321.5</ele><time>2026-04-01T15:42:21Z</time></trkpt><trkpt lat="45.69710031019011" lon="8.842440888475343"><ele>321.0</ele><time>2026-04-01T15:42:23Z</time></trkpt><trkpt lat="45.697093471899365" lon="8.842535969709385"><ele>320.5</ele><time>2026-04-01T15:42:24Z</time></trkpt><trkpt lat="45.69709742773599" lon="8.842721320888613"><ele>320.0</ele><time>2026-04-01T15:42:25.999Z</time></trkpt><trkpt lat="45.697091604422226" lon="8.842829260201233"><ele>319.5</ele><time>2026-04-01T15:42:26.999Z</time></trkpt><trkpt lat="45.6970910941468" lon="8.842923957604915"><ele>319.0</ele><time>2026-04-01T15:42:27.999Z</time></trkpt><trkpt lat="45.697087761089854" lon="8.84304804425141"><ele>318.66666666666663</ele><time>2026-04-01T15:42:29.999Z</time></trkpt><trkpt lat="45.69709868081684" lon="8.843142080054358"><ele>318.3333333333333</ele><time>2026-04-01T15:42:32.999Z</time></trkpt><trkpt lat="45.69710527095061" lon="8.84327694017715"><ele>318.0</ele><time>2026-04-01T15:42:36.999Z</time></trkpt><trkpt lat="45.697104104985485" lon="8.843372222986583"><ele>317.6666666666667</ele><time>2026-04-01T15:42:39.999Z</time></trkpt><trkpt lat="45.69711345541698" lon="8.843476197770265"><ele>317.33333333333337</ele><time>2026-04-01T15:42:41.999Z</time></trkpt><trkpt lat="45.69712230723889" lon="8.843591791892074"><ele>317.0</ele><time>2026-04-01T15:42:43.999Z</time></trkpt><trkpt lat="45.697117682168376" lon="8.843724964966707"><ele>316.1666666666667</ele><time>2026-04-01T15:42:45.999Z</time></trkpt><trkpt lat="45.697110401780925" lon="8.843830068371862"><ele>315.33333333333337</ele><time>2026-04-01T15:42:47.999Z</time></trkpt><trkpt lat="45.697107879964356" lon="8.843969616421326"><ele>314.5</ele><time>2026-04-01T15:42:49.999Z</time></trkpt><trkpt lat="45.69710000643548" lon="8.844126268903139"><ele>313.6666666666667</ele><time>2026-04-01T15:42:51.999Z</time></trkpt><trkpt lat="45.69710456250307" lon="8.844262420016292"><ele>312.8333333333333</ele><time>2026-04-01T15:42:53.999Z</time></trkpt><trkpt lat="45.697109840263494" lon="8.84435480294406"><ele>312.0</ele><time>2026-04-01T15:42:55.999Z</time></trkpt><trkpt lat="45.697090964201365" lon="8.844497698607672"><ele>312.0</ele><time>2026-04-01T15:42:58.999Z</time></trkpt><trkpt lat="45.697091584492036" lon="8.844638542147038"><ele>312.0</ele><time>2026-04-01T15:43:01.999Z</time></trkpt><trkpt lat="45.69712151777715" lon="8.84450779353277"><ele>312.0</ele><time>2026-04-01T15:43:14.999Z</time></trkpt><trkpt lat="45.69712095512622" lon="8.844415152169667"><ele>312.0</ele><time>2026-04-01T15:43:15.999Z</time></trkpt><trkpt lat="45.69711926785636" lon="8.84431602026465"><ele>312.0</ele><time>2026-04-01T15:43:16.999Z</time></trkpt><trkpt lat="45.697108022667315" lon="8.844216201224736"><ele>312.0</ele><time>2026-04-01T15:43:17.999Z</time></trkpt><trkpt lat="45.697101407652625" lon="8.844108079595424"><ele>312.0</ele><time>2026-04-01T15:43:18.999Z</time></trkpt><trkpt lat="45.69710853211513" lon="8.843994951137443"><ele>312.0</ele><time>2026-04-01T15:43:19.999Z</time></trkpt><trkpt lat="45.697105736122126" lon="8.843850956361951"><ele>312.0</ele><time>2026-04-01T15:43:21.999Z</time></trkpt><trkpt lat="45.69710309056471" lon="8.84368209309253"><ele>312.0</ele><time>2026-04-01T15:43:23.998Z</time></trkpt><trkpt lat="45.69710281310482" lon="8.843519191329577"><ele>312.0</ele><time>2026-04-01T15:43:25.998Z</time></trkpt><trkpt lat="45.69709408602586" lon="8.843422139065865"><ele>312.8333333333333</ele><time>2026-04-01T15:43:26.998Z</time></trkpt><trkpt lat="45.6971071231006" lon="8.84328336809631"><ele>313.6666666666667</ele><time>2026-04-01T15:43:28.998Z</time></trkpt><trkpt lat="45.697098781038164" lon="8.843172749846548"><ele>314.5</ele><time>2026-04-01T15:43:30.998Z</time></trkpt><trkpt lat="45.697110169181606" lon="8.843048194662224"><ele>315.33333333333337</ele><time>2026-04-01T15:43:32.998Z</time></trkpt><trkpt lat="45.697113198666784" lon="8.842943532441476"><ele>316.1666666666667</ele><time>2026-04-01T15:43:34.998Z</time></trkpt><trkpt lat="45.697109443062764" lon="8.842793824576034"><ele>317.0</ele><time>2026-04-01T15:43:55Z</time></trkpt><trkpt lat="45.697112242583025" lon="8.8426754221388"><ele>317.33333333333337</ele><time>2026-04-01T15:43:57Z</time></trkpt><trkpt lat="45.697112510465985" lon="8.84253851456531"><ele>317.6666666666667</ele><time>2026-04-01T15:43:59Z</time></trkpt><trkpt lat="45.697099665852484" lon="8.842397682880883"><ele>318.0</ele><time>2026-04-01T15:44:01Z</time></trkpt><trkpt lat="45.69710798348981" lon="8.842275801331336"><ele>318.3333333333333</ele><time>2026-04-01T15:44:03Z</time></trkpt><trkpt lat="45.697095684520335" lon="8.842155684161487"><ele>318.66666666666663</ele><time>2026-04-01T15:44:05Z</time></trkpt><trkpt lat="45.69710679363968" lon="8.842065918486542"><ele>319.0</ele><time>2026-04-01T15:44:06Z</time></trkpt><trkpt lat="45.6971074389721" lon="8.841972259351339"><ele>319.6</ele><time>2026-04-01T15:44:07Z</time></trkpt><trkpt lat="45.69710589011536" lon="8.841788740901949"><ele>320.2</ele><time>2026-04-01T15:44:09Z</time></trkpt><trkpt lat="45.697112784780025" lon="8.841634558707995"><ele>320.8</ele><time>2026-04-01T15:44:11Z</time></trkpt><trkpt lat="45.697093083392645" lon="8.84147573600483"><ele>321.40000000000003</ele><time>2026-04-01T15:44:13Z</time></trkpt><trkpt lat="45.69709504298367" lon="8.841370133279971"><ele>322.0</ele><time>2026-04-01T15:44:14Z</time></trkpt><trkpt lat="45.69709617995632" lon="8.841250231935755"><ele>322.0</ele><time>2026-04-01T15:44:15Z</time></trkpt><trkpt lat="45.697104590083256" lon="8.841112204410216"><ele>322.0</ele><time>2026-04-01T15:44:16Z</time></trkpt><trkpt lat="45.697099402309924" lon="8.841003115928906"><ele>322.0</ele><time>2026-04-01T15:44:17Z</time></trkpt><trkpt lat="45.69709279312374" lon="8.840823788117712"><ele>322.0</ele><time>2026-04-01T15:44:19Z</time></trkpt><trkpt lat="45.69709772364979" lon="8.840705247055324"><ele>322.0</ele><time>2026-04-01T15:44:20Z</time></trkpt><trkpt lat="45.69710766446281" lon="8.840560507653262"><ele>322.6</ele><time>2026-04-01T15:44:22Z</time></trkpt><trkpt lat="45.697075503916665" lon="8.84047207091229"><ele>323.20000000000005</ele><time>2026-04-01T15:45:38.998Z</time></trkpt><trkpt lat="45.69696824031157" lon="8.840481417465474"><ele>323.8</ele><time>2026-04-01T15:45:40.998Z</time></trkpt><trkpt lat="45.696996264654125" lon="8.84028936719337"><ele>324.4</ele><time>2026-04-01T15:45:45.998Z</time></trkpt><trkpt lat="45.697015993872604" lon="8.840155070261282"><ele>325.0</ele><time>2026-04-01T15:45:47.998Z</time></trkpt><trkpt lat="45.697039082251585" lon="8.840042820391169"><ele>325.0</ele><time>2026-04-01T15:45:48.998Z</time></trkpt><trkpt lat="45.69706430131161" lon="8.839925032087999"><ele>325.0</ele><time>2026-04-01T15:45:49.998Z</time></trkpt><trkpt lat="45.69707543162107" lon="8.839827157693879"><ele>325.0</ele><time>2026-04-01T15:45:50.998Z</time></trkpt><trkpt lat="45.69710240127387" lon="8.839709650735253"><ele>325.0</ele><time>2026-04-01T15:45:52.998Z</time></trkpt><trkpt lat="45.69710499006469" lon="8.839604476220135"><ele>325.0</ele><time>2026-04-01T15:45:56Z</time></trkpt><trkpt lat="45.69713357706194" lon="8.839436350535802"><ele>325.0</ele><time>2026-04-01T15:45:58Z</time></trkpt><trkpt lat="45.69713937370055" lon="8.839319481589865"><ele>324.8333333333333</ele><time>2026-04-01T15:45:59Z</time></trkpt><trkpt lat="45.69715474649538" lon="8.83922455283001"><ele>324.66666666666663</ele><time>2026-04-01T15:46:00Z</time></trkpt><trkpt lat="45.69716911032897" lon="8.839081990962125"><ele>324.5</ele><time>2026-04-01T15:46:02Z</time></trkpt><trkpt lat="45.69716621560043" lon="8.838967276243435"><ele>324.3333333333333</ele><time>2026-04-01T15:46:04Z</time></trkpt><trkpt lat="45.69717654490003" lon="8.838850544514461"><ele>324.1666666666667</ele><time>2026-04-01T15:46:06Z</time></trkpt><trkpt lat="45.697168550743164" lon="8.838742435949632"><ele>324.0</ele><time>2026-04-01T15:46:08Z</time></trkpt><trkpt lat="45.69717275700022" lon="8.838635903867466"><ele>324.0</ele><time>2026-04-01T15:46:12Z</time></trkpt><trkpt lat="45.697175703642756" lon="8.838506722570747"><ele>324.0</ele><time>2026-04-01T15:46:14Z</time></trkpt><trkpt lat="45.69716273601672" lon="8.83840044482899"><ele>324.0</ele><time>2026-04-01T15:46:15Z</time></trkpt><trkpt lat="45.697154373640885" lon="8.838261302423767"><ele>324.0</ele><time>2026-04-01T15:46:17Z</time></trkpt><trkpt lat="45.69715352133567" lon="8.83815914527771"><ele>324.0</ele><time>2026-04-01T15:46:18Z</time></trkpt><trkpt lat="45.69715794319038" lon="8.83806064477183"><ele>324.0</ele><time>2026-04-01T15:46:19Z</time></trkpt><trkpt lat="45.697160363864164" lon="8.837961370402427"><ele>323.5</ele><time>2026-04-01T15:46:20Z</time></trkpt><trkpt lat="45.69715759274237" lon="8.837793720156846"><ele>323.0</ele><time>2026-04-01T15:46:22Z</time></trkpt><trkpt lat="45.69715408754493" lon="8.837674636682149"><ele>322.5</ele><time>2026-04-01T15:46:23Z</time></trkpt><trkpt lat="45.697153454728685" lon="8.837561476126357"><ele>322.0</ele><time>2026-04-01T15:46:24Z</time></trkpt><trkpt lat="45.69715011068732" lon="8.837443051400024"><ele>321.5</ele><time>2026-04-01T15:46:25Z</time></trkpt><trkpt lat="45.69714541429159" lon="8.83733218244718"><ele>321.0</ele><time>2026-04-01T15:46:26Z</time></trkpt><trkpt lat="45.69714838326702" lon="8.83717104370074"><ele>320.5</ele><time>2026-04-01T15:46:28Z</time></trkpt><trkpt lat="45.69715400054782" lon="8.83707824669746"><ele>320.0</ele><time>2026-04-01T15:46:30Z</time></trkpt><trkpt lat="45.69716489070138" lon="8.836981321631846"><ele>319.5</ele><time>2026-04-01T15:46:32Z</time></trkpt><trkpt lat="45.697172532151825" lon="8.836886994622823"><ele>319.0</ele><time>2026-04-01T15:46:34Z</time></trkpt><trkpt lat="45.69714130548372" lon="8.836782219385926"><ele>318.5</ele><time>2026-04-01T15:46:37Z</time></trkpt><trkpt lat="45.69708501115005" lon="8.83668880833978"><ele>318.0</ele><time>2026-04-01T15:46:38.999Z</time></trkpt><trkpt lat="45.69700855182862" lon="8.836596324545454"><ele>316.8</ele><time>2026-04-01T15:46:41.999Z</time></trkpt><trkpt lat="45.69693615124126" lon="8.836516531818729"><ele>315.6</ele><time>2026-04-01T15:46:43.999Z</time></trkpt><trkpt lat="45.69686382454536" lon="8.836435061913596"><ele>314.4</ele><time>2026-04-01T15:46:45.999Z</time></trkpt><trkpt lat="45.69680092004543" lon="8.836359398189668"><ele>313.2</ele><time>2026-04-01T15:46:48.999Z</time></trkpt><trkpt lat="45.69681294683472" lon="8.836203267673948"><ele>312.0</ele><time>2026-04-01T15:46:51.999Z</time></trkpt><trkpt lat="45.696799722904835" lon="8.836029168303828"><ele>310.3333333333333</ele><time>2026-04-01T15:46:53.999Z</time></trkpt><trkpt lat="45.696789805476485" lon="8.835939737373911"><ele>308.6666666666667</ele><time>2026-04-01T15:46:54.999Z</time></trkpt><trkpt lat="45.696775704493675" lon="8.835845598078446"><ele>307.0</ele><time>2026-04-01T15:46:55.999Z</time></trkpt><trkpt lat="45.69676599510236" lon="8.835739989656552"><ele>305.33333333333337</ele><time>2026-04-01T15:46:56.999Z</time></trkpt><trkpt lat="45.69674929088702" lon="8.83560439883317"><ele>303.6666666666667</ele><time>2026-04-01T15:46:57.999Z</time></trkpt><trkpt lat="45.69672771526855" lon="8.83548779911084"><ele>302.0</ele><time>2026-04-01T15:46:58.999Z</time></trkpt><trkpt lat="45.69667766504003" lon="8.835333382470457"><ele>302.0</ele><time>2026-04-01T15:47:00.999Z</time></trkpt><trkpt lat="45.69668795116407" lon="8.835206387650157"><ele>302.0</ele><time>2026-04-01T15:47:02.999Z</time></trkpt><trkpt lat="45.69669196207422" lon="8.83507075380113"><ele>302.0</ele><time>2026-04-01T15:47:04.999Z</time></trkpt><trkpt lat="45.69667430489739" lon="8.8349779340551"><ele>302.0</ele><time>2026-04-01T15:47:05.999Z</time></trkpt><trkpt lat="45.696665883879895" lon="8.834887242777553"><ele>302.0</ele><time>2026-04-01T15:47:06.999Z</time></trkpt><trkpt lat="45.69667038931805" lon="8.834729322246138"><ele>302.0</ele><time>2026-04-01T15:47:08.999Z</time></trkpt><trkpt lat="45.69673946611884" lon="8.834630294257055"><ele>302.6</ele><time>2026-04-01T15:47:10.999Z</time></trkpt><trkpt lat="45.69679325834919" lon="8.834561053712974"><ele>303.2</ele><time>2026-04-01T15:47:11.999Z</time></trkpt><trkpt lat="45.696869539491225" lon="8.834494359718898"><ele>303.8</ele><time>2026-04-01T15:47:12.999Z</time></trkpt><trkpt lat="45.6969690447074" lon="8.834416262659138"><ele>304.4</ele><time>2026-04-01T15:47:13.999Z</time></trkpt><trkpt lat="45.69707022764414" lon="8.834333634313005"><ele>305.0</ele><time>2026-04-01T15:47:14.999Z</time></trkpt><trkpt lat="45.69713089153252" lon="8.834274220414486"><ele>305.2</ele><time>2026-04-01T15:47:15.999Z</time></trkpt><trkpt lat="45.69723127540469" lon="8.834256491504865"><ele>305.4</ele><time>2026-04-01T15:47:30.999Z</time></trkpt><trkpt lat="45.697319376956514" lon="8.834213508544451"><ele>305.6</ele><time>2026-04-01T15:47:32.999Z</time></trkpt><trkpt lat="45.6973985346982" lon="8.834234437069679"><ele>305.8</ele><time>2026-04-01T15:47:33.999Z</time></trkpt><trkpt lat="45.6974988622147" lon="8.834269772967144"><ele>306.0</ele><time>2026-04-01T15:47:34.999Z</time></trkpt><trkpt lat="45.6976062022381" lon="8.834313570617155"><ele>306.0</ele><time>2026-04-01T15:47:35.998Z</time></trkpt><trkpt lat="45.697727887746176" lon="8.834318672036982"><ele>306.0</ele><time>2026-04-01T15:47:36.998Z</time></trkpt><trkpt lat="45.697821319727" lon="8.834329080701714"><ele>306.0</ele><time>2026-04-01T15:47:37.998Z</time></trkpt><trkpt lat="45.697909772625216" lon="8.83437531102977"><ele>306.0</ele><time>2026-04-01T15:47:38.998Z</time></trkpt><trkpt lat="45.698014674798536" lon="8.834490140223261"><ele>306.0</ele><time>2026-04-01T15:47:39.998Z</time></trkpt><trkpt lat="45.698154786611084" lon="8.834596565085606"><ele>307.2</ele><time>2026-04-01T15:47:40.998Z</time></trkpt><trkpt lat="45.698255391580055" lon="8.834715813033357"><ele>308.40000000000003</ele><time>2026-04-01T15:47:41.998Z</time></trkpt><trkpt lat="45.698347925605056" lon="8.834813123382562"><ele>309.6</ele><time>2026-04-01T15:47:42.998Z</time></trkpt><trkpt lat="45.698440516878414" lon="8.834880261307703"><ele>310.8</ele><time>2026-04-01T15:47:43.998Z</time></trkpt><trkpt lat="45.69852825632406" lon="8.834909100292272"><ele>312.0</ele><time>2026-04-01T15:47:44.998Z</time></trkpt><trkpt lat="45.69860703601645" lon="8.834926587031243"><ele>312.8</ele><time>2026-04-01T15:47:45.998Z</time></trkpt><trkpt lat="45.69871144262814" lon="8.834869568619608"><ele>313.6</ele><time>2026-04-01T15:47:47.998Z</time></trkpt><trkpt lat="45.69872409015742" lon="8.834719522778116"><ele>314.40000000000003</ele><time>2026-04-01T15:47:49.998Z</time></trkpt><trkpt lat="45.6986912138598" lon="8.83461485972855"><ele>315.2</ele><time>2026-04-01T15:47:50.998Z</time></trkpt><trkpt lat="45.69867400570536" lon="8.834463348913541"><ele>316.0</ele><time>2026-04-01T15:47:51.998Z</time></trkpt><trkpt lat="45.69865452948951" lon="8.834284779431162"><ele>316.3333333333333</ele><time>2026-04-01T15:47:52.998Z</time></trkpt><trkpt lat="45.69864197739134" lon="8.8341543244834"><ele>316.66666666666663</ele><time>2026-04-01T15:47:53.998Z</time></trkpt><trkpt lat="45.69864357891237" lon="8.834057206662953"><ele>317.0</ele><time>2026-04-01T15:47:54.998Z</time></trkpt><trkpt lat="45.69868267224956" lon="8.833946552849078"><ele>317.3333333333333</ele><time>2026-04-01T15:47:56.998Z</time></trkpt><trkpt lat="45.69874519863099" lon="8.83391186637179"><ele>317.6666666666667</ele><time>2026-04-01T15:47:57.998Z</time></trkpt><trkpt lat="45.698838423691306" lon="8.833897129854547"><ele>318.0</ele><time>2026-04-01T15:47:58.998Z</time></trkpt><trkpt lat="45.69891520904621" lon="8.833890521537839"><ele>318.0</ele><time>2026-04-01T15:47:59.998Z</time></trkpt><trkpt lat="45.69899975949092" lon="8.833870962465838"><ele>318.0</ele><time>2026-04-01T15:48:00.998Z</time></trkpt><trkpt lat="45.69907937283251" lon="8.833856759217593"><ele>318.0</ele><time>2026-04-01T15:48:02Z</time></trkpt><trkpt lat="45.69915347066201" lon="8.833845831462197"><ele>318.0</ele><time>2026-04-01T15:48:03Z</time></trkpt><trkpt lat="45.69922781564728" lon="8.833816901980912"><ele>318.0</ele><time>2026-04-01T15:48:04Z</time></trkpt><trkpt lat="45.69929491121334" lon="8.833789283749217"><ele>318.0</ele><time>2026-04-01T15:48:05Z</time></trkpt><trkpt lat="45.699357888980934" lon="8.833772212702623"><ele>318.57142857142856</ele><time>2026-04-01T15:48:06Z</time></trkpt><trkpt lat="45.699425546673375" lon="8.833755487083744"><ele>319.14285714285717</ele><time>2026-04-01T15:48:07Z</time></trkpt><trkpt lat="45.699495241836324" lon="8.83372225848148"><ele>319.7142857142857</ele><time>2026-04-01T15:48:08Z</time></trkpt><trkpt lat="45.69955850953208" lon="8.833710188711958"><ele>320.2857142857143</ele><time>2026-04-01T15:48:09Z</time></trkpt><trkpt lat="45.69963591392243" lon="8.833692628379978"><ele>320.8571428571429</ele><time>2026-04-01T15:48:10Z</time></trkpt><trkpt lat="45.69971090214075" lon="8.83365989850256"><ele>321.42857142857144</ele><time>2026-04-01T15:48:11Z</time></trkpt><trkpt lat="45.69978859921558" lon="8.833622118711276"><ele>322.0</ele><time>2026-04-01T15:48:12Z</time></trkpt><trkpt lat="45.69986632021157" lon="8.83358618214352"><ele>322.0</ele><time>2026-04-01T15:48:13Z</time></trkpt><trkpt lat="45.69994190753685" lon="8.83355609482875"><ele>322.0</ele><time>2026-04-01T15:48:14Z</time></trkpt><trkpt lat="45.70002104739521" lon="8.833532706607956"><ele>322.0</ele><time>2026-04-01T15:48:15Z</time></trkpt><trkpt lat="45.70010243943668" lon="8.833495147626058"><ele>322.0</ele><time>2026-04-01T15:48:16Z</time></trkpt><trkpt lat="45.70018819354919" lon="8.833462550583386"><ele>322.0</ele><time>2026-04-01T15:48:17Z</time></trkpt><trkpt lat="45.7002774053429" lon="8.833438819180218"><ele>322.0</ele><time>2026-04-01T15:48:18Z</time></trkpt><trkpt lat="45.70037508906553" lon="8.833417049955445"><ele>322.0</ele><time>2026-04-01T15:48:19Z</time></trkpt><trkpt lat="45.700473816022125" lon="8.833374518424915"><ele>322.0</ele><time>2026-04-01T15:48:20Z</time></trkpt><trkpt lat="45.70056889045505" lon="8.833346034985718"><ele>322.0</ele><time>2026-04-01T15:48:21Z</time></trkpt><trkpt lat="45.7006526157986" lon="8.833328642507714"><ele>322.0</ele><time>2026-04-01T15:48:22Z</time></trkpt><trkpt lat="45.700716327417986" lon="8.833307862677989"><ele>322.0</ele><time>2026-04-01T15:48:23Z</time></trkpt><trkpt lat="45.70078821487483" lon="8.833297423653812"><ele>322.0</ele><time>2026-04-01T15:48:25Z</time></trkpt><trkpt lat="45.7007952052323" lon="8.833403786371088"><ele>322.3333333333333</ele><time>2026-04-01T15:48:28Z</time></trkpt><trkpt lat="45.70077716760509" lon="8.833502674253047"><ele>322.66666666666663</ele><time>2026-04-01T15:48:31Z</time></trkpt><trkpt lat="45.70077749939226" lon="8.8336521106038"><ele>323.0</ele><time>2026-04-01T15:49:57.998Z</time></trkpt><trkpt lat="45.70079328914684" lon="8.833806497106815"><ele>323.3333333333333</ele><time>2026-04-01T15:49:59.998Z</time></trkpt><trkpt lat="45.70081885283133" lon="8.833908058919816"><ele>323.6666666666667</ele><time>2026-04-01T15:50:01.998Z</time></trkpt><trkpt lat="45.70081493744393" lon="8.834032275483167"><ele>324.0</ele><time>2026-04-01T15:50:03.998Z</time></trkpt><trkpt lat="45.70083042295895" lon="8.83415959611712"><ele>324.0</ele><time>2026-04-01T15:50:05.998Z</time></trkpt><trkpt lat="45.70083425340627" lon="8.834254922848906"><ele>324.0</ele><time>2026-04-01T15:50:06.998Z</time></trkpt><trkpt lat="45.70086732609241" lon="8.834394638018818"><ele>324.0</ele><time>2026-04-01T15:50:09Z</time></trkpt><trkpt lat="45.70090070880581" lon="8.834540325881314"><ele>324.0</ele><time>2026-04-01T15:50:11Z</time></trkpt><trkpt lat="45.70093521742744" lon="8.834674813072638"><ele>324.0</ele><time>2026-04-01T15:50:13Z</time></trkpt><trkpt lat="45.70097350264766" lon="8.834816705254546"><ele>323.0</ele><time>2026-04-01T15:50:15Z</time></trkpt><trkpt lat="45.70102450443834" lon="8.834931753260326"><ele>322.0</ele><time>2026-04-01T15:50:16Z</time></trkpt><trkpt lat="45.70105876541535" lon="8.835053011563904"><ele>321.0</ele><time>2026-04-01T15:50:17Z</time></trkpt><trkpt lat="45.70110149156286" lon="8.835156191258966"><ele>320.0</ele><time>2026-04-01T15:50:18Z</time></trkpt><trkpt lat="45.70115522127738" lon="8.835246809967698"><ele>319.0</ele><time>2026-04-01T15:50:19Z</time></trkpt><trkpt lat="45.70119432742906" lon="8.835335677103739"><ele>318.0</ele><time>2026-04-01T15:50:20Z</time></trkpt><trkpt lat="45.701242317730255" lon="8.835496273739192"><ele>317.0</ele><time>2026-04-01T15:50:22Z</time></trkpt><trkpt lat="45.70127524901835" lon="8.83557579986242"><ele>316.0</ele><time>2026-04-01T15:50:23Z</time></trkpt><trkpt lat="45.70141580704559" lon="8.835595971529624"><ele>315.0</ele><time>2026-04-01T15:50:24Z</time></trkpt><trkpt lat="45.70147186102553" lon="8.835664870849806"><ele>314.0</ele><time>2026-04-01T15:50:25Z</time></trkpt><trkpt lat="45.70153235699382" lon="8.83572905494164"><ele>313.0</ele><time>2026-04-01T15:50:26Z</time></trkpt><trkpt lat="45.701582652940495" lon="8.835792621049746"><ele>312.0</ele><time>2026-04-01T15:50:27Z</time></trkpt><trkpt lat="45.70163510972243" lon="8.835852078553991"><ele>312.0</ele><time>2026-04-01T15:50:28Z</time></trkpt><trkpt lat="45.7016863673148" lon="8.83591898939822"><ele>312.0</ele><time>2026-04-01T15:50:29Z</time></trkpt><trkpt lat="45.701730106383145" lon="8.83598436214789"><ele>312.0</ele><time>2026-04-01T15:50:30Z</time></trkpt><trkpt lat="45.70182320967205" lon="8.836094464823304"><ele>312.0</ele><time>2026-04-01T15:50:32Z</time></trkpt><trkpt lat="45.70191610713705" lon="8.836179244321816"><ele>312.0</ele><time>2026-04-01T15:50:34Z</time></trkpt><trkpt lat="45.701975248540585" lon="8.83623379025616"><ele>312.0</ele><time>2026-04-01T15:50:35Z</time></trkpt><trkpt lat="45.70199223534064" lon="8.836357357256961"><ele>313.6666666666667</ele><time>2026-04-01T15:50:37Z</time></trkpt><trkpt lat="45.702024244695" lon="8.836469333642441"><ele>315.3333333333333</ele><time>2026-04-01T15:50:40Z</time></trkpt><trkpt lat="45.70212231543964" lon="8.836508717905993"><ele>317.0</ele><time>2026-04-01T15:50:43Z</time></trkpt><trkpt lat="45.7022389217491" lon="8.836541004330778"><ele>318.66666666666663</ele><time>2026-04-01T15:50:45Z</time></trkpt><trkpt lat="45.702304309139876" lon="8.836581899853448"><ele>320.3333333333333</ele><time>2026-04-01T15:50:46Z</time></trkpt><trkpt lat="45.702362048649896" lon="8.836626244832587"><ele>322.0</ele><time>2026-04-01T15:50:47Z</time></trkpt><trkpt lat="45.7024775998524" lon="8.836692724107294"><ele>322.0</ele><time>2026-04-01T15:50:49Z</time></trkpt><trkpt lat="45.702552224163206" lon="8.83672833598215"><ele>322.0</ele><time>2026-04-01T15:50:49.999Z</time></trkpt><trkpt lat="45.7026340018394" lon="8.836759574349951"><ele>322.0</ele><time>2026-04-01T15:50:50.999Z</time></trkpt><trkpt lat="45.70271439942497" lon="8.836785924811768"><ele>322.0</ele><time>2026-04-01T15:50:51.999Z</time></trkpt><trkpt lat="45.70282657168831" lon="8.836802384018082"><ele>322.0</ele><time>2026-04-01T15:50:53.999Z</time></trkpt><trkpt lat="45.70294387977555" lon="8.836840007610958"><ele>322.8333333333333</ele><time>2026-04-01T15:50:55.999Z</time></trkpt><trkpt lat="45.70303525816677" lon="8.83688712256759"><ele>323.66666666666663</ele><time>2026-04-01T15:50:57.999Z</time></trkpt><trkpt lat="45.703103285319884" lon="8.836895780693967"><ele>324.5</ele><time>2026-04-01T15:51:04.999Z</time></trkpt><trkpt lat="45.703156740120235" lon="8.836947355726881"><ele>325.3333333333333</ele><time>2026-04-01T15:51:07.999Z</time></trkpt><trkpt lat="45.703218866073115" lon="8.83698843061115"><ele>326.1666666666667</ele><time>2026-04-01T15:51:09.999Z</time></trkpt><trkpt lat="45.70330592189461" lon="8.83702528968445"><ele>327.0</ele><time>2026-04-01T15:51:11.999Z</time></trkpt><trkpt lat="45.70337867401912" lon="8.837065557065179"><ele>327.0</ele><time>2026-04-01T15:51:13.999Z</time></trkpt><trkpt lat="45.7034473406867" lon="8.837101771959622"><ele>327.0</ele><time>2026-04-01T15:51:15.999Z</time></trkpt><trkpt lat="45.70354598580403" lon="8.837155598188016"><ele>327.0</ele><time>2026-04-01T15:51:17.999Z</time></trkpt><trkpt lat="45.70364573137537" lon="8.837179743217627"><ele>327.0</ele><time>2026-04-01T15:51:19.999Z</time></trkpt><trkpt lat="45.70370854184252" lon="8.837198298509232"><ele>327.0</ele><time>2026-04-01T15:51:20.999Z</time></trkpt><trkpt lat="45.70377057127693" lon="8.837228557870885"><ele>327.0</ele><time>2026-04-01T15:51:21.999Z</time></trkpt><trkpt lat="45.70384187436688" lon="8.83727074101098"><ele>327.6666666666667</ele><time>2026-04-01T15:51:22.999Z</time></trkpt><trkpt lat="45.70391490312752" lon="8.837309155621297"><ele>328.3333333333333</ele><time>2026-04-01T15:51:23.999Z</time></trkpt><trkpt lat="45.704022333889434" lon="8.83736706888382"><ele>329.0</ele><time>2026-04-01T15:51:25.999Z</time></trkpt><trkpt lat="45.70409392920375" lon="8.83740972890412"><ele>329.66666666666663</ele><time>2026-04-01T15:51:26.999Z</time></trkpt><trkpt lat="45.70415863884035" lon="8.837437674992271"><ele>330.3333333333333</ele><time>2026-04-01T15:51:27.999Z</time></trkpt><trkpt lat="45.70423191066093" lon="8.837473613447274"><ele>331.0</ele><time>2026-04-01T15:51:28.999Z</time></trkpt><trkpt lat="45.70432435054743" lon="8.837513308460311"><ele>331.5</ele><time>2026-04-01T15:51:29.999Z</time></trkpt><trkpt lat="45.704416707023334" lon="8.837556384102019"><ele>332.0</ele><time>2026-04-01T15:51:30.999Z</time></trkpt><trkpt lat="45.70450863080784" lon="8.837590099421718"><ele>332.5</ele><time>2026-04-01T15:51:31.999Z</time></trkpt><trkpt lat="45.70459473825064" lon="8.837624324039252"><ele>333.0</ele><time>2026-04-01T15:51:32.999Z</time></trkpt><trkpt lat="45.70466952080114" lon="8.837654132944659"><ele>333.5</ele><time>2026-04-01T15:51:33.999Z</time></trkpt><trkpt lat="45.70474493985222" lon="8.837698364563272"><ele>334.0</ele><time>2026-04-01T15:51:35.999Z</time></trkpt><trkpt lat="45.704799400517324" lon="8.83765148666685"><ele>334.0</ele><time>2026-04-01T15:51:40.999Z</time></trkpt><trkpt lat="45.7048295448278" lon="8.837538119408748"><ele>334.0</ele><time>2026-04-01T15:51:42.999Z</time></trkpt><trkpt lat="45.704935806589575" lon="8.837322801115707"><ele>334.0</ele><time>2026-04-01T15:51:45.999Z</time></trkpt><trkpt lat="45.70494028205445" lon="8.837190631324654"><ele>334.0</ele><time>2026-04-01T15:51:47.998Z</time></trkpt><trkpt lat="45.704945410266376" lon="8.837058511433483"><ele>334.0</ele><time>2026-04-01T15:51:49.998Z</time></trkpt><trkpt lat="45.70499630865068" lon="8.836971504487064"><ele>334.0</ele><time>2026-04-01T15:51:51.998Z</time></trkpt><trkpt lat="45.70520221246877" lon="8.83692838858005"><ele>334.0</ele><time>2026-04-01T15:51:55.998Z</time></trkpt><trkpt lat="45.70530432886004" lon="8.836908360551737"><ele>334.0</ele><time>2026-04-01T15:51:58.998Z</time></trkpt><trkpt lat="45.70543801268747" lon="8.836893417831583"><ele>334.16666666666663</ele><time>2026-04-01T15:52:04.998Z</time></trkpt><trkpt lat="45.70550455171923" lon="8.8368413481804"><ele>334.3333333333333</ele><time>2026-04-01T15:52:33Z</time></trkpt><trkpt lat="45.70562239920806" lon="8.83675002992892"><ele>334.5</ele><time>2026-04-01T15:52:35Z</time></trkpt><trkpt lat="45.70571725460082" lon="8.836682117564527"><ele>334.6666666666667</ele><time>2026-04-01T15:52:37Z</time></trkpt><trkpt lat="45.70578105590239" lon="8.836646255702728"><ele>334.83333333333337</ele><time>2026-04-01T15:52:38Z</time></trkpt><trkpt lat="45.70584530897222" lon="8.836643375407647"><ele>335.0</ele><time>2026-04-01T15:52:39Z</time></trkpt><trkpt lat="45.70595355516589" lon="8.836632120411911"><ele>334.2</ele><time>2026-04-01T15:52:41Z</time></trkpt><trkpt lat="45.70602319948008" lon="8.836543675438225"><ele>333.4</ele><time>2026-04-01T15:52:43Z</time></trkpt><trkpt lat="45.70610272653598" lon="8.8364554538011"><ele>332.6</ele><time>2026-04-01T15:52:45Z</time></trkpt><trkpt lat="45.7062007987454" lon="8.836503904220224"><ele>331.8</ele><time>2026-04-01T15:52:47Z</time></trkpt><trkpt lat="45.706304235787336" lon="8.83660728980516"><ele>331.0</ele><time>2026-04-01T15:52:49Z</time></trkpt><trkpt lat="45.706377084512724" lon="8.836664732826677"><ele>330.16666666666663</ele><time>2026-04-01T15:52:51Z</time></trkpt><trkpt lat="45.706451818103716" lon="8.836699587300236"><ele>329.3333333333333</ele><time>2026-04-01T15:52:54Z</time></trkpt><trkpt lat="45.70651679850121" lon="8.836751878545059"><ele>328.5</ele><time>2026-04-01T15:52:59.999Z</time></trkpt><trkpt lat="45.70659073523231" lon="8.83685077787493"><ele>327.6666666666667</ele><time>2026-04-01T15:53:01.999Z</time></trkpt><trkpt lat="45.706703412532555" lon="8.836911811742704"><ele>326.83333333333337</ele><time>2026-04-01T15:53:03.999Z</time></trkpt><trkpt lat="45.70676749917238" lon="8.836947041410864"><ele>326.0</ele><time>2026-04-01T15:53:04.999Z</time></trkpt><trkpt lat="45.706815195627584" lon="8.837007320102225"><ele>326.5</ele><time>2026-04-01T15:53:05.999Z</time></trkpt><trkpt lat="45.70691034823588" lon="8.837104488956161"><ele>327.0</ele><time>2026-04-01T15:53:07.999Z</time></trkpt><trkpt lat="45.70696037145001" lon="8.837212276270618"><ele>327.5</ele><time>2026-04-01T15:53:09.999Z</time></trkpt><trkpt lat="45.70703518653069" lon="8.837278380750659"><ele>328.0</ele><time>2026-04-01T15:53:12.999Z</time></trkpt><trkpt lat="45.70704489016012" lon="8.837384247119278"><ele>328.5</ele><time>2026-04-01T15:53:14.999Z</time></trkpt><trkpt lat="45.70709511829747" lon="8.837470186150405"><ele>329.0</ele><time>2026-04-01T15:53:23.999Z</time></trkpt><trkpt lat="45.70716105190639" lon="8.837519367681406"><ele>329.0</ele><time>2026-04-01T15:53:25.999Z</time></trkpt><trkpt lat="45.707242705996535" lon="8.837516115235646"><ele>329.0</ele><time>2026-04-01T15:53:27.999Z</time></trkpt><trkpt lat="45.7073245437559" lon="8.837507350676777"><ele>329.0</ele><time>2026-04-01T15:53:29.999Z</time></trkpt><trkpt lat="45.70739627611674" lon="8.837531319529194"><ele>329.0</ele><time>2026-04-01T15:53:30.999Z</time></trkpt><trkpt lat="45.70747668367481" lon="8.837614560256446"><ele>329.0</ele><time>2026-04-01T15:53:32.999Z</time></trkpt><trkpt lat="45.70752654919052" lon="8.837699880822749"><ele>329.0</ele><time>2026-04-01T15:53:34.999Z</time></trkpt><trkpt lat="45.707588971435634" lon="8.837727294755682"><ele>328.83333333333337</ele><time>2026-04-01T15:53:36.999Z</time></trkpt><trkpt lat="45.70766933038162" lon="8.837798573539706"><ele>328.6666666666667</ele><time>2026-04-01T15:53:39.999Z</time></trkpt><trkpt lat="45.70770754834703" lon="8.837881210926234"><ele>328.5</ele><time>2026-04-01T15:53:40.999Z</time></trkpt><trkpt lat="45.70774468305354" lon="8.83799335264866"><ele>328.3333333333333</ele><time>2026-04-01T15:53:41.999Z</time></trkpt><trkpt lat="45.70778129610488" lon="8.838068904606265"><ele>328.16666666666663</ele><time>2026-04-01T15:53:42.999Z</time></trkpt><trkpt lat="45.70783184475566" lon="8.838131430742145"><ele>328.0</ele><time>2026-04-01T15:53:43.999Z</time></trkpt><trkpt lat="45.707918241712" lon="8.838276220149096"><ele>328.0</ele><time>2026-04-01T15:53:45.999Z</time></trkpt><trkpt lat="45.70798484796282" lon="8.838320800989118"><ele>328.0</ele><time>2026-04-01T15:53:47.999Z</time></trkpt><trkpt lat="45.7080865903139" lon="8.838362769688533"><ele>328.0</ele><time>2026-04-01T15:53:49.999Z</time></trkpt><trkpt lat="45.70822795387438" lon="8.838410037955837"><ele>328.0</ele><time>2026-04-01T15:53:51.999Z</time></trkpt><trkpt lat="45.70830357380792" lon="8.838416891804211"><ele>328.0</ele><time>2026-04-01T15:53:52.999Z</time></trkpt><trkpt lat="45.708373209386245" lon="8.838467792928242"><ele>329.0</ele><time>2026-04-01T15:53:54.998Z</time></trkpt><trkpt lat="45.708454832220546" lon="8.838514174708077"><ele>330.0</ele><time>2026-04-01T15:53:56.998Z</time></trkpt><trkpt lat="45.708562459068304" lon="8.838563453508831"><ele>331.0</ele><time>2026-04-01T15:53:58.998Z</time></trkpt><trkpt lat="45.70869002812175" lon="8.838581670977836"><ele>332.0</ele><time>2026-04-01T15:54:00.998Z</time></trkpt><trkpt lat="45.708756872146445" lon="8.838610942393522"><ele>333.0</ele><time>2026-04-01T15:54:01.998Z</time></trkpt><trkpt lat="45.708831504409474" lon="8.838641821220651"><ele>333.0</ele><time>2026-04-01T15:54:02.998Z</time></trkpt><trkpt lat="45.70890036996381" lon="8.838666620761112"><ele>333.0</ele><time>2026-04-01T15:54:03.998Z</time></trkpt><trkpt lat="45.708976101014834" lon="8.838694671558473"><ele>333.0</ele><time>2026-04-01T15:54:05.998Z</time></trkpt><trkpt lat="45.70905202409789" lon="8.838750155049727"><ele>333.0</ele><time>2026-04-01T15:54:07.998Z</time></trkpt><trkpt lat="45.70913819300578" lon="8.838842764568115"><ele>333.0</ele><time>2026-04-01T15:54:09.998Z</time></trkpt><trkpt lat="45.70918407645772" lon="8.838910990301644"><ele>333.0</ele><time>2026-04-01T15:54:10.998Z</time></trkpt><trkpt lat="45.709245393553275" lon="8.839000226492724"><ele>333.0</ele><time>2026-04-01T15:54:12.998Z</time></trkpt><trkpt lat="45.7093228086695" lon="8.83898381071543"><ele>333.0</ele><time>2026-04-01T15:54:15.998Z</time></trkpt><trkpt lat="45.70942538949451" lon="8.83894188298597"><ele>333.0</ele><time>2026-04-01T15:54:17.998Z</time></trkpt><trkpt lat="45.70951390007488" lon="8.838902309031779"><ele>333.0</ele><time>2026-04-01T15:54:20Z</time></trkpt><trkpt lat="45.709581324616025" lon="8.838867586905241"><ele>333.0</ele><time>2026-04-01T15:54:22Z</time></trkpt><trkpt lat="45.70964809737085" lon="8.838896972721637"><ele>333.0</ele><time>2026-04-01T15:54:24Z</time></trkpt><trkpt lat="45.70972903959447" lon="8.838872058335523"><ele>332.79999999999995</ele><time>2026-04-01T15:54:26Z</time></trkpt><trkpt lat="45.709849447823316" lon="8.83880922996126"><ele>332.6</ele><time>2026-04-01T15:54:28Z</time></trkpt><trkpt lat="45.70988748169219" lon="8.838725894931212"><ele>332.4</ele><time>2026-04-01T15:54:30Z</time></trkpt><trkpt lat="45.709957207557665" lon="8.83860202972863"><ele>332.20000000000005</ele><time>2026-04-01T15:54:32Z</time></trkpt><trkpt lat="45.7100239069614" lon="8.838560575014638"><ele>332.0</ele><time>2026-04-01T15:54:35Z</time></trkpt><trkpt lat="45.71009189613496" lon="8.838601463842096"><ele>332.0</ele><time>2026-04-01T15:54:37Z</time></trkpt><trkpt lat="45.71020761690916" lon="8.83863179619248"><ele>332.0</ele><time>2026-04-01T15:54:39Z</time></trkpt><trkpt lat="45.71026839669286" lon="8.838687810823261"><ele>332.0</ele><time>2026-04-01T15:54:40Z</time></trkpt><trkpt lat="45.71035579344282" lon="8.838776118179405"><ele>332.0</ele><time>2026-04-01T15:54:42Z</time></trkpt><trkpt lat="45.71044769351522" lon="8.838772981357257"><ele>332.0</ele><time>2026-04-01T15:54:44Z</time></trkpt><trkpt lat="45.71053003570599" lon="8.838851285930776"><ele>331.33333333333337</ele><time>2026-04-01T15:54:46Z</time></trkpt><trkpt lat="45.71058900560494" lon="8.83888357619719"><ele>330.6666666666667</ele><time>2026-04-01T15:54:47Z</time></trkpt><trkpt lat="45.71070750383534" lon="8.838902568963626"><ele>330.0</ele><time>2026-04-01T15:54:49Z</time></trkpt><trkpt lat="45.71080430191717" lon="8.838974043829204"><ele>329.3333333333333</ele><time>2026-04-01T15:54:51Z</time></trkpt><trkpt lat="45.710854566640734" lon="8.83904582957542"><ele>328.66666666666663</ele><time>2026-04-01T15:54:52Z</time></trkpt><trkpt lat="45.71090330262486" lon="8.83910659448207"><ele>328.0</ele><time>2026-04-01T15:54:53Z</time></trkpt><trkpt lat="45.71096037805918" lon="8.83917234976104"><ele>328.0</ele><time>2026-04-01T15:54:54Z</time></trkpt><trkpt lat="45.711019549366384" lon="8.839224782233027"><ele>328.0</ele><time>2026-04-01T15:54:55Z</time></trkpt><trkpt lat="45.71112604789109" lon="8.839306455972329"><ele>328.0</ele><time>2026-04-01T15:54:57Z</time></trkpt><trkpt lat="45.711214184871864" lon="8.839409540286164"><ele>328.0</ele><time>2026-04-01T15:54:59Z</time></trkpt><trkpt lat="45.71130502803475" lon="8.839496321919476"><ele>328.0</ele><time>2026-04-01T15:55:01Z</time></trkpt><trkpt lat="45.71139535243242" lon="8.83958949133428"><ele>328.79999999999995</ele><time>2026-04-01T15:55:02.999Z</time></trkpt><trkpt lat="45.71153722272781" lon="8.83956368547248"><ele>329.6</ele><time>2026-04-01T15:55:04.999Z</time></trkpt><trkpt lat="45.71163089989952" lon="8.839531885785448"><ele>330.4</ele><time>2026-04-01T15:55:05.999Z</time></trkpt><trkpt lat="45.71171628804951" lon="8.839532437549595"><ele>331.20000000000005</ele><time>2026-04-01T15:55:06.999Z</time></trkpt><trkpt lat="45.71179857181345" lon="8.839537850582659"><ele>332.0</ele><time>2026-04-01T15:55:07.999Z</time></trkpt><trkpt lat="45.711915395296856" lon="8.839537718451417"><ele>333.0</ele><time>2026-04-01T15:55:08.999Z</time></trkpt><trkpt lat="45.71203387970524" lon="8.83955548731876"><ele>334.0</ele><time>2026-04-01T15:55:09.999Z</time></trkpt><trkpt lat="45.712143391160716" lon="8.83957714629932"><ele>335.0</ele><time>2026-04-01T15:55:10.999Z</time></trkpt><trkpt lat="45.712227801053906" lon="8.839587864814"><ele>336.0</ele><time>2026-04-01T15:55:11.999Z</time></trkpt><trkpt lat="45.71231814859681" lon="8.839621109812036"><ele>337.0</ele><time>2026-04-01T15:55:12.999Z</time></trkpt><trkpt lat="45.71243279952959" lon="8.839630269699848"><ele>337.0</ele><time>2026-04-01T15:55:14.999Z</time></trkpt><trkpt lat="45.71251450475135" lon="8.83956277131825"><ele>337.0</ele><time>2026-04-01T15:55:16.999Z</time></trkpt><trkpt lat="45.712569334569054" lon="8.8395012318307"><ele>337.0</ele><time>2026-04-01T15:55:17.999Z</time></trkpt><trkpt lat="45.7126370288606" lon="8.839430573534296"><ele>337.0</ele><time>2026-04-01T15:55:19.999Z</time></trkpt><trkpt lat="45.712756059399176" lon="8.839526472417596"><ele>337.0</ele><time>2026-04-01T15:55:21.999Z</time></trkpt><trkpt lat="45.712827289151974" lon="8.839594726933488"><ele>336.66666666666663</ele><time>2026-04-01T15:55:22.999Z</time></trkpt><trkpt lat="45.71291528301772" lon="8.839631292194907"><ele>336.3333333333333</ele><time>2026-04-01T15:55:23.999Z</time></trkpt><trkpt lat="45.71299678454395" lon="8.839651990403858"><ele>336.0</ele><time>2026-04-01T15:55:24.999Z</time></trkpt><trkpt lat="45.7130689013737" lon="8.839661256227693"><ele>335.6666666666667</ele><time>2026-04-01T15:55:25.999Z</time></trkpt><trkpt lat="45.713146278362395" lon="8.839679207932818"><ele>335.33333333333337</ele><time>2026-04-01T15:55:26.999Z</time></trkpt><trkpt lat="45.71323219791835" lon="8.839689508989261"><ele>335.0</ele><time>2026-04-01T15:55:27.999Z</time></trkpt><trkpt lat="45.71343572821541" lon="8.839711484639171"><ele>335.0</ele><time>2026-04-01T15:56:02.998Z</time></trkpt><trkpt lat="45.713509237368456" lon="8.839652828970399"><ele>335.0</ele><time>2026-04-01T15:56:04.998Z</time></trkpt><trkpt lat="45.71370978026937" lon="8.839666711190105"><ele>335.0</ele><time>2026-04-01T15:56:12.998Z</time></trkpt><trkpt lat="45.71378010072735" lon="8.839678454034267"><ele>335.0</ele><time>2026-04-01T15:56:13.998Z</time></trkpt><trkpt lat="45.713853570063314" lon="8.839632127663277"><ele>335.0</ele><time>2026-04-01T15:56:15.998Z</time></trkpt><trkpt lat="45.713846322270236" lon="8.839488435135273"><ele>335.0</ele><time>2026-04-01T15:56:17.998Z</time></trkpt><trkpt lat="45.71377293248492" lon="8.839343479533657"><ele>335.0</ele><time>2026-04-01T15:56:19.998Z</time></trkpt><trkpt lat="45.713668960790365" lon="8.839246661504758"><ele>335.0</ele><time>2026-04-01T15:56:21.998Z</time></trkpt><trkpt lat="45.71360561444707" lon="8.839175653934294"><ele>335.0</ele><time>2026-04-01T15:56:22.998Z</time></trkpt><trkpt lat="45.71354556416986" lon="8.83907794547065"><ele>335.0</ele><time>2026-04-01T15:56:23.998Z</time></trkpt><trkpt lat="45.71349957458648" lon="8.839009738804107"><ele>335.0</ele><time>2026-04-01T15:56:24.998Z</time></trkpt><trkpt lat="45.7134515486021" lon="8.838945648940506"><ele>335.0</ele><time>2026-04-01T15:56:26Z</time></trkpt><trkpt lat="45.71332243131371" lon="8.83889503329183"><ele>335.0</ele><time>2026-04-01T15:56:28Z</time></trkpt><trkpt lat="45.713252202684686" lon="8.838871918815952"><ele>335.0</ele><time>2026-04-01T15:56:29Z</time></trkpt><trkpt lat="45.71318840728469" lon="8.83880929948986"><ele>335.0</ele><time>2026-04-01T15:56:30Z</time></trkpt><trkpt lat="45.71319756093233" lon="8.838665156815523"><ele>335.0</ele><time>2026-04-01T15:56:32Z</time></trkpt><trkpt lat="45.71315521944854" lon="8.838540925708735"><ele>335.0</ele><time>2026-04-01T15:56:34Z</time></trkpt><trkpt lat="45.71308038647915" lon="8.838447728330541"><ele>335.0</ele><time>2026-04-01T15:56:36Z</time></trkpt><trkpt lat="45.71301381018295" lon="8.838488136026626"><ele>335.0</ele><time>2026-04-01T15:56:38Z</time></trkpt><trkpt lat="45.712943554393654" lon="8.838567775674663"><ele>335.0</ele><time>2026-04-01T15:56:40Z</time></trkpt><trkpt lat="45.712876622757044" lon="8.8385664522219"><ele>335.0</ele><time>2026-04-01T15:56:41Z</time></trkpt><trkpt lat="45.712767815883495" lon="8.838577649098534"><ele>334.83333333333337</ele><time>2026-04-01T15:56:43Z</time></trkpt><trkpt lat="45.712679607731644" lon="8.838607274198418"><ele>334.6666666666667</ele><time>2026-04-01T15:56:45Z</time></trkpt><trkpt lat="45.71260743650236" lon="8.838669767011886"><ele>334.5</ele><time>2026-04-01T15:56:47Z</time></trkpt><trkpt lat="45.712542636903585" lon="8.838696803471809"><ele>334.3333333333333</ele><time>2026-04-01T15:56:49Z</time></trkpt><trkpt lat="45.712474911322026" lon="8.83876561524369"><ele>334.16666666666663</ele><time>2026-04-01T15:56:51Z</time></trkpt><trkpt lat="45.712394103364275" lon="8.838783346632557"><ele>334.0</ele><time>2026-04-01T15:56:53Z</time></trkpt><trkpt lat="45.71230556294713" lon="8.838770198700722"><ele>334.0</ele><time>2026-04-01T15:56:55Z</time></trkpt><trkpt lat="45.71218647316921" lon="8.838803981633887"><ele>334.0</ele><time>2026-04-01T15:56:57Z</time></trkpt><trkpt lat="45.712116635239994" lon="8.838786355921632"><ele>334.0</ele><time>2026-04-01T15:56:58Z</time></trkpt><trkpt lat="45.71202836432053" lon="8.838747919765623"><ele>334.0</ele><time>2026-04-01T15:57:00Z</time></trkpt><trkpt lat="45.711939465173465" lon="8.838699235032381"><ele>334.0</ele><time>2026-04-01T15:57:02Z</time></trkpt><trkpt lat="45.71184959639628" lon="8.838591093382911"><ele>334.4</ele><time>2026-04-01T15:57:04Z</time></trkpt><trkpt lat="45.711750912076354" lon="8.8384963305407"><ele>334.79999999999995</ele><time>2026-04-01T15:57:06Z</time></trkpt><trkpt lat="45.711699349617724" lon="8.838438450402133"><ele>335.20000000000005</ele><time>2026-04-01T15:57:07Z</time></trkpt><trkpt lat="45.71164766988424" lon="8.838378047128268"><ele>335.6</ele><time>2026-04-01T15:57:07.999Z</time></trkpt><trkpt lat="45.71152223977806" lon="8.838313876332476"><ele>336.0</ele><time>2026-04-01T15:57:09.999Z</time></trkpt><trkpt lat="45.711424414220396" lon="8.838299952945416"><ele>336.0</ele><time>2026-04-01T15:57:10.999Z</time></trkpt><trkpt lat="45.71136466130221" lon="8.838259890758154"><ele>336.0</ele><time>2026-04-01T15:57:11.999Z</time></trkpt><trkpt lat="45.71130163037492" lon="8.838137020918463"><ele>336.0</ele><time>2026-04-01T15:57:13.999Z</time></trkpt><trkpt lat="45.7112435079766" lon="8.838090317097782"><ele>336.0</ele><time>2026-04-01T15:57:14.999Z</time></trkpt><trkpt lat="45.71118302615314" lon="8.83804577479264"><ele>336.0</ele><time>2026-04-01T15:57:15.999Z</time></trkpt><trkpt lat="45.71105951976967" lon="8.837994519255371"><ele>336.0</ele><time>2026-04-01T15:57:17.999Z</time></trkpt><trkpt lat="45.71099347273256" lon="8.837967781838431"><ele>334.8</ele><time>2026-04-01T15:57:18.999Z</time></trkpt><trkpt lat="45.71089851346884" lon="8.837921050310854"><ele>333.6</ele><time>2026-04-01T15:57:19.999Z</time></trkpt><trkpt lat="45.71084181832947" lon="8.837850509099704"><ele>332.4</ele><time>2026-04-01T15:57:20.999Z</time></trkpt><trkpt lat="45.710736478349645" lon="8.837769448718674"><ele>331.2</ele><time>2026-04-01T15:57:22.999Z</time></trkpt><trkpt lat="45.71062613228083" lon="8.837739442892074"><ele>330.0</ele><time>2026-04-01T15:57:24.999Z</time></trkpt><trkpt lat="45.71054753601048" lon="8.837731980021857"><ele>330.0</ele><time>2026-04-01T15:57:25.999Z</time></trkpt><trkpt lat="45.710483383953786" lon="8.837696558785174"><ele>330.0</ele><time>2026-04-01T15:57:26.999Z</time></trkpt><trkpt lat="45.71038939675613" lon="8.83763821463637"><ele>330.0</ele><time>2026-04-01T15:57:28.999Z</time></trkpt><trkpt lat="45.7103233846144" lon="8.837540005986952"><ele>330.0</ele><time>2026-04-01T15:57:30.999Z</time></trkpt><trkpt lat="45.71027694795567" lon="8.837435694342592"><ele>330.0</ele><time>2026-04-01T15:57:33.999Z</time></trkpt><trkpt lat="45.71023126589559" lon="8.837268122220827"><ele>330.0</ele><time>2026-04-01T15:57:36.999Z</time></trkpt><trkpt lat="45.71022832429372" lon="8.837175103206796"><ele>330.0</ele><time>2026-04-01T15:57:38.999Z</time></trkpt><trkpt lat="45.71019587135988" lon="8.837075240870513"><ele>330.0</ele><time>2026-04-01T15:57:39.999Z</time></trkpt><trkpt lat="45.71015521071104" lon="8.836966566117912"><ele>330.0</ele><time>2026-04-01T15:57:40.999Z</time></trkpt><trkpt lat="45.71013268805238" lon="8.83685028343328"><ele>330.0</ele><time>2026-04-01T15:57:41.999Z</time></trkpt><trkpt lat="45.71013426567616" lon="8.836752170208337"><ele>330.0</ele><time>2026-04-01T15:57:42.999Z</time></trkpt><trkpt lat="45.710129360325084" lon="8.83663665137279"><ele>331.6</ele><time>2026-04-01T15:57:43.999Z</time></trkpt><trkpt lat="45.71013637004604" lon="8.836465918743805"><ele>333.2</ele><time>2026-04-01T15:57:45.999Z</time></trkpt><trkpt lat="45.71015434059977" lon="8.8363193102391"><ele>334.79999999999995</ele><time>2026-04-01T15:57:46.999Z</time></trkpt><trkpt lat="45.710171208226996" lon="8.83619335389382"><ele>336.4</ele><time>2026-04-01T15:57:47.999Z</time></trkpt><trkpt lat="45.710206660355176" lon="8.836103659023019"><ele>338.0</ele><time>2026-04-01T15:57:48.999Z</time></trkpt><trkpt lat="45.710223197622895" lon="8.835923050618227"><ele>338.5</ele><time>2026-04-01T15:57:50.999Z</time></trkpt><trkpt lat="45.71020372616986" lon="8.835754628927972"><ele>339.0</ele><time>2026-04-01T15:57:52.999Z</time></trkpt><trkpt lat="45.71018101849515" lon="8.835650872550207"><ele>339.5</ele><time>2026-04-01T15:57:53.999Z</time></trkpt><trkpt lat="45.710139425665744" lon="8.83556006449758"><ele>340.0</ele><time>2026-04-01T15:57:54.999Z</time></trkpt><trkpt lat="45.71008631509308" lon="8.835500459372485"><ele>340.5</ele><time>2026-04-01T15:57:58.999Z</time></trkpt><trkpt lat="45.70999420437759" lon="8.835495477753504"><ele>341.0</ele><time>2026-04-01T15:58:00.999Z</time></trkpt><trkpt lat="45.709917863964485" lon="8.83552230307488"><ele>341.0</ele><time>2026-04-01T15:58:03.999Z</time></trkpt><trkpt lat="45.709865012067866" lon="8.835589093533017"><ele>341.0</ele><time>2026-04-01T15:58:05.998Z</time></trkpt><trkpt lat="45.70979754393378" lon="8.83565629885033"><ele>341.0</ele><time>2026-04-01T15:58:07.998Z</time></trkpt><trkpt lat="45.70971882818358" lon="8.835722842236684"><ele>341.0</ele><time>2026-04-01T15:58:09.998Z</time></trkpt><trkpt lat="45.70962244574646" lon="8.835788051476502"><ele>341.0</ele><time>2026-04-01T15:58:11.998Z</time></trkpt><trkpt lat="45.70953163253144" lon="8.835853697650306"><ele>341.0</ele><time>2026-04-01T15:58:13.998Z</time></trkpt><trkpt lat="45.70947934507779" lon="8.835913739375012"><ele>341.0</ele><time>2026-04-01T15:58:14.998Z</time></trkpt><trkpt lat="45.70936225695634" lon="8.835953687529688"><ele>341.0</ele><time>2026-04-01T15:58:16.998Z</time></trkpt><trkpt lat="45.709294812731954" lon="8.835981826094086"><ele>341.0</ele><time>2026-04-01T15:58:17.998Z</time></trkpt><trkpt lat="45.70922811212808" lon="8.835994721742656"><ele>341.0</ele><time>2026-04-01T15:58:18.998Z</time></trkpt><trkpt lat="45.70912167252763" lon="8.836009171897711"><ele>341.0</ele><time>2026-04-01T15:58:20.998Z</time></trkpt><trkpt lat="45.70905382266271" lon="8.835968580943232"><ele>341.4</ele><time>2026-04-01T15:58:21.998Z</time></trkpt><trkpt lat="45.70898333884662" lon="8.835902958652781"><ele>341.8</ele><time>2026-04-01T15:58:22.998Z</time></trkpt><trkpt lat="45.70890488859981" lon="8.835841294985062"><ele>342.2</ele><time>2026-04-01T15:58:23.998Z</time></trkpt><trkpt lat="45.708843807389734" lon="8.835798972342113"><ele>342.59999999999997</ele><time>2026-04-01T15:58:24.998Z</time></trkpt><trkpt lat="45.70873570060889" lon="8.83572480186538"><ele>343.0</ele><time>2026-04-01T15:58:26.998Z</time></trkpt><trkpt lat="45.708609084100615" lon="8.835710555548081"><ele>341.4</ele><time>2026-04-01T15:58:28.998Z</time></trkpt><trkpt lat="45.708507477249235" lon="8.835655923671444"><ele>339.79999999999995</ele><time>2026-04-01T15:58:30.998Z</time></trkpt><trkpt lat="45.70840230867156" lon="8.835588705298674"><ele>338.2</ele><time>2026-04-01T15:58:33Z</time></trkpt><trkpt lat="45.708328275965776" lon="8.83557399971368"><ele>336.6</ele><time>2026-04-01T15:58:34Z</time></trkpt><trkpt lat="45.708255364497134" lon="8.835585957162788"><ele>335.0</ele><time>2026-04-01T15:58:35Z</time></trkpt><trkpt lat="45.70816153964338" lon="8.835554545723404"><ele>335.0</ele><time>2026-04-01T15:58:36Z</time></trkpt><trkpt lat="45.7080826913068" lon="8.83550818714717"><ele>335.0</ele><time>2026-04-01T15:58:37Z</time></trkpt><trkpt lat="45.7080204368488" lon="8.835489215984603"><ele>335.0</ele><time>2026-04-01T15:58:38Z</time></trkpt><trkpt lat="45.707936315700785" lon="8.835416289114004"><ele>335.0</ele><time>2026-04-01T15:58:40Z</time></trkpt><trkpt lat="45.70783193230724" lon="8.835405645652498"><ele>335.0</ele><time>2026-04-01T15:58:42Z</time></trkpt><trkpt lat="45.707758103864634" lon="8.835360052130062"><ele>335.0</ele><time>2026-04-01T15:58:44Z</time></trkpt><trkpt lat="45.70769437920635" lon="8.8354249905956"><ele>335.0</ele><time>2026-04-01T15:58:47Z</time></trkpt><trkpt lat="45.707707621574066" lon="8.835548865401798"><ele>335.0</ele><time>2026-04-01T15:58:49Z</time></trkpt><trkpt lat="45.707751705597666" lon="8.835674230954455"><ele>335.0</ele><time>2026-04-01T15:58:51Z</time></trkpt><trkpt lat="45.70780126632107" lon="8.835782948121107"><ele>335.0</ele><time>2026-04-01T15:58:53Z</time></trkpt><trkpt lat="45.70784007837432" lon="8.83589261116869"><ele>335.0</ele><time>2026-04-01T15:58:55Z</time></trkpt><trkpt lat="45.70776516164508" lon="8.83595522962158"><ele>335.0</ele><time>2026-04-01T15:58:58Z</time></trkpt><trkpt lat="45.70770176265667" lon="8.835902358509536"><ele>333.33333333333337</ele><time>2026-04-01T15:59:00Z</time></trkpt><trkpt lat="45.70764445805794" lon="8.835850718793939"><ele>331.6666666666667</ele><time>2026-04-01T15:59:01Z</time></trkpt><trkpt lat="45.70758463168026" lon="8.835797026468976"><ele>330.0</ele><time>2026-04-01T15:59:02Z</time></trkpt><trkpt lat="45.70749663436934" lon="8.835792957765848"><ele>328.3333333333333</ele><time>2026-04-01T15:59:04Z</time></trkpt><trkpt lat="45.70740380815348" lon="8.8358920442024"><ele>326.66666666666663</ele><time>2026-04-01T15:59:06Z</time></trkpt><trkpt lat="45.70737276730113" lon="8.835978629205504"><ele>325.0</ele><time>2026-04-01T15:59:07Z</time></trkpt><trkpt lat="45.707351080876336" lon="8.836073783416788"><ele>324.2</ele><time>2026-04-01T15:59:08Z</time></trkpt><trkpt lat="45.707285286480676" lon="8.8362194534317"><ele>323.4</ele><time>2026-04-01T15:59:10Z</time></trkpt><trkpt lat="45.70727063280993" lon="8.836417026581966"><ele>322.6</ele><time>2026-04-01T15:59:12Z</time></trkpt><trkpt lat="45.70726471170646" lon="8.836528538364925"><ele>321.8</ele><time>2026-04-01T15:59:13Z</time></trkpt><trkpt lat="45.707240888359706" lon="8.836649186861568"><ele>321.0</ele><time>2026-04-01T15:59:13.999Z</time></trkpt><trkpt lat="45.70722256242411" lon="8.8367630876633"><ele>322.3333333333333</ele><time>2026-04-01T15:59:14.999Z</time></trkpt><trkpt lat="45.70722241485696" lon="8.836859425201482"><ele>323.6666666666667</ele><time>2026-04-01T15:59:15.999Z</time></trkpt><trkpt lat="45.707238025653716" lon="8.836953252868616"><ele>325.0</ele><time>2026-04-01T15:59:16.999Z</time></trkpt><trkpt lat="45.707195319851664" lon="8.837080823694281"><ele>326.33333333333337</ele><time>2026-04-01T15:59:19.999Z</time></trkpt><trkpt lat="45.707188929509506" lon="8.837207360682163"><ele>327.6666666666667</ele><time>2026-04-01T15:59:21.999Z</time></trkpt><trkpt lat="45.70714381130924" lon="8.837307742438318"><ele>329.0</ele><time>2026-04-01T15:59:23.999Z</time></trkpt><trkpt lat="45.70710306082333" lon="8.837421690066103"><ele>329.0</ele><time>2026-04-01T15:59:25.999Z</time></trkpt><trkpt lat="45.707060988024324" lon="8.837500173477858"><ele>329.0</ele><time>2026-04-01T15:59:27.999Z</time></trkpt><trkpt lat="45.707030066048915" lon="8.837615234057353"><ele>329.0</ele><time>2026-04-01T15:59:29.999Z</time></trkpt><trkpt lat="45.70700875979277" lon="8.837707641166167"><ele>329.0</ele><time>2026-04-01T15:59:30.999Z</time></trkpt><trkpt lat="45.70695968508959" lon="8.837800463143559"><ele>329.0</ele><time>2026-04-01T15:59:31.999Z</time></trkpt><trkpt lat="45.706892627396385" lon="8.837905812268282"><ele>329.0</ele><time>2026-04-01T15:59:32.999Z</time></trkpt><trkpt lat="45.70684990629813" lon="8.838024896210129"><ele>330.6666666666667</ele><time>2026-04-01T15:59:33.999Z</time></trkpt><trkpt lat="45.70681244128186" lon="8.83812581149168"><ele>332.33333333333337</ele><time>2026-04-01T15:59:35.999Z</time></trkpt><trkpt lat="45.70677658195804" lon="8.838209041716471"><ele>334.0</ele><time>2026-04-01T15:59:37.999Z</time></trkpt><trkpt lat="45.70670808670258" lon="8.838258477384702"><ele>335.6666666666667</ele><time>2026-04-01T16:00:08.999Z</time></trkpt><trkpt lat="45.70660269305434" lon="8.838226146639604"><ele>337.3333333333333</ele><time>2026-04-01T16:00:10.998Z</time></trkpt><trkpt lat="45.70653631690602" lon="8.838214422606343"><ele>339.0</ele><time>2026-04-01T16:00:11.998Z</time></trkpt><trkpt lat="45.7064659920018" lon="8.838203397579246"><ele>339.0</ele><time>2026-04-01T16:00:12.998Z</time></trkpt><trkpt lat="45.70639231744212" lon="8.838192797986256"><ele>339.0</ele><time>2026-04-01T16:00:13.998Z</time></trkpt><trkpt lat="45.706312916500934" lon="8.838174637326924"><ele>339.0</ele><time>2026-04-01T16:00:14.998Z</time></trkpt><trkpt lat="45.70624557959603" lon="8.838156833098612"><ele>339.0</ele><time>2026-04-01T16:00:15.998Z</time></trkpt><trkpt lat="45.706176584506565" lon="8.838140844167135"><ele>339.0</ele><time>2026-04-01T16:00:16.998Z</time></trkpt><trkpt lat="45.70611386220227" lon="8.838131866553088"><ele>339.0</ele><time>2026-04-01T16:00:17.998Z</time></trkpt><trkpt lat="45.706041417539254" lon="8.838120229721172"><ele>339.0</ele><time>2026-04-01T16:00:18.998Z</time></trkpt><trkpt lat="45.705956093203596" lon="8.838103086741006"><ele>338.3333333333333</ele><time>2026-04-01T16:00:19.998Z</time></trkpt><trkpt lat="45.70586433395001" lon="8.83808703972826"><ele>337.6666666666667</ele><time>2026-04-01T16:00:20.998Z</time></trkpt><trkpt lat="45.70578648040221" lon="8.838072023079627"><ele>337.0</ele><time>2026-04-01T16:00:21.998Z</time></trkpt><trkpt lat="45.70567366696545" lon="8.838056018952233"><ele>336.33333333333337</ele><time>2026-04-01T16:00:23.998Z</time></trkpt><trkpt lat="45.70560752697194" lon="8.838097647886201"><ele>335.6666666666667</ele><time>2026-04-01T16:00:25.998Z</time></trkpt><trkpt lat="45.70558475580185" lon="8.838212210974467"><ele>335.0</ele><time>2026-04-01T16:00:28.998Z</time></trkpt><trkpt lat="45.70558148566717" lon="8.838385880234867"><ele>335.0</ele><time>2026-04-01T16:00:30.998Z</time></trkpt><trkpt lat="45.705560528458186" lon="8.838483573693345"><ele>335.0</ele><time>2026-04-01T16:00:31.998Z</time></trkpt><trkpt lat="45.70553205510176" lon="8.838598834158347"><ele>335.0</ele><time>2026-04-01T16:00:32.998Z</time></trkpt><trkpt lat="45.70551481024209" lon="8.838716920422192"><ele>335.0</ele><time>2026-04-01T16:00:33.998Z</time></trkpt><trkpt lat="45.705496254957836" lon="8.838840481521567"><ele>335.0</ele><time>2026-04-01T16:00:34.998Z</time></trkpt><trkpt lat="45.7054875566672" lon="8.838970660348277"><ele>335.0</ele><time>2026-04-01T16:00:35.998Z</time></trkpt><trkpt lat="45.70549572107291" lon="8.839097565920136"><ele>335.0</ele><time>2026-04-01T16:00:36.998Z</time></trkpt><trkpt lat="45.70549899441686" lon="8.839209437081083"><ele>335.0</ele><time>2026-04-01T16:00:38Z</time></trkpt><trkpt lat="45.70550076476537" lon="8.83931298325729"><ele>335.0</ele><time>2026-04-01T16:00:39Z</time></trkpt><trkpt lat="45.705502670040545" lon="8.839413590593605"><ele>335.0</ele><time>2026-04-01T16:00:40Z</time></trkpt><trkpt lat="45.70551042987242" lon="8.839520777088866"><ele>335.0</ele><time>2026-04-01T16:00:41Z</time></trkpt><trkpt lat="45.70551739934053" lon="8.839626775776708"><ele>335.0</ele><time>2026-04-01T16:00:42Z</time></trkpt><trkpt lat="45.705503254986645" lon="8.839750799536125"><ele>334.8</ele><time>2026-04-01T16:00:44Z</time></trkpt><trkpt lat="45.70545720647729" lon="8.839859470401851"><ele>334.6</ele><time>2026-04-01T16:00:47Z</time></trkpt><trkpt lat="45.70533285041085" lon="8.83987680314156"><ele>334.4</ele><time>2026-04-01T16:00:49Z</time></trkpt><trkpt lat="45.705254016413434" lon="8.839900816380132"><ele>334.2</ele><time>2026-04-01T16:00:50Z</time></trkpt><trkpt lat="45.70517013482078" lon="8.839926436874963"><ele>334.0</ele><time>2026-04-01T16:00:51Z</time></trkpt><trkpt lat="45.70509048499304" lon="8.839944794445076"><ele>334.0</ele><time>2026-04-01T16:00:52Z</time></trkpt><trkpt lat="45.704974108165096" lon="8.840005697275172"><ele>334.0</ele><time>2026-04-01T16:00:54Z</time></trkpt><trkpt lat="45.70491068968497" lon="8.840034671533234"><ele>334.0</ele><time>2026-04-01T16:00:55Z</time></trkpt><trkpt lat="45.704781044839855" lon="8.840072319840338"><ele>334.0</ele><time>2026-04-01T16:00:57Z</time></trkpt><trkpt lat="45.70470821795911" lon="8.840081020707844"><ele>334.0</ele><time>2026-04-01T16:00:58Z</time></trkpt><trkpt lat="45.70463206030241" lon="8.84009746138147"><ele>334.0</ele><time>2026-04-01T16:00:59Z</time></trkpt><trkpt lat="45.70453802641376" lon="8.840115036069333"><ele>334.0</ele><time>2026-04-01T16:01:00Z</time></trkpt><trkpt lat="45.70444576478585" lon="8.840129731090014"><ele>334.0</ele><time>2026-04-01T16:01:01Z</time></trkpt><trkpt lat="45.704385875283094" lon="8.840159504082827"><ele>334.0</ele><time>2026-04-01T16:01:02Z</time></trkpt><trkpt lat="45.704311558098" lon="8.84026479673819"><ele>334.0</ele><time>2026-04-01T16:01:04Z</time></trkpt><trkpt lat="45.704312005759185" lon="8.840355392817106"><ele>334.0</ele><time>2026-04-01T16:01:05Z</time></trkpt><trkpt lat="45.704336703135766" lon="8.84048078261376"><ele>333.16666666666663</ele><time>2026-04-01T16:01:06Z</time></trkpt><trkpt lat="45.70436842234066" lon="8.840616194101067"><ele>332.3333333333333</ele><time>2026-04-01T16:01:07Z</time></trkpt><trkpt lat="45.70439294999616" lon="8.84073928924761"><ele>331.5</ele><time>2026-04-01T16:01:08Z</time></trkpt><trkpt lat="45.704405022294914" lon="8.840838466362646"><ele>330.6666666666667</ele><time>2026-04-01T16:01:09Z</time></trkpt><trkpt lat="45.70441883769646" lon="8.840930279177968"><ele>329.83333333333337</ele><time>2026-04-01T16:01:10Z</time></trkpt><trkpt lat="45.70443801618761" lon="8.841018148787525"><ele>329.0</ele><time>2026-04-01T16:01:11Z</time></trkpt><trkpt lat="45.70445668472883" lon="8.841112520844154"><ele>328.6</ele><time>2026-04-01T16:01:12Z</time></trkpt><trkpt lat="45.70447604365807" lon="8.841199297799774"><ele>328.2</ele><time>2026-04-01T16:01:13Z</time></trkpt><trkpt lat="45.704510159051246" lon="8.84135517842068"><ele>327.8</ele><time>2026-04-01T16:01:15Z</time></trkpt><trkpt lat="45.70453634692699" lon="8.841521857199663"><ele>327.40000000000003</ele><time>2026-04-01T16:01:17Z</time></trkpt><trkpt lat="45.70455691185438" lon="8.841607648632245"><ele>327.0</ele><time>2026-04-01T16:01:18Z</time></trkpt><trkpt lat="45.70460361652601" lon="8.841717607379586"><ele>327.8</ele><time>2026-04-01T16:01:19.999Z</time></trkpt><trkpt lat="45.704623090305134" lon="8.841881044492931"><ele>328.6</ele><time>2026-04-01T16:01:21.999Z</time></trkpt><trkpt lat="45.7046308977866" lon="8.841988142163245"><ele>329.40000000000003</ele><time>2026-04-01T16:01:22.999Z</time></trkpt><trkpt lat="45.704645796180806" lon="8.84210847473444"><ele>330.20000000000005</ele><time>2026-04-01T16:01:23.999Z</time></trkpt><trkpt lat="45.704657617410874" lon="8.84223243670829"><ele>331.0</ele><time>2026-04-01T16:01:24.999Z</time></trkpt><trkpt lat="45.70466720496904" lon="8.842363868159039"><ele>331.0</ele><time>2026-04-01T16:01:25.999Z</time></trkpt><trkpt lat="45.70467869504617" lon="8.842470606341205"><ele>331.0</ele><time>2026-04-01T16:01:26.999Z</time></trkpt><trkpt lat="45.70471291140154" lon="8.842642291163312"><ele>331.0</ele><time>2026-04-01T16:01:28.999Z</time></trkpt><trkpt lat="45.70479482799048" lon="8.84275542021355"><ele>331.0</ele><time>2026-04-01T16:01:30.999Z</time></trkpt><trkpt lat="45.70487672613741" lon="8.842773789020391"><ele>331.0</ele><time>2026-04-01T16:01:31.999Z</time></trkpt><trkpt lat="45.70495828053954" lon="8.842767614759419"><ele>331.8333333333333</ele><time>2026-04-01T16:01:32.999Z</time></trkpt><trkpt lat="45.70504762431025" lon="8.842751135204537"><ele>332.66666666666663</ele><time>2026-04-01T16:01:33.999Z</time></trkpt><trkpt lat="45.70513307337344" lon="8.842735307127848"><ele>333.5</ele><time>2026-04-01T16:01:34.999Z</time></trkpt><trkpt lat="45.705212137383505" lon="8.842704532929424"><ele>334.3333333333333</ele><time>2026-04-01T16:01:35.999Z</time></trkpt><trkpt lat="45.70529640252849" lon="8.842672978570794"><ele>335.1666666666667</ele><time>2026-04-01T16:01:36.999Z</time></trkpt><trkpt lat="45.70538500732673" lon="8.842660690599478"><ele>336.0</ele><time>2026-04-01T16:01:37.999Z</time></trkpt><trkpt lat="45.70547306477884" lon="8.842658714141765"><ele>336.6</ele><time>2026-04-01T16:01:38.999Z</time></trkpt><trkpt lat="45.705555657675575" lon="8.84266719597477"><ele>337.20000000000005</ele><time>2026-04-01T16:01:39.999Z</time></trkpt><trkpt lat="45.70564933424112" lon="8.842690701997006"><ele>337.79999999999995</ele><time>2026-04-01T16:01:40.999Z</time></trkpt><trkpt lat="45.70576275057411" lon="8.84274793637854"><ele>338.4</ele><time>2026-04-01T16:01:41.999Z</time></trkpt><trkpt lat="45.70587360186379" lon="8.842819817683866"><ele>339.0</ele><time>2026-04-01T16:01:42.999Z</time></trkpt><trkpt lat="45.705957134021894" lon="8.842864090079"><ele>339.0</ele><time>2026-04-01T16:01:43.999Z</time></trkpt><trkpt lat="45.706034192597585" lon="8.842898217262208"><ele>339.0</ele><time>2026-04-01T16:01:44.999Z</time></trkpt><trkpt lat="45.706121829608655" lon="8.842916061204068"><ele>339.0</ele><time>2026-04-01T16:01:45.999Z</time></trkpt><trkpt lat="45.70620408698409" lon="8.842928095323131"><ele>339.0</ele><time>2026-04-01T16:01:46.999Z</time></trkpt><trkpt lat="45.706275824914535" lon="8.842929286232765"><ele>339.0</ele><time>2026-04-01T16:01:47.999Z</time></trkpt><trkpt lat="45.706388080844604" lon="8.842928584725719"><ele>339.0</ele><time>2026-04-01T16:01:49.999Z</time></trkpt><trkpt lat="45.70649374349441" lon="8.842925128524412"><ele>339.0</ele><time>2026-04-01T16:01:51.999Z</time></trkpt><trkpt lat="45.706564875554974" lon="8.842927448314006"><ele>339.0</ele><time>2026-04-01T16:01:52.999Z</time></trkpt><trkpt lat="45.70664055963066" lon="8.842921236243521"><ele>339.0</ele><time>2026-04-01T16:01:53.999Z</time></trkpt><trkpt lat="45.70671042393378" lon="8.842912301022912"><ele>339.0</ele><time>2026-04-01T16:01:54.999Z</time></trkpt><trkpt lat="45.706774594827166" lon="8.842885904290789"><ele>339.0</ele><time>2026-04-01T16:02:47Z</time></trkpt><trkpt lat="45.706893677832" lon="8.842898611980539"><ele>339.0</ele><time>2026-04-01T16:02:49Z</time></trkpt><trkpt lat="45.70699759316887" lon="8.842907309263296"><ele>338.2</ele><time>2026-04-01T16:02:51Z</time></trkpt><trkpt lat="45.707120539597184" lon="8.84289399094034"><ele>337.4</ele><time>2026-04-01T16:02:53Z</time></trkpt><trkpt lat="45.707193001296844" lon="8.842898221914254"><ele>336.6</ele><time>2026-04-01T16:02:55Z</time></trkpt><trkpt lat="45.70720280198113" lon="8.843003342568474"><ele>335.8</ele><time>2026-04-01T16:02:57Z</time></trkpt><trkpt lat="45.70712742215237" lon="8.843126875556004"><ele>335.0</ele><time>2026-04-01T16:02:59Z</time></trkpt><trkpt lat="45.70705401227419" lon="8.84315838388898"><ele>335.0</ele><time>2026-04-01T16:03:00Z</time></trkpt><trkpt lat="45.70697283607028" lon="8.84319400043651"><ele>335.0</ele><time>2026-04-01T16:03:01Z</time></trkpt><trkpt lat="45.70690275773277" lon="8.843229836470462"><ele>335.0</ele><time>2026-04-01T16:03:02Z</time></trkpt><trkpt lat="45.706779072408686" lon="8.84331022507458"><ele>335.0</ele><time>2026-04-01T16:03:04Z</time></trkpt><trkpt lat="45.706710680305065" lon="8.84335751324215"><ele>335.0</ele><time>2026-04-01T16:03:05Z</time></trkpt><trkpt lat="45.70663190199639" lon="8.843403948908362"><ele>334.5</ele><time>2026-04-01T16:03:06Z</time></trkpt><trkpt lat="45.70656348037433" lon="8.843437503309412"><ele>334.0</ele><time>2026-04-01T16:03:07Z</time></trkpt><trkpt lat="45.70650421425663" lon="8.843475905469148"><ele>333.5</ele><time>2026-04-01T16:03:08Z</time></trkpt><trkpt lat="45.706433515351826" lon="8.843521609355507"><ele>333.0</ele><time>2026-04-01T16:03:09Z</time></trkpt><trkpt lat="45.70637050481518" lon="8.843549147200303"><ele>332.5</ele><time>2026-04-01T16:03:10Z</time></trkpt><trkpt lat="45.70631026159791" lon="8.843594014065584"><ele>332.0</ele><time>2026-04-01T16:03:11Z</time></trkpt><trkpt lat="45.70619361880222" lon="8.843669352727606"><ele>332.0</ele><time>2026-04-01T16:03:13Z</time></trkpt><trkpt lat="45.70613015685083" lon="8.84371224416406"><ele>332.0</ele><time>2026-04-01T16:03:14Z</time></trkpt><trkpt lat="45.706063170430035" lon="8.843764719444062"><ele>332.0</ele><time>2026-04-01T16:03:15Z</time></trkpt><trkpt lat="45.705991788964944" lon="8.843808702361475"><ele>332.0</ele><time>2026-04-01T16:03:16Z</time></trkpt><trkpt lat="45.70591600455858" lon="8.843855062807908"><ele>332.0</ele><time>2026-04-01T16:03:17Z</time></trkpt><trkpt lat="45.70583868627836" lon="8.843899099993893"><ele>332.0</ele><time>2026-04-01T16:03:18Z</time></trkpt><trkpt lat="45.705754166541254" lon="8.843946105468536"><ele>332.1666666666667</ele><time>2026-04-01T16:03:18.999Z</time></trkpt><trkpt lat="45.705676914182305" lon="8.843993311142825"><ele>332.33333333333337</ele><time>2026-04-01T16:03:19.999Z</time></trkpt><trkpt lat="45.705619746491415" lon="8.844040709390116"><ele>332.5</ele><time>2026-04-01T16:03:20.999Z</time></trkpt><trkpt lat="45.705555436503275" lon="8.844064086716754"><ele>332.6666666666667</ele><time>2026-04-01T16:03:21.999Z</time></trkpt><trkpt lat="45.70548863429758" lon="8.844122865853416"><ele>332.8333333333333</ele><time>2026-04-01T16:03:22.999Z</time></trkpt><trkpt lat="45.70542036545039" lon="8.844165529922313"><ele>333.0</ele><time>2026-04-01T16:03:23.999Z</time></trkpt><trkpt lat="45.70531101359237" lon="8.844235049382691"><ele>333.0</ele><time>2026-04-01T16:03:25.999Z</time></trkpt><trkpt lat="45.70525176816202" lon="8.84428194893093"><ele>333.0</ele><time>2026-04-01T16:03:26.999Z</time></trkpt><trkpt lat="45.705182071194265" lon="8.844330093847315"><ele>333.0</ele><time>2026-04-01T16:03:27.999Z</time></trkpt><trkpt lat="45.705114795981835" lon="8.844351362351242"><ele>333.0</ele><time>2026-04-01T16:03:28.999Z</time></trkpt><trkpt lat="45.70501996663322" lon="8.844368222310084"><ele>333.0</ele><time>2026-04-01T16:03:30.999Z</time></trkpt><trkpt lat="45.70492008705797" lon="8.844371300452156"><ele>333.0</ele><time>2026-04-01T16:03:31.999Z</time></trkpt><trkpt lat="45.704850199972206" lon="8.844383344732703"><ele>332.79999999999995</ele><time>2026-04-01T16:03:32.999Z</time></trkpt><trkpt lat="45.704752542909205" lon="8.844384641492832"><ele>332.6</ele><time>2026-04-01T16:03:34.999Z</time></trkpt><trkpt lat="45.70463641818249" lon="8.844470621695253"><ele>332.4</ele><time>2026-04-01T16:03:36.999Z</time></trkpt><trkpt lat="45.7045695800827" lon="8.844542333969647"><ele>332.20000000000005</ele><time>2026-04-01T16:03:37.999Z</time></trkpt><trkpt lat="45.70451310555344" lon="8.84458901679315"><ele>332.0</ele><time>2026-04-01T16:03:38.999Z</time></trkpt><trkpt lat="45.704419569065294" lon="8.844595190507343"><ele>331.6666666666667</ele><time>2026-04-01T16:03:40.999Z</time></trkpt><trkpt lat="45.704346644659594" lon="8.844590923386452"><ele>331.33333333333337</ele><time>2026-04-01T16:03:41.999Z</time></trkpt><trkpt lat="45.7042574702063" lon="8.84459052880323"><ele>331.0</ele><time>2026-04-01T16:03:42.999Z</time></trkpt><trkpt lat="45.70417650684995" lon="8.844587849635337"><ele>330.6666666666667</ele><time>2026-04-01T16:03:43.999Z</time></trkpt><trkpt lat="45.70404780509081" lon="8.84462373783816"><ele>330.3333333333333</ele><time>2026-04-01T16:03:45.999Z</time></trkpt><trkpt lat="45.70397865623235" lon="8.844659663100867"><ele>330.0</ele><time>2026-04-01T16:03:46.999Z</time></trkpt><trkpt lat="45.70389774458944" lon="8.844689379392234"><ele>330.0</ele><time>2026-04-01T16:03:47.999Z</time></trkpt><trkpt lat="45.70380063671855" lon="8.844708826606288"><ele>330.0</ele><time>2026-04-01T16:03:49.999Z</time></trkpt><trkpt lat="45.703694524180676" lon="8.844749539214634"><ele>330.0</ele><time>2026-04-01T16:03:51.999Z</time></trkpt><trkpt lat="45.70362696201701" lon="8.844772386889648"><ele>330.0</ele><time>2026-04-01T16:03:52.999Z</time></trkpt><trkpt lat="45.70351233503142" lon="8.844803905988742"><ele>330.0</ele><time>2026-04-01T16:03:54.999Z</time></trkpt><trkpt lat="45.70339678096763" lon="8.844834195888671"><ele>330.3333333333333</ele><time>2026-04-01T16:03:56.999Z</time></trkpt><trkpt lat="45.70331993393348" lon="8.844828563288202"><ele>330.6666666666667</ele><time>2026-04-01T16:03:57.999Z</time></trkpt><trkpt lat="45.70321547724174" lon="8.844735737145445"><ele>331.0</ele><time>2026-04-01T16:03:59.999Z</time></trkpt><trkpt lat="45.703162386284866" lon="8.844650648992145"><ele>331.33333333333337</ele><time>2026-04-01T16:04:00.999Z</time></trkpt><trkpt lat="45.703110668418155" lon="8.844561152061129"><ele>331.6666666666667</ele><time>2026-04-01T16:04:01.999Z</time></trkpt><trkpt lat="45.70304364924734" lon="8.844488360204233"><ele>332.0</ele><time>2026-04-01T16:04:03.999Z</time></trkpt><trkpt lat="45.70298336283997" lon="8.844526023736924"><ele>332.0</ele><time>2026-04-01T16:04:04.999Z</time></trkpt><trkpt lat="45.70286630767241" lon="8.844601860423916"><ele>332.0</ele><time>2026-04-01T16:04:06.999Z</time></trkpt><trkpt lat="45.70278281007582" lon="8.844697088427957"><ele>332.0</ele><time>2026-04-01T16:04:08.999Z</time></trkpt><trkpt lat="45.70275548188592" lon="8.84478461526043"><ele>332.0</ele><time>2026-04-01T16:04:09.999Z</time></trkpt><trkpt lat="45.70269182260567" lon="8.844903102940613"><ele>332.0</ele><time>2026-04-01T16:04:11.999Z</time></trkpt><trkpt lat="45.702618728379086" lon="8.844968982355446"><ele>332.0</ele><time>2026-04-01T16:04:13.999Z</time></trkpt><trkpt lat="45.702535642188025" lon="8.845028327493067"><ele>332.0</ele><time>2026-04-01T16:04:17.998Z</time></trkpt><trkpt lat="45.70246401716214" lon="8.84504380343056"><ele>332.0</ele><time>2026-04-01T16:04:20.998Z</time></trkpt><trkpt lat="45.70241660896011" lon="8.845104831900082"><ele>332.0</ele><time>2026-04-01T16:04:22.998Z</time></trkpt><trkpt lat="45.70234182618426" lon="8.845147386346602"><ele>332.0</ele><time>2026-04-01T16:04:24.998Z</time></trkpt><trkpt lat="45.70223180005818" lon="8.845178374327858"><ele>332.0</ele><time>2026-04-01T16:04:26.998Z</time></trkpt><trkpt lat="45.702161569693594" lon="8.845255199146065"><ele>331.6</ele><time>2026-04-01T16:04:28.998Z</time></trkpt><trkpt lat="45.70206969749674" lon="8.845347311496795"><ele>331.20000000000005</ele><time>2026-04-01T16:04:30.998Z</time></trkpt><trkpt lat="45.701996652236495" lon="8.845407997760601"><ele>330.8</ele><time>2026-04-01T16:04:32.998Z</time></trkpt><trkpt lat="45.70194388487295" lon="8.845514460616656"><ele>330.4</ele><time>2026-04-01T16:04:34.998Z</time></trkpt><trkpt lat="45.7018919416519" lon="8.845601584564179"><ele>330.0</ele><time>2026-04-01T16:04:36.998Z</time></trkpt><trkpt lat="45.70182710591726" lon="8.845732560807557"><ele>329.42857142857144</ele><time>2026-04-01T16:04:38.998Z</time></trkpt><trkpt lat="45.701775639294574" lon="8.84582929138293"><ele>328.8571428571429</ele><time>2026-04-01T16:04:40.998Z</time></trkpt><trkpt lat="45.70174114601814" lon="8.845908998514423"><ele>328.28571428571433</ele><time>2026-04-01T16:04:43.998Z</time></trkpt><trkpt lat="45.70168932966473" lon="8.845997555659528"><ele>327.7142857142857</ele><time>2026-04-01T16:04:46.998Z</time></trkpt><trkpt lat="45.70166934109471" lon="8.846086402728343"><ele>327.1428571428571</ele><time>2026-04-01T16:04:50Z</time></trkpt><trkpt lat="45.70163562688408" lon="8.846182833383828"><ele>326.5714285714286</ele><time>2026-04-01T16:04:53Z</time></trkpt><trkpt lat="45.70159967764237" lon="8.846257849458626"><ele>326.0</ele><time>2026-04-01T16:04:55Z</time></trkpt><trkpt lat="45.70153352389377" lon="8.846365773187532"><ele>325.8</ele><time>2026-04-01T16:04:58Z</time></trkpt><trkpt lat="45.701467071897724" lon="8.846469993538342"><ele>325.6</ele><time>2026-04-01T16:05:00Z</time></trkpt><trkpt lat="45.70139768527822" lon="8.846575723890288"><ele>325.4</ele><time>2026-04-01T16:05:02Z</time></trkpt><trkpt lat="45.7013474141692" lon="8.846712676513382"><ele>325.2</ele><time>2026-04-01T16:05:05Z</time></trkpt><trkpt lat="45.7013146743358" lon="8.84685369309803"><ele>325.0</ele><time>2026-04-01T16:05:07Z</time></trkpt><trkpt lat="45.7012143868917" lon="8.84692789173017"><ele>325.0</ele><time>2026-04-01T16:05:09Z</time></trkpt><trkpt lat="45.70111220363132" lon="8.846888508091181"><ele>325.0</ele><time>2026-04-01T16:05:11Z</time></trkpt><trkpt lat="45.70103548427269" lon="8.846848410349644"><ele>325.0</ele><time>2026-04-01T16:05:12Z</time></trkpt><trkpt lat="45.7009488951148" lon="8.846831569802289"><ele>325.0</ele><time>2026-04-01T16:05:13Z</time></trkpt><trkpt lat="45.70086655125694" lon="8.846807272126012"><ele>325.0</ele><time>2026-04-01T16:05:14Z</time></trkpt><trkpt lat="45.70078625426804" lon="8.846812667126724"><ele>325.0</ele><time>2026-04-01T16:05:15Z</time></trkpt><trkpt lat="45.70070846198492" lon="8.846831290256857"><ele>324.16666666666663</ele><time>2026-04-01T16:05:16Z</time></trkpt><trkpt lat="45.70062121304212" lon="8.846841573971536"><ele>323.3333333333333</ele><time>2026-04-01T16:05:17Z</time></trkpt><trkpt lat="45.70055767812596" lon="8.846848344656845"><ele>322.5</ele><time>2026-04-01T16:05:18Z</time></trkpt><trkpt lat="45.70046428205235" lon="8.84688891272371"><ele>321.6666666666667</ele><time>2026-04-01T16:05:19Z</time></trkpt><trkpt lat="45.70036321812124" lon="8.846909184866538"><ele>320.83333333333337</ele><time>2026-04-01T16:05:20Z</time></trkpt><trkpt lat="45.70029142835361" lon="8.846948508112915"><ele>320.0</ele><time>2026-04-01T16:05:21Z</time></trkpt><trkpt lat="45.7002244924632" lon="8.846960926437845"><ele>318.33333333333337</ele><time>2026-04-01T16:05:22Z</time></trkpt><trkpt lat="45.70011661625266" lon="8.846948466660141"><ele>316.6666666666667</ele><time>2026-04-01T16:05:24Z</time></trkpt><trkpt lat="45.70002792648634" lon="8.846979665574558"><ele>315.0</ele><time>2026-04-01T16:05:25Z</time></trkpt><trkpt lat="45.69993776918387" lon="8.847030525396182"><ele>313.3333333333333</ele><time>2026-04-01T16:05:27Z</time></trkpt><trkpt lat="45.69989157452624" lon="8.847097356709595"><ele>311.66666666666663</ele><time>2026-04-01T16:05:28Z</time></trkpt><trkpt lat="45.69983926885466" lon="8.847172847847867"><ele>310.0</ele><time>2026-04-01T16:05:29Z</time></trkpt><trkpt lat="45.69976643836705" lon="8.847300807715175"><ele>310.0</ele><time>2026-04-01T16:05:30.999Z</time></trkpt><trkpt lat="45.69965686849712" lon="8.847379156797377"><ele>310.0</ele><time>2026-04-01T16:05:32.999Z</time></trkpt><trkpt lat="45.699542099173414" lon="8.847327934532565"><ele>310.0</ele><time>2026-04-01T16:05:34.999Z</time></trkpt><trkpt lat="45.69944235774096" lon="8.847323294098977"><ele>310.0</ele><time>2026-04-01T16:05:36.999Z</time></trkpt><trkpt lat="45.699386989097704" lon="8.847410939273052"><ele>310.0</ele><time>2026-04-01T16:05:38.999Z</time></trkpt><trkpt lat="45.69937360573056" lon="8.84751820525757"><ele>309.0</ele><time>2026-04-01T16:05:40.999Z</time></trkpt><trkpt lat="45.69936526677477" lon="8.847621881196057"><ele>308.0</ele><time>2026-04-01T16:05:42.999Z</time></trkpt><trkpt lat="45.69933112523697" lon="8.84778700087337"><ele>307.0</ele><time>2026-04-01T16:05:44.999Z</time></trkpt><trkpt lat="45.6992900894509" lon="8.847864262672505"><ele>306.0</ele><time>2026-04-01T16:05:45.999Z</time></trkpt><trkpt lat="45.69926252519033" lon="8.847946346255803"><ele>305.0</ele><time>2026-04-01T16:05:46.999Z</time></trkpt><trkpt lat="45.69920819897434" lon="8.848027591983113"><ele>304.0</ele><time>2026-04-01T16:05:47.999Z</time></trkpt><trkpt lat="45.69914275279792" lon="8.848140328926766"><ele>303.0</ele><time>2026-04-01T16:05:48.999Z</time></trkpt><trkpt lat="45.69908788105382" lon="8.848239735686573"><ele>302.0</ele><time>2026-04-01T16:05:49.999Z</time></trkpt><trkpt lat="45.699046519545014" lon="8.848322430678207"><ele>301.0</ele><time>2026-04-01T16:05:50.999Z</time></trkpt><trkpt lat="45.69898598373001" lon="8.848445463068726"><ele>300.0</ele><time>2026-04-01T16:05:52.999Z</time></trkpt><trkpt lat="45.69893696324303" lon="8.848518289298406"><ele>299.0</ele><time>2026-04-01T16:05:53.999Z</time></trkpt><trkpt lat="45.69888961513913" lon="8.848627297003617"><ele>298.0</ele><time>2026-04-01T16:05:54.999Z</time></trkpt><trkpt lat="45.698837050286684" lon="8.848732005612488"><ele>297.5</ele><time>2026-04-01T16:05:55.999Z</time></trkpt><trkpt lat="45.69880118154895" lon="8.848824251297739"><ele>297.0</ele><time>2026-04-01T16:05:56.999Z</time></trkpt><trkpt lat="45.69875462602388" lon="8.848980137730802"><ele>296.5</ele><time>2026-04-01T16:05:58.999Z</time></trkpt><trkpt lat="45.698721443159485" lon="8.849070519485334"><ele>296.0</ele><time>2026-04-01T16:05:59.999Z</time></trkpt><trkpt lat="45.698673629100156" lon="8.84916959235143"><ele>295.5</ele><time>2026-04-01T16:06:00.999Z</time></trkpt><trkpt lat="45.69862679037216" lon="8.849242618085533"><ele>295.0</ele><time>2026-04-01T16:06:01.999Z</time></trkpt><trkpt lat="45.698587482966595" lon="8.849325308209153"><ele>294.75</ele><time>2026-04-01T16:06:03.999Z</time></trkpt><trkpt lat="45.698633060306115" lon="8.849392980658871"><ele>294.5</ele><time>2026-04-01T16:06:12.999Z</time></trkpt><trkpt lat="45.69874699118622" lon="8.8494970920685"><ele>294.25</ele><time>2026-04-01T16:06:14.999Z</time></trkpt><trkpt lat="45.6988585623262" lon="8.849537154828447"><ele>294.0</ele><time>2026-04-01T16:06:15.999Z</time></trkpt><trkpt lat="45.698995439964435" lon="8.849558438081887"><ele>294.0</ele><time>2026-04-01T16:06:16.999Z</time></trkpt><trkpt lat="45.69916438410556" lon="8.849606836422135"><ele>294.0</ele><time>2026-04-01T16:06:17.999Z</time></trkpt><trkpt lat="45.699340655898354" lon="8.849675403272881"><ele>294.0</ele><time>2026-04-01T16:06:18.999Z</time></trkpt><trkpt lat="45.69947956107419" lon="8.84974161339363"><ele>295.2</ele><time>2026-04-01T16:06:19.999Z</time></trkpt><trkpt lat="45.69959557138224" lon="8.849798271219068"><ele>296.4</ele><time>2026-04-01T16:06:20.999Z</time></trkpt><trkpt lat="45.69970116959333" lon="8.849845752057302"><ele>297.6</ele><time>2026-04-01T16:06:21.999Z</time></trkpt><trkpt lat="45.699809148127216" lon="8.849879987475205"><ele>298.8</ele><time>2026-04-01T16:06:22.999Z</time></trkpt><trkpt lat="45.699911095261534" lon="8.849904783161007"><ele>300.0</ele><time>2026-04-01T16:06:23.999Z</time></trkpt><trkpt lat="45.70002517066683" lon="8.849907485856745"><ele>300.0</ele><time>2026-04-01T16:06:24.999Z</time></trkpt><trkpt lat="45.70013068170774" lon="8.849881946941338"><ele>300.0</ele><time>2026-04-01T16:06:25.999Z</time></trkpt><trkpt lat="45.70020719248315" lon="8.849860391014268"><ele>300.0</ele><time>2026-04-01T16:06:26.999Z</time></trkpt><trkpt lat="45.70028333604729" lon="8.849883179465946"><ele>300.0</ele><time>2026-04-01T16:06:28.999Z</time></trkpt><trkpt lat="45.70034965037596" lon="8.849895990487022"><ele>300.0</ele><time>2026-04-01T16:06:31.998Z</time></trkpt><trkpt lat="45.70041295629235" lon="8.84987094873944"><ele>300.0</ele><time>2026-04-01T16:06:38.998Z</time></trkpt><trkpt lat="45.70043788364071" lon="8.849956573695955"><ele>301.0</ele><time>2026-04-01T16:08:03.999Z</time></trkpt><trkpt lat="45.700489765314785" lon="8.850020023075682"><ele>302.0</ele><time>2026-04-01T16:08:12.999Z</time></trkpt><trkpt lat="45.70043429194114" lon="8.849955880723131"><ele>303.0</ele><time>2026-04-01T16:08:23.999Z</time></trkpt><trkpt lat="45.7003960801665" lon="8.84983430029954"><ele>304.0</ele><time>2026-04-01T16:08:51.998Z</time></trkpt><trkpt lat="45.70042891343723" lon="8.849948387431676"><ele>305.0</ele><time>2026-04-01T16:09:31Z</time></trkpt><trkpt lat="45.70045636472088" lon="8.850041196612649"><ele>306.0</ele><time>2026-04-01T16:09:37Z</time></trkpt><trkpt lat="45.70053980145348" lon="8.850053976191145"><ele>306.0</ele><time>2026-04-01T16:10:11.999Z</time></trkpt><trkpt lat="45.70047355105007" lon="8.850017697056746"><ele>306.0</ele><time>2026-04-01T16:10:16.999Z</time></trkpt><trkpt lat="45.70042169152734" lon="8.849924227923646"><ele>306.0</ele><time>2026-04-01T16:10:21.999Z</time></trkpt><trkpt lat="45.70035809351682" lon="8.849872318191352"><ele>306.0</ele><time>2026-04-01T16:10:28.999Z</time></trkpt><trkpt lat="45.70026650271981" lon="8.849895207811327"><ele>306.0</ele><time>2026-04-01T16:10:30.999Z</time></trkpt><trkpt lat="45.700052761096224" lon="8.849813076949813"><ele>304.5</ele><time>2026-04-01T16:10:40.999Z</time></trkpt><trkpt lat="45.69994135320367" lon="8.849810689058206"><ele>303.0</ele><time>2026-04-01T16:10:41.999Z</time></trkpt><trkpt lat="45.69981166721517" lon="8.849809775110435"><ele>301.5</ele><time>2026-04-01T16:10:42.999Z</time></trkpt><trkpt lat="45.69968066023382" lon="8.849774900822185"><ele>300.0</ele><time>2026-04-01T16:10:43.999Z</time></trkpt><trkpt lat="45.699541633847716" lon="8.849718504457844"><ele>298.0</ele><time>2026-04-01T16:10:44.999Z</time></trkpt><trkpt lat="45.699388240341065" lon="8.849652246628885"><ele>296.0</ele><time>2026-04-01T16:10:45.999Z</time></trkpt><trkpt lat="45.6992411179614" lon="8.849594737703068"><ele>294.0</ele><time>2026-04-01T16:10:46.998Z</time></trkpt><trkpt lat="45.69910478489942" lon="8.849542099692473"><ele>294.0</ele><time>2026-04-01T16:10:47.998Z</time></trkpt><trkpt lat="45.698967797342426" lon="8.84950100900173"><ele>294.0</ele><time>2026-04-01T16:10:48.998Z</time></trkpt><trkpt lat="45.69882656547536" lon="8.849458866439159"><ele>294.0</ele><time>2026-04-01T16:10:49.998Z</time></trkpt><trkpt lat="45.69867124139672" lon="8.849413903508626"><ele>294.0</ele><time>2026-04-01T16:10:50.998Z</time></trkpt><trkpt lat="45.69850757394359" lon="8.849382814807607"><ele>293.0</ele><time>2026-04-01T16:10:51.998Z</time></trkpt><trkpt lat="45.698351558485925" lon="8.849392209232956"><ele>292.0</ele><time>2026-04-01T16:10:52.998Z</time></trkpt><trkpt lat="45.69821355407637" lon="8.849421992709251"><ele>291.0</ele><time>2026-04-01T16:10:53.998Z</time></trkpt><trkpt lat="45.69808361119757" lon="8.849461212029551"><ele>290.0</ele><time>2026-04-01T16:10:54.998Z</time></trkpt><trkpt lat="45.697950950324184" lon="8.849523638678306"><ele>290.0</ele><time>2026-04-01T16:10:55.998Z</time></trkpt><trkpt lat="45.69780882377673" lon="8.849599900280023"><ele>290.0</ele><time>2026-04-01T16:10:56.998Z</time></trkpt><trkpt lat="45.69766166096856" lon="8.849669953046373"><ele>290.0</ele><time>2026-04-01T16:10:57.998Z</time></trkpt><trkpt lat="45.69752804315582" lon="8.849745939754694"><ele>289.5</ele><time>2026-04-01T16:10:58.998Z</time></trkpt><trkpt lat="45.69741003291636" lon="8.849820980396325"><ele>289.0</ele><time>2026-04-01T16:10:59.998Z</time></trkpt><trkpt lat="45.69732342871664" lon="8.849929399431595"><ele>288.5</ele><time>2026-04-01T16:11:00.998Z</time></trkpt><trkpt lat="45.69724011988824" lon="8.850052266663207"><ele>288.0</ele><time>2026-04-01T16:11:01.998Z</time></trkpt><trkpt lat="45.69715116878122" lon="8.850179469474618"><ele>287.8</ele><time>2026-04-01T16:11:02.998Z</time></trkpt><trkpt lat="45.697088340905296" lon="8.850268462265637"><ele>287.6</ele><time>2026-04-01T16:11:03.998Z</time></trkpt><trkpt lat="45.69702964705045" lon="8.85032548237103"><ele>287.4</ele><time>2026-04-01T16:11:04.998Z</time></trkpt><trkpt lat="45.69698348557675" lon="8.850566273855781"><ele>287.2</ele><time>2026-04-01T16:11:06.998Z</time></trkpt><trkpt lat="45.69692495101487" lon="8.85070477667075"><ele>287.0</ele><time>2026-04-01T16:11:08Z</time></trkpt><trkpt lat="45.6968766972465" lon="8.85087584098198"><ele>287.4</ele><time>2026-04-01T16:11:09Z</time></trkpt><trkpt lat="45.696825414222104" lon="8.851027665238767"><ele>287.79999999999995</ele><time>2026-04-01T16:11:10Z</time></trkpt><trkpt lat="45.69677671361784" lon="8.851152386512764"><ele>288.2</ele><time>2026-04-01T16:11:11Z</time></trkpt><trkpt lat="45.69672820994386" lon="8.851277486093027"><ele>288.59999999999997</ele><time>2026-04-01T16:11:12Z</time></trkpt><trkpt lat="45.69668948379437" lon="8.851384813139779"><ele>289.0</ele><time>2026-04-01T16:11:13Z</time></trkpt><trkpt lat="45.696659468254026" lon="8.85147185087479"><ele>289.0</ele><time>2026-04-01T16:11:14Z</time></trkpt><trkpt lat="45.696615343854035" lon="8.851564152296142"><ele>289.0</ele><time>2026-04-01T16:11:16Z</time></trkpt><trkpt lat="45.69656260653282" lon="8.85169402129547"><ele>289.0</ele><time>2026-04-01T16:11:18Z</time></trkpt><trkpt lat="45.69658854755217" lon="8.851831603742305"><ele>289.0</ele><time>2026-04-01T16:11:19Z</time></trkpt><trkpt lat="45.696609398394735" lon="8.85195096910249"><ele>289.0</ele><time>2026-04-01T16:11:20Z</time></trkpt><trkpt lat="45.696610417625685" lon="8.85205684376282"><ele>289.0</ele><time>2026-04-01T16:11:21Z</time></trkpt><trkpt lat="45.69662350294774" lon="8.852179566269575"><ele>288.59999999999997</ele><time>2026-04-01T16:11:22Z</time></trkpt><trkpt lat="45.696625738631724" lon="8.852286796154774"><ele>288.2</ele><time>2026-04-01T16:11:23Z</time></trkpt><trkpt lat="45.69663980662095" lon="8.852414863842176"><ele>287.79999999999995</ele><time>2026-04-01T16:11:24Z</time></trkpt><trkpt lat="45.69666599353846" lon="8.85257028652059"><ele>287.4</ele><time>2026-04-01T16:11:25Z</time></trkpt><trkpt lat="45.696672597275374" lon="8.852724836745555"><ele>287.0</ele><time>2026-04-01T16:11:26Z</time></trkpt><trkpt lat="45.696688020825945" lon="8.85283991452766"><ele>286.75</ele><time>2026-04-01T16:11:27Z</time></trkpt><trkpt lat="45.69668200788967" lon="8.853003397035222"><ele>286.5</ele><time>2026-04-01T16:11:29Z</time></trkpt><trkpt lat="45.69664576309085" lon="8.853165908301683"><ele>286.25</ele><time>2026-04-01T16:11:31Z</time></trkpt><trkpt lat="45.69662766119402" lon="8.85335313046279"><ele>286.0</ele><time>2026-04-01T16:11:33Z</time></trkpt><trkpt lat="45.69661018513064" lon="8.853501659571755"><ele>286.0</ele><time>2026-04-01T16:11:34Z</time></trkpt><trkpt lat="45.69661639570939" lon="8.85366916518282"><ele>286.0</ele><time>2026-04-01T16:11:35Z</time></trkpt><trkpt lat="45.69662451147433" lon="8.853855682527392"><ele>286.0</ele><time>2026-04-01T16:11:36Z</time></trkpt><trkpt lat="45.69661745069635" lon="8.85403801714059"><ele>286.0</ele><time>2026-04-01T16:11:37Z</time></trkpt><trkpt lat="45.6966319421365" lon="8.854197655980343"><ele>286.25</ele><time>2026-04-01T16:11:38Z</time></trkpt><trkpt lat="45.69666562313394" lon="8.854333071931764"><ele>286.5</ele><time>2026-04-01T16:11:39Z</time></trkpt><trkpt lat="45.69672967199166" lon="8.85446255899194"><ele>286.75</ele><time>2026-04-01T16:11:40Z</time></trkpt><trkpt lat="45.696813656679616" lon="8.854595995061914"><ele>287.0</ele><time>2026-04-01T16:11:41Z</time></trkpt><trkpt lat="45.69690052740103" lon="8.854725757208321"><ele>286.5</ele><time>2026-04-01T16:11:42Z</time></trkpt><trkpt lat="45.69699253293837" lon="8.854847187491572"><ele>286.0</ele><time>2026-04-01T16:11:43Z</time></trkpt><trkpt lat="45.6971084227667" lon="8.854951244881168"><ele>285.5</ele><time>2026-04-01T16:11:44Z</time></trkpt><trkpt lat="45.69726030984643" lon="8.855014117125405"><ele>285.0</ele><time>2026-04-01T16:11:45Z</time></trkpt><trkpt lat="45.69743472562332" lon="8.85508240255206"><ele>285.6666666666667</ele><time>2026-04-01T16:11:46Z</time></trkpt><trkpt lat="45.69762270774108" lon="8.85516828266407"><ele>286.33333333333337</ele><time>2026-04-01T16:11:47Z</time></trkpt><trkpt lat="45.69777775476456" lon="8.855253857728714"><ele>287.0</ele><time>2026-04-01T16:11:48Z</time></trkpt><trkpt lat="45.69791267477531" lon="8.855335400854933"><ele>288.33333333333337</ele><time>2026-04-01T16:11:49Z</time></trkpt><trkpt lat="45.69804167668392" lon="8.855426679743795"><ele>289.6666666666667</ele><time>2026-04-01T16:11:50Z</time></trkpt><trkpt lat="45.69817708070158" lon="8.855536575288697"><ele>291.0</ele><time>2026-04-01T16:11:51Z</time></trkpt><trkpt lat="45.698314978380054" lon="8.855665030230035"><ele>291.0</ele><time>2026-04-01T16:11:52Z</time></trkpt><trkpt lat="45.698437978408506" lon="8.855789899316388"><ele>291.0</ele><time>2026-04-01T16:11:52.999Z</time></trkpt><trkpt lat="45.69855151452515" lon="8.855879083098257"><ele>291.0</ele><time>2026-04-01T16:11:53.999Z</time></trkpt><trkpt lat="45.69867052201239" lon="8.855941007063965"><ele>291.0</ele><time>2026-04-01T16:11:54.999Z</time></trkpt><trkpt lat="45.69881244905332" lon="8.855966930084334"><ele>290.6666666666667</ele><time>2026-04-01T16:11:55.999Z</time></trkpt><trkpt lat="45.69896304616383" lon="8.855981186429268"><ele>290.33333333333337</ele><time>2026-04-01T16:11:56.999Z</time></trkpt><trkpt lat="45.699123768239346" lon="8.855997914897257"><ele>290.0</ele><time>2026-04-01T16:11:57.999Z</time></trkpt><trkpt lat="45.69929543862462" lon="8.856014279795179"><ele>290.5</ele><time>2026-04-01T16:11:58.999Z</time></trkpt><trkpt lat="45.69946276062753" lon="8.856038117262173"><ele>291.0</ele><time>2026-04-01T16:11:59.999Z</time></trkpt><trkpt lat="45.6996063431793" lon="8.856060371904602"><ele>291.5</ele><time>2026-04-01T16:12:00.999Z</time></trkpt><trkpt lat="45.69971994431272" lon="8.856110461246242"><ele>292.0</ele><time>2026-04-01T16:12:01.999Z</time></trkpt><trkpt lat="45.69983029783026" lon="8.856194328340932"><ele>292.0</ele><time>2026-04-01T16:12:02.999Z</time></trkpt><trkpt lat="45.69993481172446" lon="8.856318501341256"><ele>292.0</ele><time>2026-04-01T16:12:03.999Z</time></trkpt><trkpt lat="45.7000490886654" lon="8.856459047382707"><ele>292.0</ele><time>2026-04-01T16:12:04.999Z</time></trkpt><trkpt lat="45.700165258509976" lon="8.856589146389092"><ele>292.0</ele><time>2026-04-01T16:12:05.999Z</time></trkpt><trkpt lat="45.70027684442434" lon="8.856673785310278"><ele>292.25</ele><time>2026-04-01T16:12:06.999Z</time></trkpt><trkpt lat="45.70039137117717" lon="8.85671514438936"><ele>292.5</ele><time>2026-04-01T16:12:07.999Z</time></trkpt><trkpt lat="45.7005052280881" lon="8.85674266335955"><ele>292.75</ele><time>2026-04-01T16:12:08.999Z</time></trkpt><trkpt lat="45.70061993543661" lon="8.856788354582728"><ele>293.0</ele><time>2026-04-01T16:12:09.999Z</time></trkpt><trkpt lat="45.7007284014082" lon="8.856857909103688"><ele>293.0</ele><time>2026-04-01T16:12:10.999Z</time></trkpt><trkpt lat="45.70084388908011" lon="8.856929965052975"><ele>293.0</ele><time>2026-04-01T16:12:11.999Z</time></trkpt><trkpt lat="45.70094997116497" lon="8.85703420281317"><ele>293.0</ele><time>2026-04-01T16:12:12.999Z</time></trkpt><trkpt lat="45.701052272115525" lon="8.857150214446206"><ele>293.0</ele><time>2026-04-01T16:12:13.999Z</time></trkpt><trkpt lat="45.70114507713615" lon="8.857239756371406"><ele>294.0</ele><time>2026-04-01T16:12:14.999Z</time></trkpt><trkpt lat="45.701243657490664" lon="8.857306869564225"><ele>295.0</ele><time>2026-04-01T16:12:15.999Z</time></trkpt><trkpt lat="45.70136207976009" lon="8.857347846764432"><ele>296.0</ele><time>2026-04-01T16:12:16.999Z</time></trkpt><trkpt lat="45.70149233435112" lon="8.857378877169866"><ele>297.0</ele><time>2026-04-01T16:12:17.999Z</time></trkpt><trkpt lat="45.70163917914831" lon="8.857391138192584"><ele>297.0</ele><time>2026-04-01T16:12:18.999Z</time></trkpt><trkpt lat="45.70177662977459" lon="8.857416567960403"><ele>297.0</ele><time>2026-04-01T16:12:19.999Z</time></trkpt><trkpt lat="45.70189086894761" lon="8.857471472487646"><ele>297.0</ele><time>2026-04-01T16:12:20.999Z</time></trkpt><trkpt lat="45.701987576765326" lon="8.857518063922276"><ele>297.0</ele><time>2026-04-01T16:12:21.999Z</time></trkpt><trkpt lat="45.70206318056702" lon="8.85755169342416"><ele>297.0</ele><time>2026-04-01T16:12:22.999Z</time></trkpt><trkpt lat="45.702144904420095" lon="8.857605611737679"><ele>296.6</ele><time>2026-04-01T16:12:24.999Z</time></trkpt><trkpt lat="45.70231474277043" lon="8.85751214313942"><ele>296.2</ele><time>2026-04-01T16:12:35.999Z</time></trkpt><trkpt lat="45.70239184346673" lon="8.85747846444168"><ele>295.8</ele><time>2026-04-01T16:12:37.999Z</time></trkpt><trkpt lat="45.70247577845142" lon="8.85740541061481"><ele>295.4</ele><time>2026-04-01T16:12:39.999Z</time></trkpt><trkpt lat="45.70254375338185" lon="8.857385924440692"><ele>295.0</ele><time>2026-04-01T16:12:40.999Z</time></trkpt><trkpt lat="45.70260971840487" lon="8.857347332230518"><ele>295.0</ele><time>2026-04-01T16:12:41.999Z</time></trkpt><trkpt lat="45.70270437775244" lon="8.857302101247445"><ele>295.0</ele><time>2026-04-01T16:12:42.999Z</time></trkpt><trkpt lat="45.70278450183711" lon="8.857285534476125"><ele>295.0</ele><time>2026-04-01T16:12:43.999Z</time></trkpt><trkpt lat="45.70284917163606" lon="8.857265114682951"><ele>295.0</ele><time>2026-04-01T16:12:44.999Z</time></trkpt><trkpt lat="45.70291023809336" lon="8.857242197623288"><ele>295.0</ele><time>2026-04-01T16:12:45.999Z</time></trkpt><trkpt lat="45.702993445406314" lon="8.857159041669826"><ele>295.0</ele><time>2026-04-01T16:12:47.999Z</time></trkpt><trkpt lat="45.703086616047166" lon="8.857047578453992"><ele>295.4</ele><time>2026-04-01T16:12:49.999Z</time></trkpt><trkpt lat="45.703138894887296" lon="8.856929392562714"><ele>295.8</ele><time>2026-04-01T16:12:51.998Z</time></trkpt><trkpt lat="45.70323605237991" lon="8.85685161070941"><ele>296.2</ele><time>2026-04-01T16:12:53.998Z</time></trkpt><trkpt lat="45.70332170385507" lon="8.856826701463644"><ele>296.6</ele><time>2026-04-01T16:12:55.998Z</time></trkpt><trkpt lat="45.703379999740555" lon="8.856754474809406"><ele>297.0</ele><time>2026-04-01T16:12:57.998Z</time></trkpt><trkpt lat="45.70339709126415" lon="8.856628280979779"><ele>297.0</ele><time>2026-04-01T16:12:59.998Z</time></trkpt><trkpt lat="45.7033950789365" lon="8.856463258496984"><ele>297.0</ele><time>2026-04-01T16:13:01.998Z</time></trkpt><trkpt lat="45.70338585539891" lon="8.856332320607807"><ele>297.0</ele><time>2026-04-01T16:13:03.998Z</time></trkpt><trkpt lat="45.703375352876954" lon="8.856242363771251"><ele>297.0</ele><time>2026-04-01T16:13:05.998Z</time></trkpt><trkpt lat="45.70338022961746" lon="8.856067713780238"><ele>297.0</ele><time>2026-04-01T16:13:07.998Z</time></trkpt><trkpt lat="45.703409701769885" lon="8.855971263130094"><ele>296.5</ele><time>2026-04-01T16:13:08.998Z</time></trkpt><trkpt lat="45.703448191472226" lon="8.855886569700294"><ele>296.0</ele><time>2026-04-01T16:13:09.998Z</time></trkpt><trkpt lat="45.7034668491483" lon="8.855786333773441"><ele>295.5</ele><time>2026-04-01T16:13:11.998Z</time></trkpt><trkpt lat="45.70342815817048" lon="8.855670013287872"><ele>295.0</ele><time>2026-04-01T16:13:14Z</time></trkpt><trkpt lat="45.703481537597526" lon="8.855593722886168"><ele>294.5</ele><time>2026-04-01T16:13:16Z</time></trkpt><trkpt lat="45.70351531668236" lon="8.855501350215253"><ele>294.0</ele><time>2026-04-01T16:13:18Z</time></trkpt><trkpt lat="45.703519358271016" lon="8.855378621380863"><ele>294.0</ele><time>2026-04-01T16:13:20Z</time></trkpt><trkpt lat="45.7035296141746" lon="8.855271414035116"><ele>294.0</ele><time>2026-04-01T16:13:22Z</time></trkpt><trkpt lat="45.70353317163992" lon="8.855154803825426"><ele>294.0</ele><time>2026-04-01T16:13:24Z</time></trkpt><trkpt lat="45.70355804469037" lon="8.855037509412439"><ele>294.0</ele><time>2026-04-01T16:13:26Z</time></trkpt><trkpt lat="45.703613309900234" lon="8.854974655578213"><ele>294.0</ele><time>2026-04-01T16:13:55Z</time></trkpt><trkpt lat="45.703704660913" lon="8.854912815947852"><ele>294.0</ele><time>2026-04-01T16:13:58.999Z</time></trkpt><trkpt lat="45.703777408276984" lon="8.854864642681905"><ele>294.5</ele><time>2026-04-01T16:13:59.999Z</time></trkpt><trkpt lat="45.70386586583748" lon="8.85487615600711"><ele>295.0</ele><time>2026-04-01T16:14:02.999Z</time></trkpt><trkpt lat="45.70406891237366" lon="8.854804228735574"><ele>295.5</ele><time>2026-04-01T16:14:07.999Z</time></trkpt><trkpt lat="45.704153501934314" lon="8.854789151741713"><ele>296.0</ele><time>2026-04-01T16:14:08.999Z</time></trkpt><trkpt lat="45.70429329923756" lon="8.854736839522891"><ele>296.0</ele><time>2026-04-01T16:14:10.999Z</time></trkpt><trkpt lat="45.70435877633005" lon="8.854709934404115"><ele>296.0</ele><time>2026-04-01T16:14:11.999Z</time></trkpt><trkpt lat="45.704441798528336" lon="8.854713098804089"><ele>296.0</ele><time>2026-04-01T16:14:12.999Z</time></trkpt><trkpt lat="45.70450711744038" lon="8.854720825832986"><ele>296.0</ele><time>2026-04-01T16:14:13.999Z</time></trkpt><trkpt lat="45.704603808131985" lon="8.854710326551965"><ele>296.0</ele><time>2026-04-01T16:14:15.999Z</time></trkpt><trkpt lat="45.704709053763885" lon="8.85474001840248"><ele>296.0</ele><time>2026-04-01T16:14:17.999Z</time></trkpt><trkpt lat="45.7048022724833" lon="8.854782748678943"><ele>296.1666666666667</ele><time>2026-04-01T16:14:19.999Z</time></trkpt><trkpt lat="45.70485986624402" lon="8.854842697856503"><ele>296.33333333333337</ele><time>2026-04-01T16:14:21.999Z</time></trkpt><trkpt lat="45.70491018758378" lon="8.854778072318071"><ele>296.5</ele><time>2026-04-01T16:14:24.999Z</time></trkpt><trkpt lat="45.70498486043116" lon="8.854768817885766"><ele>296.6666666666667</ele><time>2026-04-01T16:14:26.999Z</time></trkpt><trkpt lat="45.705047532916915" lon="8.85481557776188"><ele>296.8333333333333</ele><time>2026-04-01T16:14:29.999Z</time></trkpt><trkpt lat="45.70508698082572" lon="8.854908299954932"><ele>297.0</ele><time>2026-04-01T16:14:32.999Z</time></trkpt><trkpt lat="45.70518874344538" lon="8.854899343158463"><ele>297.6666666666667</ele><time>2026-04-01T16:14:34.999Z</time></trkpt><trkpt lat="45.70527925153527" lon="8.854906122801404"><ele>298.3333333333333</ele><time>2026-04-01T16:14:35.999Z</time></trkpt><trkpt lat="45.70537962610448" lon="8.854934187285291"><ele>299.0</ele><time>2026-04-01T16:14:37.999Z</time></trkpt><trkpt lat="45.70544254876057" lon="8.854958530408842"><ele>299.66666666666663</ele><time>2026-04-01T16:14:38.999Z</time></trkpt><trkpt lat="45.70551483942552" lon="8.854961749566728"><ele>300.3333333333333</ele><time>2026-04-01T16:14:39.999Z</time></trkpt><trkpt lat="45.70557904815793" lon="8.854962511864715"><ele>301.0</ele><time>2026-04-01T16:14:40.999Z</time></trkpt><trkpt lat="45.70567914612186" lon="8.854916577007218"><ele>301.0</ele><time>2026-04-01T16:14:42.999Z</time></trkpt><trkpt lat="45.705721865066" lon="8.855002121344517"><ele>301.0</ele><time>2026-04-01T16:14:45.999Z</time></trkpt><trkpt lat="45.70577849693824" lon="8.85508049529136"><ele>301.0</ele><time>2026-04-01T16:14:48.999Z</time></trkpt><trkpt lat="45.705836516917664" lon="8.855172865318108"><ele>301.0</ele><time>2026-04-01T16:14:50.999Z</time></trkpt><trkpt lat="45.70591464917972" lon="8.85524825614471"><ele>301.0</ele><time>2026-04-01T16:14:52.999Z</time></trkpt><trkpt lat="45.70597562397709" lon="8.855283062736383"><ele>301.0</ele><time>2026-04-01T16:14:53.999Z</time></trkpt><trkpt lat="45.70605697599945" lon="8.855287789878373"><ele>300.8</ele><time>2026-04-01T16:14:56.998Z</time></trkpt><trkpt lat="45.7061595830652" lon="8.855299299535162"><ele>300.6</ele><time>2026-04-01T16:15:02.998Z</time></trkpt><trkpt lat="45.70621829508266" lon="8.855344035516886"><ele>300.4</ele><time>2026-04-01T16:15:03.998Z</time></trkpt><trkpt lat="45.706326108068296" lon="8.855404659924952"><ele>300.2</ele><time>2026-04-01T16:15:05.998Z</time></trkpt><trkpt lat="45.70642269001961" lon="8.855451723518843"><ele>300.0</ele><time>2026-04-01T16:15:07.998Z</time></trkpt><trkpt lat="45.70647414506932" lon="8.855516063583394"><ele>300.0</ele><time>2026-04-01T16:15:09.998Z</time></trkpt><trkpt lat="45.7065255665018" lon="8.855584636735593"><ele>300.0</ele><time>2026-04-01T16:15:11.998Z</time></trkpt><trkpt lat="45.70660273078934" lon="8.855549744007579"><ele>300.0</ele><time>2026-04-01T16:15:14.998Z</time></trkpt><trkpt lat="45.70670157389083" lon="8.85557624368937"><ele>300.0</ele><time>2026-04-01T16:15:16.998Z</time></trkpt><trkpt lat="45.706807539457735" lon="8.855597112775447"><ele>300.0</ele><time>2026-04-01T16:15:18.998Z</time></trkpt><trkpt lat="45.70688574341656" lon="8.8556001500494"><ele>300.0</ele><time>2026-04-01T16:15:20Z</time></trkpt><trkpt lat="45.70700903318731" lon="8.855645763348054"><ele>301.0</ele><time>2026-04-01T16:15:22Z</time></trkpt><trkpt lat="45.70709049694825" lon="8.855715493518527"><ele>302.0</ele><time>2026-04-01T16:15:24Z</time></trkpt><trkpt lat="45.7072192185297" lon="8.85573993672094"><ele>303.0</ele><time>2026-04-01T16:15:26Z</time></trkpt><trkpt lat="45.70731599031452" lon="8.85576342889547"><ele>304.0</ele><time>2026-04-01T16:15:27Z</time></trkpt><trkpt lat="45.70738764974827" lon="8.855784573168215"><ele>305.0</ele><time>2026-04-01T16:15:28Z</time></trkpt><trkpt lat="45.707449502399335" lon="8.855812827161552"><ele>305.0</ele><time>2026-04-01T16:15:29Z</time></trkpt><trkpt lat="45.707513654931724" lon="8.85583844488706"><ele>305.0</ele><time>2026-04-01T16:15:30Z</time></trkpt><trkpt lat="45.70759991466807" lon="8.855836335444614"><ele>305.0</ele><time>2026-04-01T16:15:31Z</time></trkpt><trkpt lat="45.707687546668545" lon="8.855837750757487"><ele>305.0</ele><time>2026-04-01T16:15:33Z</time></trkpt><trkpt lat="45.70777588712049" lon="8.855934154977938"><ele>305.0</ele><time>2026-04-01T16:15:35Z</time></trkpt><trkpt lat="45.70783413951538" lon="8.855978305849051"><ele>305.0</ele><time>2026-04-01T16:15:36Z</time></trkpt><trkpt lat="45.70795941992812" lon="8.856038164514251"><ele>304.4</ele><time>2026-04-01T16:15:38Z</time></trkpt><trkpt lat="45.708052319616414" lon="8.856154892323296"><ele>303.8</ele><time>2026-04-01T16:15:40Z</time></trkpt><trkpt lat="45.7081454222209" lon="8.856208334163444"><ele>303.2</ele><time>2026-04-01T16:15:42Z</time></trkpt><trkpt lat="45.70821500521821" lon="8.85630206784738"><ele>302.6</ele><time>2026-04-01T16:15:45Z</time></trkpt><trkpt lat="45.70828464662671" lon="8.856337775392856"><ele>302.0</ele><time>2026-04-01T16:15:48Z</time></trkpt><trkpt lat="45.70838484682214" lon="8.856270920194206"><ele>302.0</ele><time>2026-04-01T16:15:51Z</time></trkpt><trkpt lat="45.708476742545045" lon="8.856313395382982"><ele>302.0</ele><time>2026-04-01T16:15:53Z</time></trkpt><trkpt lat="45.70855023841929" lon="8.856337432246999"><ele>302.0</ele><time>2026-04-01T16:15:54Z</time></trkpt><trkpt lat="45.70862143743833" lon="8.856349590916038"><ele>302.0</ele><time>2026-04-01T16:15:55Z</time></trkpt><trkpt lat="45.70868737624065" lon="8.856348168336336"><ele>302.0</ele><time>2026-04-01T16:15:56Z</time></trkpt><trkpt lat="45.70876451514704" lon="8.856356487701984"><ele>302.0</ele><time>2026-04-01T16:15:58Z</time></trkpt><trkpt lat="45.70895152647571" lon="8.856381250963029"><ele>302.33333333333337</ele><time>2026-04-01T16:17:06.998Z</time></trkpt><trkpt lat="45.70900650525236" lon="8.856428535640154"><ele>302.6666666666667</ele><time>2026-04-01T16:17:07.998Z</time></trkpt><trkpt lat="45.70906239423816" lon="8.85647628063669"><ele>303.0</ele><time>2026-04-01T16:17:08.998Z</time></trkpt><trkpt lat="45.70913565251641" lon="8.856509635892966"><ele>303.3333333333333</ele><time>2026-04-01T16:17:09.998Z</time></trkpt><trkpt lat="45.709199650585916" lon="8.85652274434224"><ele>303.66666666666663</ele><time>2026-04-01T16:17:10.998Z</time></trkpt><trkpt lat="45.7093376814641" lon="8.85652406686322"><ele>304.0</ele><time>2026-04-01T16:17:12.998Z</time></trkpt><trkpt lat="45.709404653133326" lon="8.856528550983441"><ele>304.8</ele><time>2026-04-01T16:17:13.998Z</time></trkpt><trkpt lat="45.70953563717803" lon="8.856533438788151"><ele>305.59999999999997</ele><time>2026-04-01T16:17:15.998Z</time></trkpt><trkpt lat="45.70961703291087" lon="8.85656461938607"><ele>306.4</ele><time>2026-04-01T16:17:16.998Z</time></trkpt><trkpt lat="45.70970309062001" lon="8.856581168614564"><ele>307.2</ele><time>2026-04-01T16:17:17.998Z</time></trkpt><trkpt lat="45.70981185384343" lon="8.85662806254712"><ele>308.0</ele><time>2026-04-01T16:17:18.998Z</time></trkpt><trkpt lat="45.709920583635146" lon="8.85666742897447"><ele>308.0</ele><time>2026-04-01T16:17:19.998Z</time></trkpt><trkpt lat="45.71000045007838" lon="8.856667252190924"><ele>308.0</ele><time>2026-04-01T16:17:20.998Z</time></trkpt><trkpt lat="45.710088297657116" lon="8.856670887465803"><ele>308.0</ele><time>2026-04-01T16:17:21.998Z</time></trkpt><trkpt lat="45.71016800989721" lon="8.856707558357499"><ele>308.0</ele><time>2026-04-01T16:17:22.998Z</time></trkpt><trkpt lat="45.71026987865873" lon="8.856713685982651"><ele>308.0</ele><time>2026-04-01T16:17:23.998Z</time></trkpt><trkpt lat="45.7103546577173" lon="8.856725313080602"><ele>308.0</ele><time>2026-04-01T16:17:24.998Z</time></trkpt><trkpt lat="45.71042992942439" lon="8.856718111382815"><ele>308.5</ele><time>2026-04-01T16:17:26Z</time></trkpt><trkpt lat="45.710522376811824" lon="8.856771252222151"><ele>309.0</ele><time>2026-04-01T16:17:27Z</time></trkpt><trkpt lat="45.71062882613966" lon="8.85682812626519"><ele>309.5</ele><time>2026-04-01T16:17:28Z</time></trkpt><trkpt lat="45.710761585944844" lon="8.856929427202655"><ele>310.0</ele><time>2026-04-01T16:17:29Z</time></trkpt><trkpt lat="45.71086371058819" lon="8.856989640047757"><ele>309.16666666666663</ele><time>2026-04-01T16:17:30Z</time></trkpt><trkpt lat="45.71093206573766" lon="8.856998420782231"><ele>308.3333333333333</ele><time>2026-04-01T16:17:31Z</time></trkpt><trkpt lat="45.71098953473455" lon="8.857049099169197"><ele>307.5</ele><time>2026-04-01T16:17:32Z</time></trkpt><trkpt lat="45.711057260997705" lon="8.85717147091689"><ele>306.6666666666667</ele><time>2026-04-01T16:17:34Z</time></trkpt><trkpt lat="45.711083031882666" lon="8.857284597298241"><ele>305.83333333333337</ele><time>2026-04-01T16:17:36Z</time></trkpt><trkpt lat="45.711119557149814" lon="8.857389426516779"><ele>305.0</ele><time>2026-04-01T16:17:39Z</time></trkpt><trkpt lat="45.71115333941881" lon="8.857477351550648"><ele>304.8571428571429</ele><time>2026-04-01T16:17:41Z</time></trkpt><trkpt lat="45.711172371215916" lon="8.857586693684581"><ele>304.71428571428567</ele><time>2026-04-01T16:17:44Z</time></trkpt><trkpt lat="45.71117341726384" lon="8.85767921278182"><ele>304.57142857142856</ele><time>2026-04-01T16:17:45Z</time></trkpt><trkpt lat="45.711182330487205" lon="8.857774990131956"><ele>304.42857142857144</ele><time>2026-04-01T16:17:46Z</time></trkpt><trkpt lat="45.711193257303776" lon="8.857891346729351"><ele>304.28571428571433</ele><time>2026-04-01T16:17:47Z</time></trkpt><trkpt lat="45.711218540396246" lon="8.858000810441013"><ele>304.1428571428571</ele><time>2026-04-01T16:17:48Z</time></trkpt><trkpt lat="45.71122914431963" lon="8.858099543581117"><ele>304.0</ele><time>2026-04-01T16:17:49Z</time></trkpt><trkpt lat="45.711197093853244" lon="8.85825660212933"><ele>303.25</ele><time>2026-04-01T16:17:51Z</time></trkpt><trkpt lat="45.71114991137969" lon="8.85837300547736"><ele>302.5</ele><time>2026-04-01T16:17:53Z</time></trkpt><trkpt lat="45.71101257490557" lon="8.858408755621612"><ele>301.75</ele><time>2026-04-01T16:17:55Z</time></trkpt><trkpt lat="45.710904767739784" lon="8.858424183562235"><ele>301.0</ele><time>2026-04-01T16:17:56Z</time></trkpt><trkpt lat="45.710791903361226" lon="8.858447371258432"><ele>301.2</ele><time>2026-04-01T16:17:57Z</time></trkpt><trkpt lat="45.71067330399501" lon="8.858518481583598"><ele>301.40000000000003</ele><time>2026-04-01T16:17:58Z</time></trkpt><trkpt lat="45.71054677933157" lon="8.85854652720596"><ele>301.6</ele><time>2026-04-01T16:17:59Z</time></trkpt><trkpt lat="45.71044986740206" lon="8.858568008840932"><ele>301.8</ele><time>2026-04-01T16:18:00Z</time></trkpt><trkpt lat="45.710363734486656" lon="8.85858722650123"><ele>302.0</ele><time>2026-04-01T16:18:01Z</time></trkpt><trkpt lat="45.710272039855425" lon="8.858607685258763"><ele>301.4</ele><time>2026-04-01T16:18:02Z</time></trkpt><trkpt lat="45.71016846822265" lon="8.858630794024638"><ele>300.79999999999995</ele><time>2026-04-01T16:18:03Z</time></trkpt><trkpt lat="45.710063802148106" lon="8.85865414697227"><ele>300.2</ele><time>2026-04-01T16:18:04Z</time></trkpt><trkpt lat="45.70996772953088" lon="8.85867558254779"><ele>299.59999999999997</ele><time>2026-04-01T16:18:05Z</time></trkpt><trkpt lat="45.70986610828347" lon="8.858698256133632"><ele>299.0</ele><time>2026-04-01T16:18:06Z</time></trkpt><trkpt lat="45.70976316287685" lon="8.858721225177772"><ele>299.0</ele><time>2026-04-01T16:18:06.999Z</time></trkpt><trkpt lat="45.70965422030134" lon="8.858745512734181"><ele>299.0</ele><time>2026-04-01T16:18:07.999Z</time></trkpt><trkpt lat="45.709546452652745" lon="8.858768659519543"><ele>299.0</ele><time>2026-04-01T16:18:08.999Z</time></trkpt><trkpt lat="45.70945349172664" lon="8.85878862610388"><ele>299.0</ele><time>2026-04-01T16:18:09.999Z</time></trkpt><trkpt lat="45.70936848706575" lon="8.858806883774434"><ele>299.0</ele><time>2026-04-01T16:18:10.999Z</time></trkpt><trkpt lat="45.70927147493473" lon="8.858827720470819"><ele>298.75</ele><time>2026-04-01T16:18:11.999Z</time></trkpt><trkpt lat="45.70915286109756" lon="8.85885334799567"><ele>298.5</ele><time>2026-04-01T16:18:12.999Z</time></trkpt><trkpt lat="45.70901725376975" lon="8.858883702350434"><ele>298.25</ele><time>2026-04-01T16:18:13.999Z</time></trkpt><trkpt lat="45.70887333635718" lon="8.858915916805588"><ele>298.0</ele><time>2026-04-01T16:18:14.999Z</time></trkpt><trkpt lat="45.70872852179812" lon="8.858949206565851"><ele>298.0</ele><time>2026-04-01T16:18:15.999Z</time></trkpt><trkpt lat="45.708608935154956" lon="8.858976916942161"><ele>298.0</ele><time>2026-04-01T16:18:16.999Z</time></trkpt><trkpt lat="45.70849942086918" lon="8.859002293431653"><ele>298.0</ele><time>2026-04-01T16:18:17.999Z</time></trkpt><trkpt lat="45.70839077285009" lon="8.859027469180415"><ele>298.0</ele><time>2026-04-01T16:18:18.999Z</time></trkpt><trkpt lat="45.708225891156914" lon="8.858809290287542"><ele>297.8</ele><time>2026-04-01T16:18:19.999Z</time></trkpt><trkpt lat="45.70816067053269" lon="8.858826644755904"><ele>297.6</ele><time>2026-04-01T16:18:20.999Z</time></trkpt><trkpt lat="45.70808956087307" lon="8.858839294777477"><ele>297.4</ele><time>2026-04-01T16:18:21.999Z</time></trkpt><trkpt lat="45.707964410685925" lon="8.858943042541913"><ele>297.2</ele><time>2026-04-01T16:18:23.999Z</time></trkpt><trkpt lat="45.70790125520439" lon="8.859040637988667"><ele>297.0</ele><time>2026-04-01T16:18:24.999Z</time></trkpt><trkpt lat="45.70785067435651" lon="8.859131838204549"><ele>296.6666666666667</ele><time>2026-04-01T16:18:25.999Z</time></trkpt><trkpt lat="45.7075679350452" lon="8.858905574119659"><ele>296.33333333333337</ele><time>2026-04-01T16:18:26.999Z</time></trkpt><trkpt lat="45.70744380491586" lon="8.858921552725054"><ele>296.0</ele><time>2026-04-01T16:18:27.999Z</time></trkpt><trkpt lat="45.707307007708046" lon="8.858933384050397"><ele>296.0</ele><time>2026-04-01T16:18:28.999Z</time></trkpt><trkpt lat="45.70717617713996" lon="8.858946851027845"><ele>296.0</ele><time>2026-04-01T16:18:29.999Z</time></trkpt><trkpt lat="45.70706377825061" lon="8.858960822725727"><ele>296.0</ele><time>2026-04-01T16:18:30.999Z</time></trkpt><trkpt lat="45.7069641535451" lon="8.858971897321958"><ele>296.0</ele><time>2026-04-01T16:18:31.999Z</time></trkpt><trkpt lat="45.70687460756752" lon="8.858981407544276"><ele>296.0</ele><time>2026-04-01T16:18:32.999Z</time></trkpt><trkpt lat="45.706767368591855" lon="8.858992474328057"><ele>296.40000000000003</ele><time>2026-04-01T16:18:33.999Z</time></trkpt><trkpt lat="45.70665370589351" lon="8.859003903368848"><ele>296.8</ele><time>2026-04-01T16:18:34.999Z</time></trkpt><trkpt lat="45.70655275804402" lon="8.859010571249796"><ele>297.20000000000005</ele><time>2026-04-01T16:18:35.999Z</time></trkpt><trkpt lat="45.706461424928314" lon="8.859010550958685"><ele>297.6</ele><time>2026-04-01T16:18:36.999Z</time></trkpt><trkpt lat="45.70637389073549" lon="8.85900394303222"><ele>298.0</ele><time>2026-04-01T16:18:37.999Z</time></trkpt><trkpt lat="45.70625667497333" lon="8.859004176223936"><ele>298.0</ele><time>2026-04-01T16:18:38.999Z</time></trkpt><trkpt lat="45.70610414240195" lon="8.85901012509794"><ele>298.0</ele><time>2026-04-01T16:18:39.999Z</time></trkpt><trkpt lat="45.705967187065006" lon="8.859000056785268"><ele>298.0</ele><time>2026-04-01T16:18:40.999Z</time></trkpt><trkpt lat="45.7058379205972" lon="8.858992684138784"><ele>298.0</ele><time>2026-04-01T16:18:41.999Z</time></trkpt><trkpt lat="45.705712467424426" lon="8.858985665307303"><ele>297.75</ele><time>2026-04-01T16:18:42.999Z</time></trkpt><trkpt lat="45.70559391530127" lon="8.858986994140524"><ele>297.5</ele><time>2026-04-01T16:18:43.999Z</time></trkpt><trkpt lat="45.70547129998963" lon="8.859000286077636"><ele>297.25</ele><time>2026-04-01T16:18:44.999Z</time></trkpt><trkpt lat="45.70534208280669" lon="8.859015555172805"><ele>297.0</ele><time>2026-04-01T16:18:45.999Z</time></trkpt><trkpt lat="45.705209875044474" lon="8.85903574723138"><ele>297.0</ele><time>2026-04-01T16:18:46.999Z</time></trkpt><trkpt lat="45.70509497688153" lon="8.85905035550371"><ele>297.0</ele><time>2026-04-01T16:18:47.999Z</time></trkpt><trkpt lat="45.704975332925294" lon="8.859080394359209"><ele>297.0</ele><time>2026-04-01T16:18:48.999Z</time></trkpt><trkpt lat="45.70484285214708" lon="8.859105352699103"><ele>297.0</ele><time>2026-04-01T16:18:49.999Z</time></trkpt><trkpt lat="45.70471960084518" lon="8.859121871057605"><ele>297.0</ele><time>2026-04-01T16:18:50.999Z</time></trkpt><trkpt lat="45.70459308150283" lon="8.859132763199865"><ele>297.0</ele><time>2026-04-01T16:18:51.999Z</time></trkpt><trkpt lat="45.7044591836878" lon="8.85914613609755"><ele>297.0</ele><time>2026-04-01T16:18:52.999Z</time></trkpt><trkpt lat="45.70430429843416" lon="8.859169841930191"><ele>297.0</ele><time>2026-04-01T16:18:53.999Z</time></trkpt><trkpt lat="45.70415635620523" lon="8.859193830754325"><ele>296.25</ele><time>2026-04-01T16:18:54.999Z</time></trkpt><trkpt lat="45.704029306360276" lon="8.859211832995072"><ele>295.5</ele><time>2026-04-01T16:18:55.999Z</time></trkpt><trkpt lat="45.703897958177" lon="8.859225906247174"><ele>294.75</ele><time>2026-04-01T16:18:56.999Z</time></trkpt><trkpt lat="45.703778454005466" lon="8.859238369765166"><ele>294.0</ele><time>2026-04-01T16:18:57.999Z</time></trkpt><trkpt lat="45.70367074389552" lon="8.859236790894473"><ele>294.3333333333333</ele><time>2026-04-01T16:18:58.999Z</time></trkpt><trkpt lat="45.70357447612681" lon="8.859222856022235"><ele>294.6666666666667</ele><time>2026-04-01T16:18:59.999Z</time></trkpt><trkpt lat="45.7034874524964" lon="8.859187388730495"><ele>295.0</ele><time>2026-04-01T16:19:00.999Z</time></trkpt><trkpt lat="45.70342236847323" lon="8.859166285114394"><ele>295.33333333333337</ele><time>2026-04-01T16:19:01.999Z</time></trkpt><trkpt lat="45.70332475629465" lon="8.859161127236888"><ele>295.6666666666667</ele><time>2026-04-01T16:19:03.999Z</time></trkpt><trkpt lat="45.70325784344727" lon="8.859143944681978"><ele>296.0</ele><time>2026-04-01T16:19:05.998Z</time></trkpt><trkpt lat="45.70320126020505" lon="8.859239819323909"><ele>295.83333333333337</ele><time>2026-04-01T16:19:08.998Z</time></trkpt><trkpt lat="45.70321285637817" lon="8.859333397705178"><ele>295.6666666666667</ele><time>2026-04-01T16:19:09.998Z</time></trkpt><trkpt lat="45.70324657364153" lon="8.859458694207367"><ele>295.5</ele><time>2026-04-01T16:19:10.998Z</time></trkpt><trkpt lat="45.70327231097233" lon="8.859588815170872"><ele>295.3333333333333</ele><time>2026-04-01T16:19:11.998Z</time></trkpt><trkpt lat="45.70328498644428" lon="8.85969363488966"><ele>295.16666666666663</ele><time>2026-04-01T16:19:12.998Z</time></trkpt><trkpt lat="45.7032902735139" lon="8.85978965505283"><ele>295.0</ele><time>2026-04-01T16:19:13.998Z</time></trkpt><trkpt lat="45.70330307158165" lon="8.859894754137406"><ele>295.0</ele><time>2026-04-01T16:19:14.998Z</time></trkpt><trkpt lat="45.7033133970396" lon="8.860063911525668"><ele>295.0</ele><time>2026-04-01T16:19:16.998Z</time></trkpt><trkpt lat="45.703319457897834" lon="8.8601688699299"><ele>295.0</ele><time>2026-04-01T16:19:17.998Z</time></trkpt><trkpt lat="45.70333358973932" lon="8.860287148905597"><ele>295.0</ele><time>2026-04-01T16:19:18.998Z</time></trkpt><trkpt lat="45.70334876768083" lon="8.860428690962864"><ele>295.0</ele><time>2026-04-01T16:19:19.998Z</time></trkpt><trkpt lat="45.70335488268354" lon="8.860584171239154"><ele>295.5</ele><time>2026-04-01T16:19:20.998Z</time></trkpt><trkpt lat="45.70337126882878" lon="8.860743096919837"><ele>296.0</ele><time>2026-04-01T16:19:21.998Z</time></trkpt><trkpt lat="45.70338444129072" lon="8.860914327102693"><ele>296.5</ele><time>2026-04-01T16:19:22.998Z</time></trkpt><trkpt lat="45.70339766658846" lon="8.861096541687445"><ele>297.0</ele><time>2026-04-01T16:19:23.998Z</time></trkpt><trkpt lat="45.7034128782446" lon="8.861288426788281"><ele>297.0</ele><time>2026-04-01T16:19:24.998Z</time></trkpt><trkpt lat="45.70343087662063" lon="8.861493766896196"><ele>297.0</ele><time>2026-04-01T16:19:25.998Z</time></trkpt><trkpt lat="45.70345419797604" lon="8.861712056795428"><ele>297.0</ele><time>2026-04-01T16:19:26.998Z</time></trkpt><trkpt lat="45.703473924644655" lon="8.861939141948026"><ele>296.6666666666667</ele><time>2026-04-01T16:19:27.998Z</time></trkpt><trkpt lat="45.70349072957101" lon="8.862192886940361"><ele>296.33333333333337</ele><time>2026-04-01T16:19:28.998Z</time></trkpt><trkpt lat="45.703508504183446" lon="8.862430068935781"><ele>296.0</ele><time>2026-04-01T16:19:29.998Z</time></trkpt><trkpt lat="45.70352346167903" lon="8.862617281313792"><ele>296.0</ele><time>2026-04-01T16:19:30.998Z</time></trkpt><trkpt lat="45.70353821997146" lon="8.862763607547718"><ele>296.0</ele><time>2026-04-01T16:19:32Z</time></trkpt><trkpt lat="45.70354890978896" lon="8.862876303401073"><ele>296.0</ele><time>2026-04-01T16:19:33Z</time></trkpt><trkpt lat="45.70355819977414" lon="8.863003433396814"><ele>296.0</ele><time>2026-04-01T16:19:35Z</time></trkpt><trkpt lat="45.70361106442457" lon="8.86309522322716"><ele>296.0</ele><time>2026-04-01T16:19:42Z</time></trkpt><trkpt lat="45.70368588142739" lon="8.86311524953084"><ele>296.0</ele><time>2026-04-01T16:19:43Z</time></trkpt><trkpt lat="45.70379789374033" lon="8.863080456867058"><ele>296.0</ele><time>2026-04-01T16:19:44Z</time></trkpt><trkpt lat="45.70390122089039" lon="8.86307301142867"><ele>296.0</ele><time>2026-04-01T16:19:45Z</time></trkpt><trkpt lat="45.70402042757307" lon="8.863065984358801"><ele>296.0</ele><time>2026-04-01T16:19:46Z</time></trkpt><trkpt lat="45.70412667392081" lon="8.86305590903924"><ele>296.0</ele><time>2026-04-01T16:19:47Z</time></trkpt><trkpt lat="45.70419625390103" lon="8.863051426048033"><ele>296.0</ele><time>2026-04-01T16:19:48Z</time></trkpt><trkpt lat="45.704264138399104" lon="8.863103404353161"><ele>296.0</ele><time>2026-04-01T16:19:50Z</time></trkpt><trkpt lat="45.7042678448344" lon="8.863396976239933"><ele>296.0</ele><time>2026-04-01T16:19:52Z</time></trkpt><trkpt lat="45.70427225967565" lon="8.863584438534682"><ele>296.0</ele><time>2026-04-01T16:19:53Z</time></trkpt><trkpt lat="45.70428633112986" lon="8.863761179501925"><ele>296.0</ele><time>2026-04-01T16:19:54Z</time></trkpt><trkpt lat="45.70429852899478" lon="8.863923518482684"><ele>296.0</ele><time>2026-04-01T16:19:55Z</time></trkpt><trkpt lat="45.70431208304924" lon="8.864115412615716"><ele>296.0</ele><time>2026-04-01T16:19:56Z</time></trkpt><trkpt lat="45.70432711588702" lon="8.864310336907913"><ele>296.0</ele><time>2026-04-01T16:19:57Z</time></trkpt><trkpt lat="45.704343041241664" lon="8.864514894364714"><ele>295.8</ele><time>2026-04-01T16:19:58Z</time></trkpt><trkpt lat="45.7043595574798" lon="8.864726104619841"><ele>295.6</ele><time>2026-04-01T16:19:59Z</time></trkpt><trkpt lat="45.70437298632092" lon="8.864904973472479"><ele>295.4</ele><time>2026-04-01T16:20:00Z</time></trkpt><trkpt lat="45.70438641478" lon="8.865039449941326"><ele>295.2</ele><time>2026-04-01T16:20:01Z</time></trkpt><trkpt lat="45.70438882313275" lon="8.86514050103038"><ele>295.0</ele><time>2026-04-01T16:20:02Z</time></trkpt><trkpt lat="45.704276789833024" lon="8.865220885116653"><ele>295.0</ele><time>2026-04-01T16:20:05Z</time></trkpt><trkpt lat="45.70416854390555" lon="8.865244242893434"><ele>295.0</ele><time>2026-04-01T16:20:06Z</time></trkpt><trkpt lat="45.70406924231398" lon="8.865252325653474"><ele>295.0</ele><time>2026-04-01T16:20:07Z</time></trkpt><trkpt lat="45.70397900285722" lon="8.865198021438221"><ele>295.0</ele><time>2026-04-01T16:20:08Z</time></trkpt><trkpt lat="45.70387772172799" lon="8.865226796443933"><ele>295.0</ele><time>2026-04-01T16:20:09Z</time></trkpt><trkpt lat="45.70377483327038" lon="8.865255781913065"><ele>295.0</ele><time>2026-04-01T16:20:10Z</time></trkpt><trkpt lat="45.703694558526564" lon="8.865301865119413"><ele>295.0</ele><time>2026-04-01T16:20:11Z</time></trkpt><trkpt lat="45.70360867048263" lon="8.865297713137378"><ele>295.0</ele><time>2026-04-01T16:20:12Z</time></trkpt><trkpt lat="45.70350684881367" lon="8.865313395658964"><ele>295.0</ele><time>2026-04-01T16:20:13Z</time></trkpt><trkpt lat="45.70340186200708" lon="8.865321914598853"><ele>295.0</ele><time>2026-04-01T16:20:14Z</time></trkpt><trkpt lat="45.703317902137435" lon="8.86532609527461"><ele>295.0</ele><time>2026-04-01T16:20:15Z</time></trkpt><trkpt lat="45.703246479138535" lon="8.865353963989348"><ele>295.0</ele><time>2026-04-01T16:20:15.999Z</time></trkpt><trkpt lat="45.70316056591146" lon="8.865357544932342"><ele>295.0</ele><time>2026-04-01T16:20:16.999Z</time></trkpt><trkpt lat="45.703060757303795" lon="8.865353153930778"><ele>295.0</ele><time>2026-04-01T16:20:17.999Z</time></trkpt><trkpt lat="45.70294677742782" lon="8.86533326438978"><ele>295.0</ele><time>2026-04-01T16:20:18.999Z</time></trkpt><trkpt lat="45.702841109489135" lon="8.865322934581869"><ele>295.00000000000006</ele><time>2026-04-01T16:20:19.999Z</time></trkpt><trkpt lat="45.702753936521574" lon="8.865315805923705"><ele>295.0</ele><time>2026-04-01T16:20:20.999Z</time></trkpt><trkpt lat="45.70268310379519" lon="8.865315715134457"><ele>295.0</ele><time>2026-04-01T16:20:21.999Z</time></trkpt><trkpt lat="45.70261773144459" lon="8.865321773325038"><ele>295.0</ele><time>2026-04-01T16:20:22.999Z</time></trkpt><trkpt lat="45.7025388563676" lon="8.865332787436655"><ele>295.0</ele><time>2026-04-01T16:20:23.999Z</time></trkpt><trkpt lat="45.70246092729127" lon="8.865323884354043"><ele>295.00000000000006</ele><time>2026-04-01T16:20:24.999Z</time></trkpt><trkpt lat="45.702406876059065" lon="8.865277413226572"><ele>295.0</ele><time>2026-04-01T16:20:25.999Z</time></trkpt><trkpt lat="45.70236242868726" lon="8.865200813308128"><ele>294.66666666666663</ele><time>2026-04-01T16:20:26.999Z</time></trkpt><trkpt lat="45.702314687036534" lon="8.865133633673148"><ele>294.3333333333333</ele><time>2026-04-01T16:20:27.999Z</time></trkpt><trkpt lat="45.70223817859254" lon="8.865080909070427"><ele>294.0</ele><time>2026-04-01T16:20:29.999Z</time></trkpt><trkpt lat="45.70224361030994" lon="8.864932758366038"><ele>293.6666666666667</ele><time>2026-04-01T16:20:31.999Z</time></trkpt><trkpt lat="45.7021653845514" lon="8.864883602134277"><ele>293.33333333333337</ele><time>2026-04-01T16:20:33.999Z</time></trkpt><trkpt lat="45.702102195607196" lon="8.864899984929995"><ele>293.0</ele><time>2026-04-01T16:20:34.999Z</time></trkpt><trkpt lat="45.702011497390274" lon="8.86493273740832"><ele>293.6666666666667</ele><time>2026-04-01T16:20:35.999Z</time></trkpt><trkpt lat="45.701926549535" lon="8.864921461231052"><ele>294.33333333333337</ele><time>2026-04-01T16:20:36.999Z</time></trkpt><trkpt lat="45.70186591059695" lon="8.864893790800554"><ele>295.0</ele><time>2026-04-01T16:20:37.999Z</time></trkpt><trkpt lat="45.701778071449056" lon="8.864798404133854"><ele>295.6666666666667</ele><time>2026-04-01T16:20:39.999Z</time></trkpt><trkpt lat="45.701706334438455" lon="8.864739522681644"><ele>296.3333333333333</ele><time>2026-04-01T16:20:40.999Z</time></trkpt><trkpt lat="45.70165318462535" lon="8.864675867953565"><ele>297.0</ele><time>2026-04-01T16:20:41.999Z</time></trkpt><trkpt lat="45.70161986773638" lon="8.864489073626297"><ele>297.0</ele><time>2026-04-01T16:20:43.999Z</time></trkpt><trkpt lat="45.70161759891428" lon="8.864379897348273"><ele>297.0</ele><time>2026-04-01T16:20:44.999Z</time></trkpt><trkpt lat="45.70152079030747" lon="8.864343039756916"><ele>297.0</ele><time>2026-04-01T16:20:46.999Z</time></trkpt><trkpt lat="45.701428391282334" lon="8.864389682805761"><ele>297.0</ele><time>2026-04-01T16:20:47.999Z</time></trkpt><trkpt lat="45.70134654910218" lon="8.864480240850172"><ele>297.0</ele><time>2026-04-01T16:20:48.999Z</time></trkpt><trkpt lat="45.701268921406296" lon="8.864511272592768"><ele>297.0</ele><time>2026-04-01T16:20:49.999Z</time></trkpt><trkpt lat="45.701197791576185" lon="8.86451658742824"><ele>297.0</ele><time>2026-04-01T16:20:50.999Z</time></trkpt><trkpt lat="45.70112302094133" lon="8.864502639964954"><ele>297.0</ele><time>2026-04-01T16:20:52.999Z</time></trkpt><trkpt lat="45.70112852800689" lon="8.864592616790102"><ele>297.0</ele><time>2026-04-01T16:20:54.999Z</time></trkpt><trkpt lat="45.70122618723432" lon="8.864730032980816"><ele>297.0</ele><time>2026-04-01T16:20:56.999Z</time></trkpt><trkpt lat="45.7013019108835" lon="8.864854879651784"><ele>297.0</ele><time>2026-04-01T16:20:57.999Z</time></trkpt><trkpt lat="45.701374467379466" lon="8.86495732516384"><ele>297.0</ele><time>2026-04-01T16:20:58.999Z</time></trkpt><trkpt lat="45.70142047370037" lon="8.86506624033776"><ele>297.0</ele><time>2026-04-01T16:20:59.999Z</time></trkpt><trkpt lat="45.70146876297564" lon="8.865196431853054"><ele>297.0</ele><time>2026-04-01T16:21:00.999Z</time></trkpt><trkpt lat="45.701524142990685" lon="8.865293797160177"><ele>297.0</ele><time>2026-04-01T16:21:01.999Z</time></trkpt><trkpt lat="45.70155476851592" lon="8.865378190364419"><ele>297.0</ele><time>2026-04-01T16:21:02.999Z</time></trkpt><trkpt lat="45.70159755986873" lon="8.865549910375519"><ele>296.0</ele><time>2026-04-01T16:21:04.999Z</time></trkpt><trkpt lat="45.70161843258803" lon="8.865667574155278"><ele>295.0</ele><time>2026-04-01T16:21:05.999Z</time></trkpt><trkpt lat="45.70164672496025" lon="8.865780184103317"><ele>294.0</ele><time>2026-04-01T16:21:06.999Z</time></trkpt><trkpt lat="45.70167446229105" lon="8.865896432772404"><ele>293.0</ele><time>2026-04-01T16:21:07.999Z</time></trkpt><trkpt lat="45.70167719324627" lon="8.866004554080087"><ele>292.0</ele><time>2026-04-01T16:21:08.999Z</time></trkpt><trkpt lat="45.70168367462562" lon="8.866112979324031"><ele>291.0</ele><time>2026-04-01T16:21:09.999Z</time></trkpt><trkpt lat="45.701736547238866" lon="8.866248582976432"><ele>290.6</ele><time>2026-04-01T16:21:11.999Z</time></trkpt><trkpt lat="45.701756921526105" lon="8.866339133498105"><ele>290.20000000000005</ele><time>2026-04-01T16:21:12.999Z</time></trkpt><trkpt lat="45.70174218294143" lon="8.866442792322443"><ele>289.79999999999995</ele><time>2026-04-01T16:21:13.998Z</time></trkpt><trkpt lat="45.70173574461913" lon="8.866631847023354"><ele>289.4</ele><time>2026-04-01T16:21:15.998Z</time></trkpt><trkpt lat="45.701708387240515" lon="8.866725030662657"><ele>289.0</ele><time>2026-04-01T16:21:17.998Z</time></trkpt><trkpt lat="45.70157423424206" lon="8.86677789431119"><ele>288.8</ele><time>2026-04-01T16:21:19.998Z</time></trkpt><trkpt lat="45.701475091719196" lon="8.866803481241275"><ele>288.59999999999997</ele><time>2026-04-01T16:21:20.998Z</time></trkpt><trkpt lat="45.701380222368016" lon="8.866840476907678"><ele>288.4</ele><time>2026-04-01T16:21:21.998Z</time></trkpt><trkpt lat="45.7012980899783" lon="8.866859342579893"><ele>288.2</ele><time>2026-04-01T16:21:22.998Z</time></trkpt><trkpt lat="45.70120776864811" lon="8.866885035984607"><ele>288.0</ele><time>2026-04-01T16:21:23.998Z</time></trkpt><trkpt lat="45.70110607102667" lon="8.866911105081847"><ele>287.6</ele><time>2026-04-01T16:21:24.998Z</time></trkpt><trkpt lat="45.701003860463175" lon="8.866933437494193"><ele>287.20000000000005</ele><time>2026-04-01T16:21:25.998Z</time></trkpt><trkpt lat="45.70088519534698" lon="8.866969884005629"><ele>286.8</ele><time>2026-04-01T16:21:26.998Z</time></trkpt><trkpt lat="45.700804527796485" lon="8.86700006696428"><ele>286.40000000000003</ele><time>2026-04-01T16:21:27.998Z</time></trkpt><trkpt lat="45.70072896678873" lon="8.867019400612426"><ele>286.0</ele><time>2026-04-01T16:21:28.998Z</time></trkpt><trkpt lat="45.70066264358947" lon="8.867057663030364"><ele>286.0</ele><time>2026-04-01T16:21:29.998Z</time></trkpt><trkpt lat="45.70059300890681" lon="8.86710646734824"><ele>286.0</ele><time>2026-04-01T16:21:30.998Z</time></trkpt><trkpt lat="45.7005364921632" lon="8.86718309454789"><ele>286.0</ele><time>2026-04-01T16:21:31.998Z</time></trkpt><trkpt lat="45.70045830861625" lon="8.867270337937168"><ele>286.0</ele><time>2026-04-01T16:21:32.998Z</time></trkpt><trkpt lat="45.70037138904011" lon="8.867358169161788"><ele>286.0</ele><time>2026-04-01T16:21:33.998Z</time></trkpt><trkpt lat="45.700298130394984" lon="8.867420887347635"><ele>286.0</ele><time>2026-04-01T16:21:34.998Z</time></trkpt><trkpt lat="45.70022509230974" lon="8.867458004814567"><ele>285.8333333333333</ele><time>2026-04-01T16:21:35.998Z</time></trkpt><trkpt lat="45.70014798589798" lon="8.867519783287644"><ele>285.66666666666663</ele><time>2026-04-01T16:21:36.998Z</time></trkpt><trkpt lat="45.7000750849975" lon="8.867568330667659"><ele>285.5</ele><time>2026-04-01T16:21:38Z</time></trkpt><trkpt lat="45.700019572267315" lon="8.867626366561602"><ele>285.3333333333333</ele><time>2026-04-01T16:21:39Z</time></trkpt><trkpt lat="45.699976844578615" lon="8.867707159479924"><ele>285.1666666666667</ele><time>2026-04-01T16:21:40Z</time></trkpt><trkpt lat="45.69992226675751" lon="8.86781667054107"><ele>285.0</ele><time>2026-04-01T16:21:41Z</time></trkpt><trkpt lat="45.6998691408734" lon="8.867941698908066"><ele>284.8</ele><time>2026-04-01T16:21:42Z</time></trkpt><trkpt lat="45.699804089792764" lon="8.868057207250597"><ele>284.6</ele><time>2026-04-01T16:21:43Z</time></trkpt><trkpt lat="45.69973948138277" lon="8.86816863635871"><ele>284.4</ele><time>2026-04-01T16:21:44Z</time></trkpt><trkpt lat="45.69966730501459" lon="8.86828052992183"><ele>284.2</ele><time>2026-04-01T16:21:45Z</time></trkpt><trkpt lat="45.699595668811575" lon="8.868394965006415"><ele>284.0</ele><time>2026-04-01T16:21:46Z</time></trkpt><trkpt lat="45.69953733393275" lon="8.868491871818582"><ele>284.0</ele><time>2026-04-01T16:21:47Z</time></trkpt><trkpt lat="45.699481036902405" lon="8.86858943067551"><ele>284.0</ele><time>2026-04-01T16:21:48Z</time></trkpt><trkpt lat="45.699418269720475" lon="8.868678647354033"><ele>284.0</ele><time>2026-04-01T16:21:49Z</time></trkpt><trkpt lat="45.6993378963739" lon="8.868746138303441"><ele>284.0</ele><time>2026-04-01T16:21:50Z</time></trkpt><trkpt lat="45.699246638341506" lon="8.868846486823138"><ele>284.0</ele><time>2026-04-01T16:21:51Z</time></trkpt><trkpt lat="45.699177024184806" lon="8.868916606746774"><ele>284.33333333333337</ele><time>2026-04-01T16:21:52Z</time></trkpt><trkpt lat="45.69910361447759" lon="8.868976175509221"><ele>284.6666666666667</ele><time>2026-04-01T16:21:53Z</time></trkpt><trkpt lat="45.69905014335974" lon="8.869024940022074"><ele>285.0</ele><time>2026-04-01T16:21:54Z</time></trkpt><trkpt lat="45.69901967695826" lon="8.86910681328342"><ele>285.3333333333333</ele><time>2026-04-01T16:21:55Z</time></trkpt><trkpt lat="45.6989895239096" lon="8.869237557690472"><ele>285.66666666666663</ele><time>2026-04-01T16:21:56Z</time></trkpt><trkpt lat="45.6989587034746" lon="8.869392076383496"><ele>286.0</ele><time>2026-04-01T16:21:57Z</time></trkpt><trkpt lat="45.698946501491825" lon="8.869491769102694"><ele>285.3333333333333</ele><time>2026-04-01T16:21:58Z</time></trkpt><trkpt lat="45.69890253414078" lon="8.869564942714664"><ele>284.66666666666663</ele><time>2026-04-01T16:22:00Z</time></trkpt><trkpt lat="45.69886109407168" lon="8.869662783106346"><ele>284.0</ele><time>2026-04-01T16:22:02Z</time></trkpt><trkpt lat="45.69882119479759" lon="8.869839796114473"><ele>283.3333333333333</ele><time>2026-04-01T16:22:04Z</time></trkpt><trkpt lat="45.69882253772701" lon="8.869949395057152"><ele>282.6666666666667</ele><time>2026-04-01T16:22:05Z</time></trkpt><trkpt lat="45.69882935068136" lon="8.870051431959865"><ele>282.0</ele><time>2026-04-01T16:22:06Z</time></trkpt><trkpt lat="45.69883110393312" lon="8.870196025521478"><ele>281.1666666666667</ele><time>2026-04-01T16:22:08Z</time></trkpt><trkpt lat="45.69877892228581" lon="8.870314382205375"><ele>280.3333333333333</ele><time>2026-04-01T16:22:10Z</time></trkpt><trkpt lat="45.69867811985962" lon="8.870376945481167"><ele>279.5</ele><time>2026-04-01T16:22:12Z</time></trkpt><trkpt lat="45.698612824251086" lon="8.870419371591446"><ele>278.66666666666663</ele><time>2026-04-01T16:22:13Z</time></trkpt><trkpt lat="45.69854112927729" lon="8.870458452796726"><ele>277.8333333333333</ele><time>2026-04-01T16:22:14Z</time></trkpt><trkpt lat="45.69847114183818" lon="8.870446694143673"><ele>277.0</ele><time>2026-04-01T16:22:15Z</time></trkpt><trkpt lat="45.69839746253906" lon="8.87048214425434"><ele>277.0</ele><time>2026-04-01T16:22:16Z</time></trkpt><trkpt lat="45.69831487193885" lon="8.870520427506007"><ele>277.0</ele><time>2026-04-01T16:22:17Z</time></trkpt><trkpt lat="45.69822288742507" lon="8.870562965458564"><ele>277.0</ele><time>2026-04-01T16:22:18Z</time></trkpt><trkpt lat="45.698135063273114" lon="8.87062877158493"><ele>277.0</ele><time>2026-04-01T16:22:19Z</time></trkpt><trkpt lat="45.69802855577914" lon="8.870653564711292"><ele>277.0</ele><time>2026-04-01T16:22:20Z</time></trkpt><trkpt lat="45.69793251029076" lon="8.870721099629352"><ele>277.0</ele><time>2026-04-01T16:22:20.999Z</time></trkpt><trkpt lat="45.697822783565776" lon="8.870771815606062"><ele>277.0</ele><time>2026-04-01T16:22:21.999Z</time></trkpt><trkpt lat="45.697707464986195" lon="8.870821492240962"><ele>277.0</ele><time>2026-04-01T16:22:22.999Z</time></trkpt><trkpt lat="45.6975825895316" lon="8.870868970976781"><ele>277.0</ele><time>2026-04-01T16:22:23.999Z</time></trkpt><trkpt lat="45.69745788781098" lon="8.870923692139936"><ele>276.8</ele><time>2026-04-01T16:22:24.999Z</time></trkpt><trkpt lat="45.69735099265387" lon="8.87097433007842"><ele>276.6</ele><time>2026-04-01T16:22:25.999Z</time></trkpt><trkpt lat="45.69724543853514" lon="8.871005149580384"><ele>276.40000000000003</ele><time>2026-04-01T16:22:26.999Z</time></trkpt><trkpt lat="45.697152494624326" lon="8.871052834635798"><ele>276.2</ele><time>2026-04-01T16:22:27.999Z</time></trkpt><trkpt lat="45.697072215474044" lon="8.871080305605163"><ele>276.0</ele><time>2026-04-01T16:22:28.999Z</time></trkpt><trkpt lat="45.696995595115084" lon="8.871117643470601"><ele>276.0</ele><time>2026-04-01T16:22:29.999Z</time></trkpt><trkpt lat="45.696919401529705" lon="8.871145035061412"><ele>276.0</ele><time>2026-04-01T16:22:30.999Z</time></trkpt><trkpt lat="45.69684937569275" lon="8.87115452327197"><ele>276.0</ele><time>2026-04-01T16:22:31.999Z</time></trkpt><trkpt lat="45.696759518721684" lon="8.87113441632966"><ele>276.0</ele><time>2026-04-01T16:22:32.999Z</time></trkpt><trkpt lat="45.69667781835832" lon="8.871105493668392"><ele>276.0</ele><time>2026-04-01T16:22:33.999Z</time></trkpt><trkpt lat="45.69661122744095" lon="8.871080395285706"><ele>276.0</ele><time>2026-04-01T16:22:34.999Z</time></trkpt><trkpt lat="45.69654646237714" lon="8.871058185611531"><ele>276.1666666666667</ele><time>2026-04-01T16:22:35.999Z</time></trkpt><trkpt lat="45.696418630113136" lon="8.87100659990994"><ele>276.3333333333333</ele><time>2026-04-01T16:22:37.999Z</time></trkpt><trkpt lat="45.69635816956772" lon="8.870960152675181"><ele>276.5</ele><time>2026-04-01T16:22:38.999Z</time></trkpt><trkpt lat="45.69628714751615" lon="8.870902672217534"><ele>276.66666666666663</ele><time>2026-04-01T16:22:39.999Z</time></trkpt><trkpt lat="45.696229137236166" lon="8.870828651666173"><ele>276.8333333333333</ele><time>2026-04-01T16:22:40.999Z</time></trkpt><trkpt lat="45.6961669666467" lon="8.870768080018092"><ele>277.0</ele><time>2026-04-01T16:22:41.999Z</time></trkpt><trkpt lat="45.69611045687057" lon="8.87071922743846"><ele>277.8333333333333</ele><time>2026-04-01T16:22:42.999Z</time></trkpt><trkpt lat="45.69604870476817" lon="8.870673678474283"><ele>278.66666666666663</ele><time>2026-04-01T16:22:43.999Z</time></trkpt><trkpt lat="45.695989744498775" lon="8.870602946812092"><ele>279.5</ele><time>2026-04-01T16:22:44.999Z</time></trkpt><trkpt lat="45.695927688060316" lon="8.87053740608926"><ele>280.3333333333333</ele><time>2026-04-01T16:22:45.999Z</time></trkpt><trkpt lat="45.69587403986701" lon="8.870478658896088"><ele>281.1666666666667</ele><time>2026-04-01T16:22:46.999Z</time></trkpt><trkpt lat="45.69580626672442" lon="8.87038961076587"><ele>282.0</ele><time>2026-04-01T16:22:48.999Z</time></trkpt><trkpt lat="45.69571033010895" lon="8.870412770457614"><ele>282.0</ele><time>2026-04-01T16:22:49.999Z</time></trkpt><trkpt lat="45.695646483384664" lon="8.870426067410687"><ele>282.0</ele><time>2026-04-01T16:22:50.999Z</time></trkpt><trkpt lat="45.695573318585495" lon="8.870441304981698"><ele>282.0</ele><time>2026-04-01T16:22:51.999Z</time></trkpt><trkpt lat="45.695491924169076" lon="8.870458256481793"><ele>282.0</ele><time>2026-04-01T16:22:52.999Z</time></trkpt><trkpt lat="45.69540405818945" lon="8.870476555774111"><ele>282.0</ele><time>2026-04-01T16:22:53.999Z</time></trkpt><trkpt lat="45.69530742292705" lon="8.870496399911701"><ele>282.0</ele><time>2026-04-01T16:22:54.999Z</time></trkpt><trkpt lat="45.695204600224784" lon="8.870517176964675"><ele>281.5</ele><time>2026-04-01T16:22:55.999Z</time></trkpt><trkpt lat="45.695094536178914" lon="8.87053970237172"><ele>281.0</ele><time>2026-04-01T16:22:56.999Z</time></trkpt><trkpt lat="45.69497965557717" lon="8.870563165232342"><ele>280.5</ele><time>2026-04-01T16:22:57.999Z</time></trkpt><trkpt lat="45.69485663336106" lon="8.870588290912773"><ele>280.0</ele><time>2026-04-01T16:22:58.999Z</time></trkpt><trkpt lat="45.69473024752902" lon="8.87061344429638"><ele>280.0</ele><time>2026-04-01T16:22:59.999Z</time></trkpt><trkpt lat="45.69461166791182" lon="8.870618244274215"><ele>280.0</ele><time>2026-04-01T16:23:00.999Z</time></trkpt><trkpt lat="45.6944963540095" lon="8.870651416773113"><ele>280.0</ele><time>2026-04-01T16:23:01.999Z</time></trkpt><trkpt lat="45.69437466135165" lon="8.870681910355888"><ele>280.0</ele><time>2026-04-01T16:23:02.999Z</time></trkpt><trkpt lat="45.694247622676905" lon="8.870714818352297"><ele>279.75</ele><time>2026-04-01T16:23:03.999Z</time></trkpt><trkpt lat="45.69411084613419" lon="8.870750248861135"><ele>279.5</ele><time>2026-04-01T16:23:04.999Z</time></trkpt><trkpt lat="45.69397432533699" lon="8.870808458099296"><ele>279.25</ele><time>2026-04-01T16:23:05.999Z</time></trkpt><trkpt lat="45.69382862683581" lon="8.870845690228926"><ele>279.0</ele><time>2026-04-01T16:23:06.999Z</time></trkpt><trkpt lat="45.693689211365985" lon="8.870879152793366"><ele>278.75</ele><time>2026-04-01T16:23:07.999Z</time></trkpt><trkpt lat="45.69356185100973" lon="8.870902409909334"><ele>278.5</ele><time>2026-04-01T16:23:08.999Z</time></trkpt><trkpt lat="45.69344035980682" lon="8.8709112108648"><ele>278.25</ele><time>2026-04-01T16:23:09.999Z</time></trkpt><trkpt lat="45.693330754256586" lon="8.870921615227621"><ele>278.0</ele><time>2026-04-01T16:23:10.999Z</time></trkpt><trkpt lat="45.693230692988614" lon="8.870946174467585"><ele>278.0</ele><time>2026-04-01T16:23:11.999Z</time></trkpt><trkpt lat="45.69316404217965" lon="8.87093133272056"><ele>278.0</ele><time>2026-04-01T16:23:12.999Z</time></trkpt><trkpt lat="45.69308882866715" lon="8.870902706843017"><ele>278.0</ele><time>2026-04-01T16:23:15.999Z</time></trkpt><trkpt lat="45.69303209831928" lon="8.870734765572696"><ele>278.0</ele><time>2026-04-01T16:23:18.998Z</time></trkpt><trkpt lat="45.693029021308824" lon="8.870613000475092"><ele>278.0</ele><time>2026-04-01T16:23:19.998Z</time></trkpt><trkpt lat="45.69300049411425" lon="8.870466879066626"><ele>278.0</ele><time>2026-04-01T16:23:20.998Z</time></trkpt><trkpt lat="45.6929638856694" lon="8.870295459239204"><ele>278.0</ele><time>2026-04-01T16:23:21.998Z</time></trkpt><trkpt lat="45.69292118876944" lon="8.870109852484338"><ele>278.0</ele><time>2026-04-01T16:23:22.998Z</time></trkpt><trkpt lat="45.69288713961879" lon="8.86994713347225"><ele>278.0</ele><time>2026-04-01T16:23:23.998Z</time></trkpt><trkpt lat="45.692843321892816" lon="8.869787804203153"><ele>277.6666666666667</ele><time>2026-04-01T16:23:24.998Z</time></trkpt><trkpt lat="45.69279482990924" lon="8.869610902154086"><ele>277.3333333333333</ele><time>2026-04-01T16:23:25.998Z</time></trkpt><trkpt lat="45.69274099919173" lon="8.869402225567976"><ele>277.0</ele><time>2026-04-01T16:23:26.998Z</time></trkpt><trkpt lat="45.692684990343544" lon="8.869182619082242"><ele>276.4</ele><time>2026-04-01T16:23:27.998Z</time></trkpt><trkpt lat="45.69263605417871" lon="8.86899103138378"><ele>275.79999999999995</ele><time>2026-04-01T16:23:28.998Z</time></trkpt><trkpt lat="45.6926020899338" lon="8.868837417647935"><ele>275.2</ele><time>2026-04-01T16:23:29.998Z</time></trkpt><trkpt lat="45.69257656227069" lon="8.868708932229174"><ele>274.59999999999997</ele><time>2026-04-01T16:23:30.998Z</time></trkpt><trkpt lat="45.69255300729965" lon="8.868613137110488"><ele>274.0</ele><time>2026-04-01T16:23:31.998Z</time></trkpt><trkpt lat="45.69252409505631" lon="8.868510000732773"><ele>274.28571428571433</ele><time>2026-04-01T16:23:33.998Z</time></trkpt><trkpt lat="45.692489485074226" lon="8.868419769950444"><ele>274.57142857142856</ele><time>2026-04-01T16:23:42.998Z</time></trkpt><trkpt lat="45.69246423700282" lon="8.868331987956996"><ele>274.8571428571429</ele><time>2026-04-01T16:23:44Z</time></trkpt><trkpt lat="45.69243657602669" lon="8.8682171520658"><ele>275.14285714285717</ele><time>2026-04-01T16:23:45Z</time></trkpt><trkpt lat="45.69241160508972" lon="8.868117694962583"><ele>275.42857142857144</ele><time>2026-04-01T16:23:46Z</time></trkpt><trkpt lat="45.69238159140626" lon="8.868019199793306"><ele>275.7142857142857</ele><time>2026-04-01T16:23:47Z</time></trkpt><trkpt lat="45.692360142618845" lon="8.867915531139557"><ele>276.0</ele><time>2026-04-01T16:23:48Z</time></trkpt><trkpt lat="45.69233212544141" lon="8.867821907813665"><ele>276.0</ele><time>2026-04-01T16:23:49Z</time></trkpt><trkpt lat="45.69230386771795" lon="8.867727479415464"><ele>276.0</ele><time>2026-04-01T16:23:50Z</time></trkpt><trkpt lat="45.69224378587713" lon="8.867647346820727"><ele>276.0</ele><time>2026-04-01T16:23:51Z</time></trkpt><trkpt lat="45.69221814567151" lon="8.867551882096725"><ele>276.0</ele><time>2026-04-01T16:23:52Z</time></trkpt><trkpt lat="45.69219056945517" lon="8.867452541194774"><ele>276.0</ele><time>2026-04-01T16:23:53Z</time></trkpt><trkpt lat="45.69216534938967" lon="8.867356201908594"><ele>276.0</ele><time>2026-04-01T16:23:54Z</time></trkpt><trkpt lat="45.69213393744105" lon="8.867255968361663"><ele>276.0</ele><time>2026-04-01T16:23:55Z</time></trkpt><trkpt lat="45.692103266123375" lon="8.867154204784379"><ele>276.3333333333333</ele><time>2026-04-01T16:23:56Z</time></trkpt><trkpt lat="45.692073129978375" lon="8.867050725103688"><ele>276.6666666666667</ele><time>2026-04-01T16:23:57Z</time></trkpt><trkpt lat="45.692039893568634" lon="8.866945837660046"><ele>277.0</ele><time>2026-04-01T16:23:58Z</time></trkpt><trkpt lat="45.692012776716766" lon="8.866839964662008"><ele>277.33333333333337</ele><time>2026-04-01T16:23:59Z</time></trkpt><trkpt lat="45.691988608694764" lon="8.866733877125622"><ele>277.6666666666667</ele><time>2026-04-01T16:24:00Z</time></trkpt><trkpt lat="45.69196338654821" lon="8.86662764639202"><ele>278.0</ele><time>2026-04-01T16:24:01Z</time></trkpt><trkpt lat="45.69194593029013" lon="8.866511074460849"><ele>278.2</ele><time>2026-04-01T16:24:02Z</time></trkpt><trkpt lat="45.691918221459424" lon="8.866391703286206"><ele>278.4</ele><time>2026-04-01T16:24:03Z</time></trkpt><trkpt lat="45.69189710383341" lon="8.86626717575887"><ele>278.59999999999997</ele><time>2026-04-01T16:24:04Z</time></trkpt><trkpt lat="45.691885194181566" lon="8.86611817488783"><ele>278.8</ele><time>2026-04-01T16:24:05Z</time></trkpt><trkpt lat="45.69186136101821" lon="8.865979642572052"><ele>279.0</ele><time>2026-04-01T16:24:06Z</time></trkpt><trkpt lat="45.69182632513045" lon="8.865852592219218"><ele>279.0</ele><time>2026-04-01T16:24:07Z</time></trkpt><trkpt lat="45.691795864316695" lon="8.865710655632606"><ele>279.0</ele><time>2026-04-01T16:24:08Z</time></trkpt><trkpt lat="45.691766778740515" lon="8.865585080169781"><ele>279.0</ele><time>2026-04-01T16:24:09Z</time></trkpt><trkpt lat="45.691732719347876" lon="8.865483943574251"><ele>279.0</ele><time>2026-04-01T16:24:10Z</time></trkpt><trkpt lat="45.69170180580479" lon="8.865402999544063"><ele>279.0</ele><time>2026-04-01T16:24:11Z</time></trkpt><trkpt lat="45.691692196267674" lon="8.865289260251615"><ele>279.0</ele><time>2026-04-01T16:24:13Z</time></trkpt><trkpt lat="45.69181695294395" lon="8.865243857174596"><ele>279.0</ele><time>2026-04-01T16:24:14Z</time></trkpt><trkpt lat="45.69191013817147" lon="8.865167450521433"><ele>279.0</ele><time>2026-04-01T16:24:15Z</time></trkpt><trkpt lat="45.69202343311606" lon="8.865118112268107"><ele>279.0</ele><time>2026-04-01T16:24:16Z</time></trkpt><trkpt lat="45.69213597308106" lon="8.865028456023829"><ele>279.0</ele><time>2026-04-01T16:24:17Z</time></trkpt><trkpt lat="45.692241184126964" lon="8.864984029811827"><ele>279.0</ele><time>2026-04-01T16:24:18Z</time></trkpt><trkpt lat="45.6923319644754" lon="8.864930011250483"><ele>279.0</ele><time>2026-04-01T16:24:19Z</time></trkpt><trkpt lat="45.6924083481016" lon="8.864892658656764"><ele>279.0</ele><time>2026-04-01T16:24:20Z</time></trkpt><trkpt lat="45.692490496400914" lon="8.864885350807937"><ele>279.0</ele><time>2026-04-01T16:24:21Z</time></trkpt><trkpt lat="45.69257251345414" lon="8.864875920005709"><ele>279.0</ele><time>2026-04-01T16:24:22Z</time></trkpt><trkpt lat="45.692651298236" lon="8.864859100598359"><ele>279.0</ele><time>2026-04-01T16:24:23Z</time></trkpt><trkpt lat="45.69273053839785" lon="8.864836700594442"><ele>279.2</ele><time>2026-04-01T16:24:24Z</time></trkpt><trkpt lat="45.6928142432646" lon="8.864796544789783"><ele>279.4</ele><time>2026-04-01T16:24:25Z</time></trkpt><trkpt lat="45.69289890488235" lon="8.86476748902851"><ele>279.6</ele><time>2026-04-01T16:24:26Z</time></trkpt><trkpt lat="45.69299362838874" lon="8.864734516681729"><ele>279.8</ele><time>2026-04-01T16:24:27Z</time></trkpt><trkpt lat="45.69309305076037" lon="8.86469867595307"><ele>280.0</ele><time>2026-04-01T16:24:27.999Z</time></trkpt><trkpt lat="45.69318255415087" lon="8.8646671097217"><ele>280.0</ele><time>2026-04-01T16:24:28.999Z</time></trkpt><trkpt lat="45.6932526894406" lon="8.86465163083648"><ele>280.0</ele><time>2026-04-01T16:24:29.999Z</time></trkpt><trkpt lat="45.69332336899015" lon="8.864649176692145"><ele>280.0</ele><time>2026-04-01T16:24:30.999Z</time></trkpt><trkpt lat="45.69340456666833" lon="8.864654632245522"><ele>280.0</ele><time>2026-04-01T16:24:31.999Z</time></trkpt><trkpt lat="45.693495809138724" lon="8.864644979231196"><ele>280.0</ele><time>2026-04-01T16:24:32.999Z</time></trkpt><trkpt lat="45.693580478503065" lon="8.864623175019071"><ele>280.0</ele><time>2026-04-01T16:24:33.999Z</time></trkpt><trkpt lat="45.69364659770798" lon="8.864590603763018"><ele>280.0</ele><time>2026-04-01T16:24:34.999Z</time></trkpt><trkpt lat="45.69374252596026" lon="8.864487282380077"><ele>280.0</ele><time>2026-04-01T16:24:36.999Z</time></trkpt><trkpt lat="45.69379722155847" lon="8.864427560131507"><ele>280.0</ele><time>2026-04-01T16:24:37.999Z</time></trkpt><trkpt lat="45.69386118063344" lon="8.86437370197553"><ele>280.0</ele><time>2026-04-01T16:24:38.999Z</time></trkpt><trkpt lat="45.69392896715846" lon="8.864329307583017"><ele>280.0</ele><time>2026-04-01T16:24:39.999Z</time></trkpt><trkpt lat="45.693993685237814" lon="8.864288492371427"><ele>280.0</ele><time>2026-04-01T16:24:40.999Z</time></trkpt><trkpt lat="45.69405257757738" lon="8.86425464462749"><ele>280.0</ele><time>2026-04-01T16:24:41.999Z</time></trkpt><trkpt lat="45.69414706297453" lon="8.864198270901587"><ele>280.0</ele><time>2026-04-01T16:24:43.999Z</time></trkpt><trkpt lat="45.69423361312405" lon="8.864163044295935"><ele>280.0</ele><time>2026-04-01T16:24:45.999Z</time></trkpt><trkpt lat="45.694318396060005" lon="8.864114921117261"><ele>280.0</ele><time>2026-04-01T16:24:47.999Z</time></trkpt><trkpt lat="45.6944003275153" lon="8.864069014475207"><ele>280.0</ele><time>2026-04-01T16:24:49.999Z</time></trkpt><trkpt lat="45.69448275371318" lon="8.864027714059189"><ele>280.8</ele><time>2026-04-01T16:24:51.999Z</time></trkpt><trkpt lat="45.69457703960501" lon="8.86397471572061"><ele>281.6</ele><time>2026-04-01T16:27:42.998Z</time></trkpt><trkpt lat="45.69466401074696" lon="8.863939552576023"><ele>282.4</ele><time>2026-04-01T16:27:44.998Z</time></trkpt><trkpt lat="45.69478102340591" lon="8.863895695104414"><ele>283.2</ele><time>2026-04-01T16:27:46.998Z</time></trkpt><trkpt lat="45.694899501217435" lon="8.863845580758673"><ele>284.0</ele><time>2026-04-01T16:27:48.998Z</time></trkpt><trkpt lat="45.69500868903252" lon="8.86381494307346"><ele>284.0</ele><time>2026-04-01T16:27:50.998Z</time></trkpt><trkpt lat="45.69512850565426" lon="8.86378270490584"><ele>284.0</ele><time>2026-04-01T16:27:52.998Z</time></trkpt><trkpt lat="45.695195560501425" lon="8.863765195174313"><ele>284.0</ele><time>2026-04-01T16:27:53.998Z</time></trkpt><trkpt lat="45.695268692116514" lon="8.863750109383693"><ele>284.0</ele><time>2026-04-01T16:27:54.998Z</time></trkpt><trkpt lat="45.695339853248704" lon="8.863736081477441"><ele>284.0</ele><time>2026-04-01T16:27:56Z</time></trkpt><trkpt lat="45.69540672804603" lon="8.863723261065442"><ele>284.0</ele><time>2026-04-01T16:27:57Z</time></trkpt><trkpt lat="45.695509711270525" lon="8.863701297289078"><ele>285.0</ele><time>2026-04-01T16:27:59Z</time></trkpt><trkpt lat="45.69555165542429" lon="8.863621463379623"><ele>286.0</ele><time>2026-04-01T16:28:01Z</time></trkpt><trkpt lat="45.695502389276555" lon="8.863496876409886"><ele>287.0</ele><time>2026-04-01T16:28:03Z</time></trkpt><trkpt lat="45.69545021771021" lon="8.863367194024478"><ele>288.0</ele><time>2026-04-01T16:28:05Z</time></trkpt><trkpt lat="45.69541911713885" lon="8.863249795091207"><ele>289.0</ele><time>2026-04-01T16:28:07Z</time></trkpt><trkpt lat="45.695376519739916" lon="8.86311347592182"><ele>289.2</ele><time>2026-04-01T16:28:09Z</time></trkpt><trkpt lat="45.69531995044939" lon="8.86295757259307"><ele>289.4</ele><time>2026-04-01T16:28:11Z</time></trkpt><trkpt lat="45.695273856168654" lon="8.862819901218266"><ele>289.6</ele><time>2026-04-01T16:28:13Z</time></trkpt><trkpt lat="45.69523003921921" lon="8.862677356355633"><ele>289.8</ele><time>2026-04-01T16:28:15Z</time></trkpt><trkpt lat="45.69519189123495" lon="8.862547512435148"><ele>290.0</ele><time>2026-04-01T16:28:17Z</time></trkpt><trkpt lat="45.695148146080165" lon="8.862413134969538"><ele>289.83333333333337</ele><time>2026-04-01T16:28:19Z</time></trkpt><trkpt lat="45.695105131107624" lon="8.862292226666158"><ele>289.6666666666667</ele><time>2026-04-01T16:28:21Z</time></trkpt><trkpt lat="45.69507770645796" lon="8.862202941062355"><ele>289.5</ele><time>2026-04-01T16:28:23Z</time></trkpt><trkpt lat="45.69509147385782" lon="8.86210843646219"><ele>289.3333333333333</ele><time>2026-04-01T16:28:25Z</time></trkpt><trkpt lat="45.69517559569012" lon="8.862062307638322"><ele>289.16666666666663</ele><time>2026-04-01T16:28:27Z</time></trkpt><trkpt lat="45.69528237171538" lon="8.862016942807546"><ele>289.0</ele><time>2026-04-01T16:28:29Z</time></trkpt><trkpt lat="45.695398765566225" lon="8.86195152683943"><ele>289.0</ele><time>2026-04-01T16:28:31Z</time></trkpt><trkpt lat="45.69547781281151" lon="8.861910975259223"><ele>289.0</ele><time>2026-04-01T16:28:32Z</time></trkpt><trkpt lat="45.695550838357065" lon="8.861876763674298"><ele>289.0</ele><time>2026-04-01T16:28:33Z</time></trkpt><trkpt lat="45.69561755997054" lon="8.861835313091246"><ele>289.0</ele><time>2026-04-01T16:28:34Z</time></trkpt><trkpt lat="45.69574042322099" lon="8.861769061859768"><ele>289.0</ele><time>2026-04-01T16:28:36Z</time></trkpt><trkpt lat="45.695813052820576" lon="8.861728989863222"><ele>289.0</ele><time>2026-04-01T16:28:37Z</time></trkpt><trkpt lat="45.695892726106486" lon="8.861687382028654"><ele>289.16666666666663</ele><time>2026-04-01T16:28:38Z</time></trkpt><trkpt lat="45.69596745912398" lon="8.86164098880715"><ele>289.3333333333333</ele><time>2026-04-01T16:28:39Z</time></trkpt><trkpt lat="45.69604960306902" lon="8.861601632379354"><ele>289.5</ele><time>2026-04-01T16:28:39.999Z</time></trkpt><trkpt lat="45.69612392610561" lon="8.861559265211019"><ele>289.6666666666667</ele><time>2026-04-01T16:28:40.999Z</time></trkpt><trkpt lat="45.69618022170344" lon="8.86150866592651"><ele>289.83333333333337</ele><time>2026-04-01T16:28:41.999Z</time></trkpt><trkpt lat="45.69625337729159" lon="8.861459921771193"><ele>290.0</ele><time>2026-04-01T16:28:42.999Z</time></trkpt><trkpt lat="45.69632750203637" lon="8.861429153254088"><ele>289.2</ele><time>2026-04-01T16:28:43.999Z</time></trkpt><trkpt lat="45.69640548448711" lon="8.861401784229768"><ele>288.4</ele><time>2026-04-01T16:28:44.999Z</time></trkpt><trkpt lat="45.696497650611704" lon="8.86136475848965"><ele>287.6</ele><time>2026-04-01T16:28:45.999Z</time></trkpt><trkpt lat="45.69658850967352" lon="8.861328920407885"><ele>286.8</ele><time>2026-04-01T16:28:46.999Z</time></trkpt><trkpt lat="45.6966781702204" lon="8.861286202505855"><ele>286.0</ele><time>2026-04-01T16:28:47.999Z</time></trkpt><trkpt lat="45.696767355293794" lon="8.86124757717185"><ele>286.0</ele><time>2026-04-01T16:28:48.999Z</time></trkpt><trkpt lat="45.69685610682126" lon="8.861204386939582"><ele>286.0</ele><time>2026-04-01T16:28:49.999Z</time></trkpt><trkpt lat="45.696941708905946" lon="8.861157942828969"><ele>286.0</ele><time>2026-04-01T16:28:50.999Z</time></trkpt><trkpt lat="45.69702719533221" lon="8.861115032577816"><ele>286.0</ele><time>2026-04-01T16:28:51.999Z</time></trkpt><trkpt lat="45.6971128087402" lon="8.861070770683595"><ele>286.0</ele><time>2026-04-01T16:28:52.999Z</time></trkpt><trkpt lat="45.69718242918841" lon="8.861034337948142"><ele>286.0</ele><time>2026-04-01T16:28:53.999Z</time></trkpt><trkpt lat="45.6972546347797" lon="8.861001862925347"><ele>286.16666666666663</ele><time>2026-04-01T16:28:54.999Z</time></trkpt><trkpt lat="45.69733686981934" lon="8.860968518244439"><ele>286.3333333333333</ele><time>2026-04-01T16:28:55.999Z</time></trkpt><trkpt lat="45.697419006194785" lon="8.860934031199472"><ele>286.5</ele><time>2026-04-01T16:28:56.999Z</time></trkpt><trkpt lat="45.69749900983264" lon="8.860899203321761"><ele>286.6666666666667</ele><time>2026-04-01T16:28:57.999Z</time></trkpt><trkpt lat="45.69758300821153" lon="8.860864836142659"><ele>286.83333333333337</ele><time>2026-04-01T16:28:58.999Z</time></trkpt><trkpt lat="45.697666650028566" lon="8.86083072697058"><ele>287.0</ele><time>2026-04-01T16:28:59.999Z</time></trkpt><trkpt lat="45.697751785279" lon="8.860795724717587"><ele>287.8</ele><time>2026-04-01T16:29:00.999Z</time></trkpt><trkpt lat="45.69783242222691" lon="8.860756401568672"><ele>288.6</ele><time>2026-04-01T16:29:01.999Z</time></trkpt><trkpt lat="45.697919677100806" lon="8.860715543281287"><ele>289.40000000000003</ele><time>2026-04-01T16:29:02.999Z</time></trkpt><trkpt lat="45.698010694164005" lon="8.860671526144417"><ele>290.2</ele><time>2026-04-01T16:29:03.999Z</time></trkpt><trkpt lat="45.698097641465964" lon="8.860624560506432"><ele>291.0</ele><time>2026-04-01T16:29:04.999Z</time></trkpt><trkpt lat="45.69818649123773" lon="8.860579253342182"><ele>291.0</ele><time>2026-04-01T16:29:05.999Z</time></trkpt><trkpt lat="45.69828695002237" lon="8.86052673374195"><ele>291.0</ele><time>2026-04-01T16:29:06.999Z</time></trkpt><trkpt lat="45.698395445699454" lon="8.860476334489562"><ele>291.0</ele><time>2026-04-01T16:29:07.999Z</time></trkpt><trkpt lat="45.69850900265364" lon="8.860413627179168"><ele>291.0</ele><time>2026-04-01T16:29:08.999Z</time></trkpt><trkpt lat="45.698600515199544" lon="8.860361947839277"><ele>291.0</ele><time>2026-04-01T16:29:09.999Z</time></trkpt><trkpt lat="45.698680237474164" lon="8.860316611448546"><ele>291.0</ele><time>2026-04-01T16:29:10.999Z</time></trkpt><trkpt lat="45.69874886598957" lon="8.860265190116008"><ele>291.0</ele><time>2026-04-01T16:29:11.999Z</time></trkpt><trkpt lat="45.69879891177646" lon="8.860188267362657"><ele>291.0</ele><time>2026-04-01T16:29:12.999Z</time></trkpt><trkpt lat="45.698839918440314" lon="8.860085046942071"><ele>291.0</ele><time>2026-04-01T16:29:13.999Z</time></trkpt><trkpt lat="45.698881047494304" lon="8.859962677389884"><ele>291.0</ele><time>2026-04-01T16:29:14.999Z</time></trkpt><trkpt lat="45.69892204894771" lon="8.859814455796391"><ele>291.0</ele><time>2026-04-01T16:29:15.999Z</time></trkpt><trkpt lat="45.69896718268518" lon="8.859689911711467"><ele>291.1666666666667</ele><time>2026-04-01T16:29:16.999Z</time></trkpt><trkpt lat="45.69901892753955" lon="8.859594664884106"><ele>291.3333333333333</ele><time>2026-04-01T16:29:17.999Z</time></trkpt><trkpt lat="45.69908459109295" lon="8.859536825544719"><ele>291.5</ele><time>2026-04-01T16:29:18.999Z</time></trkpt><trkpt lat="45.69917187245578" lon="8.859499595538425"><ele>291.66666666666663</ele><time>2026-04-01T16:29:19.999Z</time></trkpt><trkpt lat="45.69926690548197" lon="8.859469835845832"><ele>291.8333333333333</ele><time>2026-04-01T16:29:20.999Z</time></trkpt><trkpt lat="45.69933376342617" lon="8.85943422523954"><ele>292.0</ele><time>2026-04-01T16:29:21.999Z</time></trkpt><trkpt lat="45.69939518129648" lon="8.859406631884482"><ele>292.0</ele><time>2026-04-01T16:29:22.999Z</time></trkpt><trkpt lat="45.69945843396332" lon="8.859387855394592"><ele>292.0</ele><time>2026-04-01T16:29:23.999Z</time></trkpt><trkpt lat="45.6995279652313" lon="8.85936852624688"><ele>292.0</ele><time>2026-04-01T16:29:24.999Z</time></trkpt><trkpt lat="45.699595008440646" lon="8.859351995626763"><ele>292.0</ele><time>2026-04-01T16:29:25.999Z</time></trkpt><trkpt lat="45.699668220987974" lon="8.859337067522299"><ele>292.0</ele><time>2026-04-01T16:29:26.999Z</time></trkpt><trkpt lat="45.69974688474789" lon="8.85931904877493"><ele>292.0</ele><time>2026-04-01T16:29:27.999Z</time></trkpt><trkpt lat="45.69981914045199" lon="8.859302658077253"><ele>292.0</ele><time>2026-04-01T16:29:28.999Z</time></trkpt><trkpt lat="45.699896950746584" lon="8.859283506503555"><ele>291.8</ele><time>2026-04-01T16:29:29.999Z</time></trkpt><trkpt lat="45.699981899171924" lon="8.859261451255788"><ele>291.6</ele><time>2026-04-01T16:29:30.999Z</time></trkpt><trkpt lat="45.70007562571955" lon="8.859235091010929"><ele>291.40000000000003</ele><time>2026-04-01T16:29:31.999Z</time></trkpt><trkpt lat="45.70016399717392" lon="8.85920970156237"><ele>291.2</ele><time>2026-04-01T16:29:32.999Z</time></trkpt><trkpt lat="45.70023024119397" lon="8.859195142331417"><ele>291.0</ele><time>2026-04-01T16:29:33.999Z</time></trkpt><trkpt lat="45.700344205325855" lon="8.85918402368363"><ele>291.0</ele><time>2026-04-01T16:29:35.999Z</time></trkpt><trkpt lat="45.70041599981163" lon="8.859172280560415"><ele>291.0</ele><time>2026-04-01T16:29:36.999Z</time></trkpt><trkpt lat="45.70050485505065" lon="8.859153890343876"><ele>291.0</ele><time>2026-04-01T16:29:37.998Z</time></trkpt><trkpt lat="45.70061033018157" lon="8.859136117488301"><ele>291.0</ele><time>2026-04-01T16:29:38.998Z</time></trkpt><trkpt lat="45.700707930458805" lon="8.859118852621648"><ele>291.0</ele><time>2026-04-01T16:29:39.998Z</time></trkpt><trkpt lat="45.7008105802252" lon="8.859098693702878"><ele>291.0</ele><time>2026-04-01T16:29:40.998Z</time></trkpt><trkpt lat="45.700917051823524" lon="8.8590675664991"><ele>291.0</ele><time>2026-04-01T16:29:41.998Z</time></trkpt><trkpt lat="45.701016177481605" lon="8.859028656989475"><ele>291.0</ele><time>2026-04-01T16:29:42.998Z</time></trkpt><trkpt lat="45.70110012052667" lon="8.858990212135913"><ele>291.0</ele><time>2026-04-01T16:29:43.998Z</time></trkpt><trkpt lat="45.7011844526822" lon="8.858959893892507"><ele>291.0</ele><time>2026-04-01T16:29:44.998Z</time></trkpt><trkpt lat="45.70126104422282" lon="8.858930415656186"><ele>291.2</ele><time>2026-04-01T16:29:45.998Z</time></trkpt><trkpt lat="45.701344729486436" lon="8.858903776314492"><ele>291.40000000000003</ele><time>2026-04-01T16:29:46.998Z</time></trkpt><trkpt lat="45.70143659683431" lon="8.858872612755002"><ele>291.6</ele><time>2026-04-01T16:29:47.998Z</time></trkpt><trkpt lat="45.701532713256476" lon="8.858839488262257"><ele>291.8</ele><time>2026-04-01T16:29:48.998Z</time></trkpt><trkpt lat="45.70163341401747" lon="8.85880642426909"><ele>292.0</ele><time>2026-04-01T16:29:49.998Z</time></trkpt><trkpt lat="45.701731048876134" lon="8.858777961666627"><ele>292.0</ele><time>2026-04-01T16:29:50.998Z</time></trkpt><trkpt lat="45.701834095746484" lon="8.858750814773526"><ele>292.0</ele><time>2026-04-01T16:29:51.998Z</time></trkpt><trkpt lat="45.70194393077085" lon="8.858723907345905"><ele>292.0</ele><time>2026-04-01T16:29:52.998Z</time></trkpt><trkpt lat="45.7020608945783" lon="8.858694884027397"><ele>292.0</ele><time>2026-04-01T16:29:53.998Z</time></trkpt><trkpt lat="45.702168182995024" lon="8.858661652303423"><ele>292.0</ele><time>2026-04-01T16:29:54.998Z</time></trkpt><trkpt lat="45.70225689212128" lon="8.858633778476785"><ele>292.0</ele><time>2026-04-01T16:29:55.998Z</time></trkpt><trkpt lat="45.70233394979044" lon="8.85861219238249"><ele>292.0</ele><time>2026-04-01T16:29:56.998Z</time></trkpt><trkpt lat="45.70239940373515" lon="8.858587557242256"><ele>292.0</ele><time>2026-04-01T16:29:57.998Z</time></trkpt><trkpt lat="45.70250448380931" lon="8.858568298669358"><ele>292.0</ele><time>2026-04-01T16:29:59.998Z</time></trkpt><trkpt lat="45.70253852674315" lon="8.858472149436077"><ele>292.0</ele><time>2026-04-01T16:30:17Z</time></trkpt><trkpt lat="45.702449439307635" lon="8.858341414486205"><ele>292.4</ele><time>2026-04-01T16:30:19Z</time></trkpt><trkpt lat="45.702389903148415" lon="8.858238690539684"><ele>292.79999999999995</ele><time>2026-04-01T16:30:20Z</time></trkpt><trkpt lat="45.702355853009585" lon="8.858117079470123"><ele>293.2</ele><time>2026-04-01T16:30:21Z</time></trkpt><trkpt lat="45.70231789754168" lon="8.857969700714376"><ele>293.59999999999997</ele><time>2026-04-01T16:30:22Z</time></trkpt><trkpt lat="45.70227067661699" lon="8.857827582805985"><ele>294.0</ele><time>2026-04-01T16:30:23Z</time></trkpt><trkpt lat="45.702216074692586" lon="8.857672774558857"><ele>294.2</ele><time>2026-04-01T16:30:24Z</time></trkpt><trkpt lat="45.702156199532176" lon="8.857540078172233"><ele>294.4</ele><time>2026-04-01T16:30:25Z</time></trkpt><trkpt lat="45.70207119539271" lon="8.857460293601333"><ele>294.6</ele><time>2026-04-01T16:30:26Z</time></trkpt><trkpt lat="45.70197251807983" lon="8.857421294860321"><ele>294.8</ele><time>2026-04-01T16:30:27Z</time></trkpt><trkpt lat="45.70185698631688" lon="8.857397565269302"><ele>295.0</ele><time>2026-04-01T16:30:28Z</time></trkpt><trkpt lat="45.70173482607114" lon="8.857359339990163"><ele>295.5</ele><time>2026-04-01T16:30:29Z</time></trkpt><trkpt lat="45.70161660818849" lon="8.857321309235274"><ele>296.0</ele><time>2026-04-01T16:30:30Z</time></trkpt><trkpt lat="45.701511491866654" lon="8.857310680417603"><ele>296.5</ele><time>2026-04-01T16:30:31Z</time></trkpt><trkpt lat="45.701386824053266" lon="8.857310195441572"><ele>297.0</ele><time>2026-04-01T16:30:32Z</time></trkpt><trkpt lat="45.70125482660129" lon="8.857292378188571"><ele>297.0</ele><time>2026-04-01T16:30:33Z</time></trkpt><trkpt lat="45.70114532759892" lon="8.85720530253654"><ele>297.0</ele><time>2026-04-01T16:30:34Z</time></trkpt><trkpt lat="45.701035202087084" lon="8.857120903044583"><ele>297.0</ele><time>2026-04-01T16:30:35Z</time></trkpt><trkpt lat="45.70093802125189" lon="8.856986862742053"><ele>297.0</ele><time>2026-04-01T16:30:36Z</time></trkpt><trkpt lat="45.70082604731198" lon="8.856858685296642"><ele>296.3333333333333</ele><time>2026-04-01T16:30:37Z</time></trkpt><trkpt lat="45.70069056910269" lon="8.856740503883081"><ele>295.66666666666663</ele><time>2026-04-01T16:30:38Z</time></trkpt><trkpt lat="45.70050540735951" lon="8.856662038331605"><ele>295.0</ele><time>2026-04-01T16:30:39Z</time></trkpt><trkpt lat="45.700326474392426" lon="8.856610104677957"><ele>294.25</ele><time>2026-04-01T16:30:40Z</time></trkpt><trkpt lat="45.700179611222985" lon="8.85655396130863"><ele>293.5</ele><time>2026-04-01T16:30:41Z</time></trkpt><trkpt lat="45.700059365646396" lon="8.856450160628711"><ele>292.75</ele><time>2026-04-01T16:30:42Z</time></trkpt><trkpt lat="45.69995142259635" lon="8.856306979444208"><ele>292.0</ele><time>2026-04-01T16:30:43Z</time></trkpt><trkpt lat="45.69982171899472" lon="8.856137164306103"><ele>292.0</ele><time>2026-04-01T16:30:44Z</time></trkpt><trkpt lat="45.69968065275665" lon="8.856015770873912"><ele>292.0</ele><time>2026-04-01T16:30:44.999Z</time></trkpt><trkpt lat="45.699517836350765" lon="8.85595797269698"><ele>292.0</ele><time>2026-04-01T16:30:45.999Z</time></trkpt><trkpt lat="45.699325602752346" lon="8.855957641991225"><ele>292.3333333333333</ele><time>2026-04-01T16:30:46.999Z</time></trkpt><trkpt lat="45.69911396020971" lon="8.855953063608466"><ele>292.6666666666667</ele><time>2026-04-01T16:30:47.999Z</time></trkpt><trkpt lat="45.69892956055017" lon="8.855927904940817"><ele>293.0</ele><time>2026-04-01T16:30:48.999Z</time></trkpt><trkpt lat="45.69876207318569" lon="8.855903978824802"><ele>293.0</ele><time>2026-04-01T16:30:49.999Z</time></trkpt><trkpt lat="45.69860763883883" lon="8.855869069930916"><ele>293.0</ele><time>2026-04-01T16:30:50.999Z</time></trkpt><trkpt lat="45.698471071589225" lon="8.855798337283186"><ele>293.0</ele><time>2026-04-01T16:30:51.999Z</time></trkpt><trkpt lat="45.69835846768445" lon="8.8556766843293"><ele>293.0</ele><time>2026-04-01T16:30:52.999Z</time></trkpt><trkpt lat="45.698234669649885" lon="8.855536891389608"><ele>292.33333333333337</ele><time>2026-04-01T16:30:53.999Z</time></trkpt><trkpt lat="45.698097890436365" lon="8.855411987586086"><ele>291.6666666666667</ele><time>2026-04-01T16:30:54.999Z</time></trkpt><trkpt lat="45.69793394252122" lon="8.855313668152641"><ele>291.0</ele><time>2026-04-01T16:30:55.999Z</time></trkpt><trkpt lat="45.697755189263525" lon="8.855212838872983"><ele>289.0</ele><time>2026-04-01T16:30:56.999Z</time></trkpt><trkpt lat="45.69757117991981" lon="8.85511623852093"><ele>287.0</ele><time>2026-04-01T16:30:57.999Z</time></trkpt><trkpt lat="45.69742112272215" lon="8.855042041080633"><ele>285.0</ele><time>2026-04-01T16:30:58.999Z</time></trkpt><trkpt lat="45.697290552914644" lon="8.85498272778604"><ele>285.0</ele><time>2026-04-01T16:30:59.999Z</time></trkpt><trkpt lat="45.697163248325715" lon="8.854920277508137"><ele>285.0</ele><time>2026-04-01T16:31:00.999Z</time></trkpt><trkpt lat="45.697050164897796" lon="8.854840433176749"><ele>285.0</ele><time>2026-04-01T16:31:01.999Z</time></trkpt><trkpt lat="45.69693751572545" lon="8.854722172395435"><ele>285.0</ele><time>2026-04-01T16:31:02.999Z</time></trkpt><trkpt lat="45.69683381730382" lon="8.854561833820169"><ele>285.25</ele><time>2026-04-01T16:31:03.999Z</time></trkpt><trkpt lat="45.69674584847283" lon="8.854388641932355"><ele>285.5</ele><time>2026-04-01T16:31:04.999Z</time></trkpt><trkpt lat="45.6966945359316" lon="8.854219762873983"><ele>285.75</ele><time>2026-04-01T16:31:05.999Z</time></trkpt><trkpt lat="45.6966636568787" lon="8.854043273078632"><ele>286.0</ele><time>2026-04-01T16:31:06.999Z</time></trkpt><trkpt lat="45.696656382412584" lon="8.853869636752007"><ele>286.0</ele><time>2026-04-01T16:31:07.999Z</time></trkpt><trkpt lat="45.69665591839605" lon="8.853689587229331"><ele>286.0</ele><time>2026-04-01T16:31:08.999Z</time></trkpt><trkpt lat="45.69664305356581" lon="8.853532432087183"><ele>286.0</ele><time>2026-04-01T16:31:09.999Z</time></trkpt><trkpt lat="45.696634573776635" lon="8.85339360114177"><ele>286.0</ele><time>2026-04-01T16:31:10.999Z</time></trkpt><trkpt lat="45.696642999637476" lon="8.853269408150439"><ele>286.0</ele><time>2026-04-01T16:31:11.999Z</time></trkpt><trkpt lat="45.69666942554439" lon="8.85316734742687"><ele>286.0</ele><time>2026-04-01T16:31:12.999Z</time></trkpt><trkpt lat="45.69669787290976" lon="8.853086388127236"><ele>286.0</ele><time>2026-04-01T16:31:13.999Z</time></trkpt><trkpt lat="45.69672642379069" lon="8.85293172023196"><ele>286.0</ele><time>2026-04-01T16:31:15.999Z</time></trkpt><trkpt lat="45.69671141800399" lon="8.852752123194922"><ele>286.0</ele><time>2026-04-01T16:31:17.999Z</time></trkpt><trkpt lat="45.69669181795987" lon="8.85264294096819"><ele>286.0</ele><time>2026-04-01T16:31:18.999Z</time></trkpt><trkpt lat="45.69667565261092" lon="8.85252830583654"><ele>286.2</ele><time>2026-04-01T16:31:19.999Z</time></trkpt><trkpt lat="45.69667206644967" lon="8.852425725442759"><ele>286.40000000000003</ele><time>2026-04-01T16:31:20.999Z</time></trkpt><trkpt lat="45.69665624356327" lon="8.852250146500069"><ele>286.6</ele><time>2026-04-01T16:31:22.999Z</time></trkpt><trkpt lat="45.696655370256046" lon="8.852068612397767"><ele>286.8</ele><time>2026-04-01T16:31:24.999Z</time></trkpt><trkpt lat="45.6966407059325" lon="8.851959299180006"><ele>287.0</ele><time>2026-04-01T16:31:25.999Z</time></trkpt><trkpt lat="45.69662524625607" lon="8.851838988478239"><ele>287.4</ele><time>2026-04-01T16:31:26.999Z</time></trkpt><trkpt lat="45.69663094419404" lon="8.851727252853337"><ele>287.79999999999995</ele><time>2026-04-01T16:31:27.999Z</time></trkpt><trkpt lat="45.69663328165102" lon="8.85158942497814"><ele>288.2</ele><time>2026-04-01T16:31:29.999Z</time></trkpt><trkpt lat="45.696673671214384" lon="8.851511680085267"><ele>288.59999999999997</ele><time>2026-04-01T16:31:30.999Z</time></trkpt><trkpt lat="45.69673810817557" lon="8.851369819138297"><ele>289.0</ele><time>2026-04-01T16:31:31.999Z</time></trkpt><trkpt lat="45.69681352776393" lon="8.851191038948928"><ele>289.0</ele><time>2026-04-01T16:31:32.999Z</time></trkpt><trkpt lat="45.696889972917155" lon="8.85098349761926"><ele>289.0</ele><time>2026-04-01T16:31:33.999Z</time></trkpt><trkpt lat="45.6969402886562" lon="8.850806704201913"><ele>289.0</ele><time>2026-04-01T16:31:34.999Z</time></trkpt><trkpt lat="45.69698037045353" lon="8.850656870014111"><ele>289.0</ele><time>2026-04-01T16:31:35.999Z</time></trkpt><trkpt lat="45.69701702930542" lon="8.850537643118694"><ele>288.8</ele><time>2026-04-01T16:31:36.999Z</time></trkpt><trkpt lat="45.69704184848859" lon="8.850447730894784"><ele>288.59999999999997</ele><time>2026-04-01T16:31:37.999Z</time></trkpt><trkpt lat="45.69709664029949" lon="8.850304816912962"><ele>288.4</ele><time>2026-04-01T16:31:39.999Z</time></trkpt><trkpt lat="45.69715262645738" lon="8.850196340855812"><ele>288.2</ele><time>2026-04-01T16:31:40.999Z</time></trkpt><trkpt lat="45.697230830763495" lon="8.85007850341463"><ele>288.0</ele><time>2026-04-01T16:31:41.999Z</time></trkpt><trkpt lat="45.69732567580179" lon="8.849966662847594"><ele>288.0</ele><time>2026-04-01T16:31:42.998Z</time></trkpt><trkpt lat="45.697417035030035" lon="8.849855903788741"><ele>288.0</ele><time>2026-04-01T16:31:43.998Z</time></trkpt><trkpt lat="45.6975190135433" lon="8.849792856846243"><ele>288.0</ele><time>2026-04-01T16:31:44.998Z</time></trkpt><trkpt lat="45.69762008448319" lon="8.849722261727413"><ele>288.0</ele><time>2026-04-01T16:31:45.998Z</time></trkpt><trkpt lat="45.697760799902106" lon="8.849668693116463"><ele>288.4</ele><time>2026-04-01T16:31:46.998Z</time></trkpt><trkpt lat="45.69788691353375" lon="8.849604536861088"><ele>288.8</ele><time>2026-04-01T16:31:47.998Z</time></trkpt><trkpt lat="45.69797765764805" lon="8.849556831821406"><ele>289.2</ele><time>2026-04-01T16:31:48.998Z</time></trkpt><trkpt lat="45.69805501014126" lon="8.849523143309906"><ele>289.6</ele><time>2026-04-01T16:31:49.998Z</time></trkpt><trkpt lat="45.69814901958323" lon="8.849490750765652"><ele>290.0</ele><time>2026-04-01T16:31:50.998Z</time></trkpt><trkpt lat="45.698252025152215" lon="8.849464912291914"><ele>290.0</ele><time>2026-04-01T16:31:51.998Z</time></trkpt><trkpt lat="45.698367139431625" lon="8.84944480570338"><ele>290.0</ele><time>2026-04-01T16:31:52.998Z</time></trkpt><trkpt lat="45.69847983973035" lon="8.849438253054025"><ele>290.0</ele><time>2026-04-01T16:31:53.998Z</time></trkpt><trkpt lat="45.69855775091158" lon="8.84942794837821"><ele>290.0</ele><time>2026-04-01T16:31:54.998Z</time></trkpt><trkpt lat="45.69870904311696" lon="8.849319062084874"><ele>290.83333333333337</ele><time>2026-04-01T16:31:57.998Z</time></trkpt><trkpt lat="45.698730734110846" lon="8.849218383146104"><ele>291.6666666666667</ele><time>2026-04-01T16:31:58.998Z</time></trkpt><trkpt lat="45.69875206758382" lon="8.849118688420635"><ele>292.5</ele><time>2026-04-01T16:31:59.998Z</time></trkpt><trkpt lat="45.698729138321895" lon="8.848979846974629"><ele>293.3333333333333</ele><time>2026-04-01T16:32:00.998Z</time></trkpt><trkpt lat="45.698773134499866" lon="8.84887044963663"><ele>294.16666666666663</ele><time>2026-04-01T16:32:01.998Z</time></trkpt><trkpt lat="45.698815063338" lon="8.848749302562258"><ele>295.0</ele><time>2026-04-01T16:32:02.998Z</time></trkpt><trkpt lat="45.69884842270582" lon="8.848632256314321"><ele>295.0</ele><time>2026-04-01T16:32:03.998Z</time></trkpt><trkpt lat="45.69888619059366" lon="8.848527261221298"><ele>295.0</ele><time>2026-04-01T16:32:04.998Z</time></trkpt><trkpt lat="45.69893583100523" lon="8.84844121355896"><ele>295.0</ele><time>2026-04-01T16:32:05.998Z</time></trkpt><trkpt lat="45.69897247197983" lon="8.848367037069961"><ele>295.0</ele><time>2026-04-01T16:32:06.998Z</time></trkpt><trkpt lat="45.699077644163076" lon="8.848342117275799"><ele>295.0</ele><time>2026-04-01T16:32:08Z</time></trkpt><trkpt lat="45.69912002761434" lon="8.848258883241696"><ele>295.0</ele><time>2026-04-01T16:32:09Z</time></trkpt><trkpt lat="45.699168933327876" lon="8.848169668793922"><ele>295.6</ele><time>2026-04-01T16:32:10Z</time></trkpt><trkpt lat="45.699172801519225" lon="8.848025163717907"><ele>296.2</ele><time>2026-04-01T16:32:11Z</time></trkpt><trkpt lat="45.69923274520509" lon="8.847958238956844"><ele>296.8</ele><time>2026-04-01T16:32:12Z</time></trkpt><trkpt lat="45.699297246395574" lon="8.847837698169581"><ele>297.4</ele><time>2026-04-01T16:32:14Z</time></trkpt><trkpt lat="45.699358889906776" lon="8.847708975588152"><ele>298.0</ele><time>2026-04-01T16:32:16Z</time></trkpt><trkpt lat="45.69936777285941" lon="8.84760076901419"><ele>299.2</ele><time>2026-04-01T16:32:18Z</time></trkpt><trkpt lat="45.699375089425146" lon="8.84745002396987"><ele>300.4</ele><time>2026-04-01T16:32:20Z</time></trkpt><trkpt lat="45.699409539377804" lon="8.847339981156907"><ele>301.59999999999997</ele><time>2026-04-01T16:32:22Z</time></trkpt><trkpt lat="45.69930972953587" lon="8.847278914765539"><ele>302.8</ele><time>2026-04-01T16:32:26Z</time></trkpt><trkpt lat="45.699280235830315" lon="8.847156160543058"><ele>304.0</ele><time>2026-04-01T16:32:28Z</time></trkpt><trkpt lat="45.6992815596084" lon="8.847014673936393"><ele>304.0</ele><time>2026-04-01T16:32:30Z</time></trkpt><trkpt lat="45.699297441710215" lon="8.84683572478533"><ele>304.0</ele><time>2026-04-01T16:32:32Z</time></trkpt><trkpt lat="45.699340061807916" lon="8.846747998879993"><ele>304.0</ele><time>2026-04-01T16:32:33Z</time></trkpt><trkpt lat="45.69936033887847" lon="8.846633134526106"><ele>304.0</ele><time>2026-04-01T16:32:34Z</time></trkpt><trkpt lat="45.69932004133741" lon="8.846546413119373"><ele>304.0</ele><time>2026-04-01T16:32:36Z</time></trkpt><trkpt lat="45.69923297570816" lon="8.846509926699627"><ele>304.0</ele><time>2026-04-01T16:32:39Z</time></trkpt><trkpt lat="45.69914214783825" lon="8.846460361991843"><ele>305.3333333333333</ele><time>2026-04-01T16:32:42Z</time></trkpt><trkpt lat="45.69909160011157" lon="8.846404175913834"><ele>306.66666666666663</ele><time>2026-04-01T16:32:44Z</time></trkpt><trkpt lat="45.699023552789185" lon="8.846360479658946"><ele>308.0</ele><time>2026-04-01T16:32:50Z</time></trkpt><trkpt lat="45.69896168080418" lon="8.84627468741857"><ele>309.3333333333333</ele><time>2026-04-01T16:33:21.999Z</time></trkpt><trkpt lat="45.69888940419673" lon="8.846210455128038"><ele>310.6666666666667</ele><time>2026-04-01T16:33:28.999Z</time></trkpt><trkpt lat="45.698792618948886" lon="8.846122417655788"><ele>312.0</ele><time>2026-04-01T16:33:29.999Z</time></trkpt><trkpt lat="45.698698169089795" lon="8.84603876433975"><ele>311.0</ele><time>2026-04-01T16:33:30.999Z</time></trkpt><trkpt lat="45.69858178603158" lon="8.84591718234068"><ele>310.0</ele><time>2026-04-01T16:33:31.999Z</time></trkpt><trkpt lat="45.698459990934346" lon="8.845835961137459"><ele>309.0</ele><time>2026-04-01T16:33:32.999Z</time></trkpt><trkpt lat="45.698347074655686" lon="8.845763207395029"><ele>308.0</ele><time>2026-04-01T16:33:33.999Z</time></trkpt><trkpt lat="45.69826911944368" lon="8.845679414572555"><ele>308.0</ele><time>2026-04-01T16:33:34.999Z</time></trkpt><trkpt lat="45.69819456262801" lon="8.845617897391577"><ele>308.0</ele><time>2026-04-01T16:33:35.999Z</time></trkpt><trkpt lat="45.69812049768482" lon="8.845586254636894"><ele>308.0</ele><time>2026-04-01T16:33:36.999Z</time></trkpt><trkpt lat="45.698048523079265" lon="8.845596723109956"><ele>308.0</ele><time>2026-04-01T16:33:37.999Z</time></trkpt><trkpt lat="45.6979827819417" lon="8.845618752168086"><ele>308.0</ele><time>2026-04-01T16:33:38.999Z</time></trkpt><trkpt lat="45.69789708250476" lon="8.84559945422941"><ele>308.0</ele><time>2026-04-01T16:33:39.999Z</time></trkpt><trkpt lat="45.69779555249901" lon="8.845560652471459"><ele>306.0</ele><time>2026-04-01T16:33:40.999Z</time></trkpt><trkpt lat="45.697693166489245" lon="8.845530172024937"><ele>304.0</ele><time>2026-04-01T16:33:41.999Z</time></trkpt><trkpt lat="45.6975950425871" lon="8.845452674567783"><ele>302.0</ele><time>2026-04-01T16:33:43.999Z</time></trkpt><trkpt lat="45.6975562930348" lon="8.845376327097123"><ele>300.0</ele><time>2026-04-01T16:33:44.999Z</time></trkpt><trkpt lat="45.697483234325716" lon="8.845304858737434"><ele>298.0</ele><time>2026-04-01T16:33:45.999Z</time></trkpt><trkpt lat="45.6974137358832" lon="8.845217737156327"><ele>299.0</ele><time>2026-04-01T16:33:46.999Z</time></trkpt><trkpt lat="45.69735127082605" lon="8.845063626892859"><ele>300.0</ele><time>2026-04-01T16:33:47.998Z</time></trkpt><trkpt lat="45.69730026193862" lon="8.84492400118916"><ele>301.0</ele><time>2026-04-01T16:33:48.998Z</time></trkpt><trkpt lat="45.697263797442574" lon="8.844838826138838"><ele>302.0</ele><time>2026-04-01T16:33:49.998Z</time></trkpt><trkpt lat="45.69719073627126" lon="8.84476076789617"><ele>303.0</ele><time>2026-04-01T16:33:51.998Z</time></trkpt><trkpt lat="45.697113071648154" lon="8.844710663988828"><ele>303.0</ele><time>2026-04-01T16:33:53.998Z</time></trkpt><trkpt lat="45.697028418419265" lon="8.844696389987249"><ele>303.0</ele><time>2026-04-01T16:33:56.998Z</time></trkpt><trkpt lat="45.696961588834355" lon="8.844799498475869"><ele>303.0</ele><time>2026-04-01T16:33:58.998Z</time></trkpt><trkpt lat="45.69691508400752" lon="8.844983827308813"><ele>303.0</ele><time>2026-04-01T16:34:00.998Z</time></trkpt><trkpt lat="45.69691669833908" lon="8.845135892461094"><ele>303.0</ele><time>2026-04-01T16:34:01.998Z</time></trkpt><trkpt lat="45.69690927144971" lon="8.845282477265279"><ele>301.4</ele><time>2026-04-01T16:34:02.998Z</time></trkpt><trkpt lat="45.69689737102599" lon="8.845407880849175"><ele>299.8</ele><time>2026-04-01T16:34:03.998Z</time></trkpt><trkpt lat="45.696827887197955" lon="8.84558336685319"><ele>298.2</ele><time>2026-04-01T16:34:05.998Z</time></trkpt><trkpt lat="45.69676802900648" lon="8.845683058401528"><ele>296.6</ele><time>2026-04-01T16:34:06.998Z</time></trkpt><trkpt lat="45.6967070441998" lon="8.845755369947534"><ele>295.0</ele><time>2026-04-01T16:34:07.998Z</time></trkpt><trkpt lat="45.69667207017115" lon="8.84591317929102"><ele>294.6</ele><time>2026-04-01T16:34:09.998Z</time></trkpt><trkpt lat="45.69666909791906" lon="8.84602727979617"><ele>294.2</ele><time>2026-04-01T16:34:10.998Z</time></trkpt><trkpt lat="45.6966562965752" lon="8.846160525062425"><ele>293.8</ele><time>2026-04-01T16:34:11.998Z</time></trkpt><trkpt lat="45.69661736424685" lon="8.846293457117277"><ele>293.4</ele><time>2026-04-01T16:34:12.998Z</time></trkpt><trkpt lat="45.69658041014474" lon="8.84640116613814"><ele>293.0</ele><time>2026-04-01T16:34:14Z</time></trkpt><trkpt lat="45.69653265253322" lon="8.846546564438077"><ele>293.0</ele><time>2026-04-01T16:34:15Z</time></trkpt><trkpt lat="45.6964928769925" lon="8.846666768651225"><ele>293.0</ele><time>2026-04-01T16:34:16Z</time></trkpt><trkpt lat="45.69647139239772" lon="8.84679112213407"><ele>293.0</ele><time>2026-04-01T16:34:17Z</time></trkpt><trkpt lat="45.696452655046514" lon="8.846926160828925"><ele>293.0</ele><time>2026-04-01T16:34:18Z</time></trkpt><trkpt lat="45.696416598322344" lon="8.847040835488569"><ele>293.0</ele><time>2026-04-01T16:34:19Z</time></trkpt><trkpt lat="45.696379657526165" lon="8.847197785088763"><ele>292.8</ele><time>2026-04-01T16:34:20Z</time></trkpt><trkpt lat="45.69633917852704" lon="8.847334605954718"><ele>292.6</ele><time>2026-04-01T16:34:21Z</time></trkpt><trkpt lat="45.69628238696393" lon="8.847478020881907"><ele>292.4</ele><time>2026-04-01T16:34:23Z</time></trkpt><trkpt lat="45.69620225113549" lon="8.847514103872323"><ele>292.2</ele><time>2026-04-01T16:34:25Z</time></trkpt><trkpt lat="45.69610600739282" lon="8.847481203833215"><ele>292.0</ele><time>2026-04-01T16:34:27Z</time></trkpt><trkpt lat="45.69603311461623" lon="8.847579687327746"><ele>291.3333333333333</ele><time>2026-04-01T16:34:29Z</time></trkpt><trkpt lat="45.69599704499062" lon="8.847676587270533"><ele>290.66666666666663</ele><time>2026-04-01T16:34:30Z</time></trkpt><trkpt lat="45.69595456009737" lon="8.8477656619584"><ele>290.0</ele><time>2026-04-01T16:34:31Z</time></trkpt><trkpt lat="45.69590355832241" lon="8.847841137808313"><ele>289.3333333333333</ele><time>2026-04-01T16:34:32Z</time></trkpt><trkpt lat="45.695855700196745" lon="8.847941754718931"><ele>288.6666666666667</ele><time>2026-04-01T16:34:33Z</time></trkpt><trkpt lat="45.69581537436263" lon="8.84806218270253"><ele>288.0</ele><time>2026-04-01T16:34:34Z</time></trkpt><trkpt lat="45.69577205818508" lon="8.848197532979018"><ele>288.0</ele><time>2026-04-01T16:34:35Z</time></trkpt><trkpt lat="45.695734220562564" lon="8.848318794458793"><ele>288.0</ele><time>2026-04-01T16:34:36Z</time></trkpt><trkpt lat="45.69569493414213" lon="8.848445329953082"><ele>288.0</ele><time>2026-04-01T16:34:37Z</time></trkpt><trkpt lat="45.69565847328061" lon="8.848560227952719"><ele>289.0</ele><time>2026-04-01T16:34:38Z</time></trkpt><trkpt lat="45.695626967726305" lon="8.848676866708802"><ele>289.0</ele><time>2026-04-01T16:34:39Z</time></trkpt><trkpt lat="45.69560014292365" lon="8.848783305073173"><ele>289.0</ele><time>2026-04-01T16:34:40Z</time></trkpt></trkseg></trk></gpx>